Wetterdaten: Sonntag, 16.12.2018
Datum Zeit Temp. A. Pool Temp. Temp. 5cm Feuchte A. Luftdruck Regen Wind Richtung Richtung Sonnenschein ET UV Solar Taupunkt Windchill Windben Empfang
16.12.2018 00:00 -7,4 C 3,9 C -11,1 C 93 % 1021,6 hPa 0,0 l/m 2,3 km/h (1 Bft) S-SW 198 0 min 0,000 mm 0,0 UV-I 0 W/m -8,3 C -7,4 C 3,2 km/h (1 Bft) 96,15 %
16.12.2018 00:02 -7,5 C 3,9 C -11,1 C 93 % 1021,5 hPa 0,0 l/m 2,2 km/h (1 Bft) S-SW 198 0 min 0,000 mm 0,0 UV-I 0 W/m -8,4 C -7,5 C 3,2 km/h (1 Bft) 97,78 %
16.12.2018 00:04 -7,6 C 3,9 C -11,1 C 93 % 1021,5 hPa 0,0 l/m 0,7 km/h (0 Bft) S-SW 198 0 min 0,000 mm 0,0 UV-I 0 W/m -8,5 C -7,6 C 1,6 km/h (1 Bft) 97,14 %
16.12.2018 00:06 -7,6 C 3,9 C -11,7 C 93 % 1021,5 hPa 0,0 l/m 0,7 km/h (0 Bft) S-SW 198 0 min 0,000 mm 0,0 UV-I 0 W/m -8,5 C -7,6 C 1,6 km/h (1 Bft) 94,00 %
16.12.2018 00:08 -7,5 C 3,9 C -11,7 C 93 % 1021,5 hPa 0,0 l/m 2,3 km/h (1 Bft) S-SW 198 0 min 0,000 mm 0,0 UV-I 0 W/m -8,4 C -7,5 C 3,2 km/h (1 Bft) 94,00 %
16.12.2018 00:10 -7,5 C 3,9 C -11,1 C 93 % 1021,5 hPa 0,0 l/m 2,9 km/h (1 Bft) S-SW 198 0 min 0,000 mm 0,0 UV-I 0 W/m -8,4 C -7,5 C 3,2 km/h (1 Bft) 97,87 %
16.12.2018 00:12 -7,5 C 3,9 C -10,6 C 93 % 1021,5 hPa 0,0 l/m 3,0 km/h (1 Bft) S-SW 198 0 min 0,000 mm 0,0 UV-I 0 W/m -8,4 C -7,5 C 3,2 km/h (1 Bft) 97,92 %
16.12.2018 00:14 -7,6 C 3,9 C -10,6 C 93 % 1021,5 hPa 0,0 l/m 3,9 km/h (1 Bft) S-SW 198 0 min 0,000 mm 0,0 UV-I 0 W/m -8,5 C -7,6 C 4,8 km/h (1 Bft) 97,87 %
16.12.2018 00:16 -7,6 C 3,9 C -10,0 C 93 % 1021,4 hPa 0,0 l/m 3,6 km/h (1 Bft) S-SW 198 0 min 0,000 mm 0,0 UV-I 0 W/m -8,5 C -7,6 C 4,8 km/h (1 Bft) 97,87 %
16.12.2018 00:18 -7,6 C 3,9 C -10,0 C 93 % 1021,4 hPa 0,0 l/m 3,6 km/h (1 Bft) S-SW 198 0 min 0,000 mm 0,0 UV-I 0 W/m -8,5 C -7,6 C 4,8 km/h (1 Bft) 95,74 %
16.12.2018 00:20 -7,6 C 3,9 C -10,0 C 93 % 1021,4 hPa 0,0 l/m 3,3 km/h (1 Bft) S-SW 198 0 min 0,000 mm 0,0 UV-I 0 W/m -8,5 C -7,6 C 4,8 km/h (1 Bft) 97,87 %
16.12.2018 00:22 -7,6 C 3,9 C -10,0 C 93 % 1021,4 hPa 0,0 l/m 2,5 km/h (1 Bft) S-SW 198 0 min 0,000 mm 0,0 UV-I 0 W/m -8,5 C -7,6 C 4,8 km/h (1 Bft) 95,74 %
16.12.2018 00:24 -7,4 C 3,9 C -10,6 C 93 % 1021,4 hPa 0,0 l/m 2,3 km/h (1 Bft) S-SW 198 0 min 0,000 mm 0,0 UV-I 0 W/m -8,3 C -7,4 C 3,2 km/h (1 Bft) 97,87 %
16.12.2018 00:26 -7,4 C 3,9 C -10,6 C 93 % 1021,4 hPa 0,0 l/m 2,3 km/h (1 Bft) S-SW 198 0 min 0,000 mm 0,0 UV-I 0 W/m -8,3 C -7,4 C 3,2 km/h (1 Bft) 91,49 %
16.12.2018 00:28 -7,3 C 3,9 C -10,6 C 93 % 1021,4 hPa 0,0 l/m 2,1 km/h (1 Bft) S-SW 198 0 min 0,000 mm 0,0 UV-I 0 W/m -8,2 C -7,3 C 3,2 km/h (1 Bft) 97,87 %
16.12.2018 00:30 -7,3 C 3,9 C -10,6 C 93 % 1021,4 hPa 0,0 l/m 1,8 km/h (1 Bft) S-SW 198 0 min 0,000 mm 0,0 UV-I 0 W/m -8,2 C -7,3 C 3,2 km/h (1 Bft) 97,87 %
16.12.2018 00:32 -7,4 C 3,9 C -10,6 C 93 % 1021,3 hPa 0,0 l/m 1,4 km/h (1 Bft) S-SW 198 0 min 0,000 mm 0,0 UV-I 0 W/m -8,3 C -7,4 C 3,2 km/h (1 Bft) 97,87 %
16.12.2018 00:34 -7,4 C 3,9 C -11,1 C 93 % 1021,3 hPa 0,0 l/m 0,9 km/h (0 Bft) S-SW 198 0 min 0,000 mm 0,0 UV-I 0 W/m -8,3 C -7,4 C 1,6 km/h (1 Bft) 95,74 %
16.12.2018 00:36 -7,5 C 3,9 C -11,1 C 93 % 1021,3 hPa 0,0 l/m 1,2 km/h (1 Bft) S-SW 198 0 min 0,000 mm 0,0 UV-I 0 W/m -8,4 C -7,5 C 1,6 km/h (1 Bft) 97,87 %
16.12.2018 00:38 -7,5 C 3,9 C -11,1 C 93 % 1021,2 hPa 0,0 l/m 1,1 km/h (1 Bft) S-SW 198 0 min 0,000 mm 0,0 UV-I 0 W/m -8,4 C -7,5 C 1,6 km/h (1 Bft) 97,87 %
16.12.2018 00:40 -7,5 C 3,9 C -11,1 C 93 % 1021,2 hPa 0,0 l/m 1,4 km/h (1 Bft) S-SW 198 0 min 0,000 mm 0,0 UV-I 0 W/m -8,4 C -7,5 C 3,2 km/h (1 Bft) 97,87 %
16.12.2018 00:42 -7,6 C 3,9 C -11,1 C 93 % 1021,2 hPa 0,0 l/m 1,5 km/h (1 Bft) S-SW 198 0 min 0,000 mm 0,0 UV-I 0 W/m -8,5 C -7,6 C 3,2 km/h (1 Bft) 97,87 %
16.12.2018 00:44 -7,6 C 3,9 C -11,1 C 93 % 1021,1 hPa 0,0 l/m 1,8 km/h (1 Bft) S-SW 198 0 min 0,000 mm 0,0 UV-I 0 W/m -8,5 C -7,6 C 3,2 km/h (1 Bft) 94,74 %
16.12.2018 00:46 -7,7 C 3,9 C -11,1 C 93 % 1021,1 hPa 0,0 l/m 0,5 km/h (0 Bft) S-SW 198 0 min 0,000 mm 0,0 UV-I 0 W/m -8,6 C -7,7 C 1,6 km/h (1 Bft) 97,92 %
16.12.2018 00:48 -7,7 C 3,9 C -11,1 C 93 % 1021,1 hPa 0,0 l/m 0,6 km/h (0 Bft) S-SW 198 0 min 0,000 mm 0,0 UV-I 0 W/m -8,6 C -7,7 C 1,6 km/h (1 Bft) 95,74 %
16.12.2018 00:50 -7,7 C 3,9 C -11,1 C 93 % 1021,0 hPa 0,0 l/m 0,0 km/h (0 Bft) S-SW 198 0 min 0,000 mm 0,0 UV-I 0 W/m -8,6 C -7,7 C 0,0 km/h (0 Bft) 95,74 %
16.12.2018 00:52 -7,6 C 3,9 C -11,7 C 93 % 1021,1 hPa 0,0 l/m 0,0 km/h (0 Bft) S-SW 198 0 min 0,000 mm 0,0 UV-I 0 W/m -8,5 C -7,6 C 0,0 km/h (0 Bft) 96,00 %
16.12.2018 00:54 -7,6 C 3,9 C -11,7 C 93 % 1021,0 hPa 0,0 l/m 0,6 km/h (0 Bft) S-SW 198 0 min 0,000 mm 0,0 UV-I 0 W/m -8,5 C -7,6 C 3,2 km/h (1 Bft) 97,87 %
16.12.2018 00:56 -7,7 C 3,9 C -11,7 C 93 % 1021,0 hPa 0,0 l/m 2,2 km/h (1 Bft) S-SW 198 0 min 0,000 mm 0,0 UV-I 0 W/m -8,6 C -7,7 C 3,2 km/h (1 Bft) 95,74 %
16.12.2018 00:58 -7,8 C 3,9 C -10,6 C 93 % 1021,0 hPa 0,0 l/m 3,4 km/h (1 Bft) S-SW 198 0 min 0,000 mm 0,0 UV-I 0 W/m -8,7 C -7,8 C 4,8 km/h (1 Bft) 97,87 %
16.12.2018 01:00 -7,9 C 3,9 C -10,0 C 92 % 1021,0 hPa 0,0 l/m 4,5 km/h (1 Bft) S 180 0 min 0,000 mm 0,0 UV-I 0 W/m -9,0 C -7,9 C 4,8 km/h (1 Bft) 95,74 %
16.12.2018 01:02 -7,9 C 3,9 C -10,0 C 92 % 1021,0 hPa 0,0 l/m 3,9 km/h (1 Bft) S 180 0 min 0,000 mm 0,0 UV-I 0 W/m -9,0 C -7,9 C 4,8 km/h (1 Bft) 100,00 %
16.12.2018 01:04 -7,9 C 3,9 C -10,6 C 93 % 1021,0 hPa 0,0 l/m 3,6 km/h (1 Bft) S 180 0 min 0,000 mm 0,0 UV-I 0 W/m -8,8 C -7,9 C 4,8 km/h (1 Bft) 95,74 %
16.12.2018 01:06 -7,9 C 3,9 C -10,0 C 93 % 1021,0 hPa 0,0 l/m 3,9 km/h (1 Bft) S 180 0 min 0,000 mm 0,0 UV-I 0 W/m -8,8 C -7,9 C 4,8 km/h (1 Bft) 97,87 %
16.12.2018 01:08 -7,9 C 3,9 C -10,0 C 93 % 1021,0 hPa 0,0 l/m 3,5 km/h (1 Bft) S 180 0 min 0,000 mm 0,0 UV-I 0 W/m -8,8 C -7,9 C 4,8 km/h (1 Bft) 97,87 %
16.12.2018 01:10 -7,7 C 3,9 C -10,0 C 93 % 1021,0 hPa 0,0 l/m 2,5 km/h (1 Bft) S 180 0 min 0,000 mm 0,0 UV-I 0 W/m -8,6 C -7,7 C 3,2 km/h (1 Bft) 98,00 %
16.12.2018 01:12 -7,6 C 3,9 C -10,0 C 93 % 1021,0 hPa 0,0 l/m 2,1 km/h (1 Bft) S 180 0 min 0,000 mm 0,0 UV-I 0 W/m -8,5 C -7,6 C 3,2 km/h (1 Bft) 97,14 %
16.12.2018 01:14 -7,7 C 3,9 C -10,6 C 93 % 1021,0 hPa 0,0 l/m 1,9 km/h (1 Bft) S 180 0 min 0,000 mm 0,0 UV-I 0 W/m -8,6 C -7,7 C 3,2 km/h (1 Bft) 100,00 %
16.12.2018 01:16 -7,8 C 3,9 C -10,6 C 93 % 1021,0 hPa 0,0 l/m 1,6 km/h (1 Bft) S 180 0 min 0,000 mm 0,0 UV-I 0 W/m -8,7 C -7,8 C 3,2 km/h (1 Bft) 100,00 %
16.12.2018 01:18 -7,8 C 3,9 C -11,1 C 92 % 1021,0 hPa 0,0 l/m 1,6 km/h (1 Bft) S 180 0 min 0,000 mm 0,0 UV-I 0 W/m -8,9 C -7,8 C 3,2 km/h (1 Bft) 100,00 %
16.12.2018 01:20 -8,0 C 3,9 C -11,1 C 92 % 1021,0 hPa 0,0 l/m 0,8 km/h (0 Bft) S 180 0 min 0,000 mm 0,0 UV-I 0 W/m -9,1 C -8,0 C 1,6 km/h (1 Bft) 100,00 %
16.12.2018 01:22 -8,1 C 3,9 C -11,1 C 92 % 1020,9 hPa 0,0 l/m 0,1 km/h (0 Bft) S 180 0 min 0,000 mm 0,0 UV-I 0 W/m -9,2 C -8,1 C 1,6 km/h (1 Bft) 100,00 %
16.12.2018 01:24 -8,2 C 3,9 C -11,1 C 92 % 1020,9 hPa 0,0 l/m 0,6 km/h (0 Bft) S 180 0 min 0,000 mm 0,0 UV-I 0 W/m -9,3 C -8,2 C 1,6 km/h (1 Bft) 100,00 %
16.12.2018 01:26 -8,2 C 3,9 C -11,7 C 92 % 1020,9 hPa 0,0 l/m 1,4 km/h (1 Bft) S 180 0 min 0,000 mm 0,0 UV-I 0 W/m -9,3 C -8,2 C 3,2 km/h (1 Bft) 100,00 %
16.12.2018 01:28 -8,2 C 3,9 C -11,7 C 93 % 1020,8 hPa 0,0 l/m 1,0 km/h (0 Bft) S 180 0 min 0,000 mm 0,0 UV-I 0 W/m -9,1 C -8,2 C 1,6 km/h (1 Bft) 100,00 %
16.12.2018 01:30 -8,2 C 3,9 C -11,7 C 93 % 1020,8 hPa 0,0 l/m 1,1 km/h (1 Bft) S 180 0 min 0,000 mm 0,0 UV-I 0 W/m -9,1 C -8,2 C 1,6 km/h (1 Bft) 98,00 %
16.12.2018 01:32 -8,2 C 3,9 C -11,7 C 93 % 1020,8 hPa 0,0 l/m 0,1 km/h (0 Bft) S 180 0 min 0,000 mm 0,0 UV-I 0 W/m -9,1 C -8,2 C 1,6 km/h (1 Bft) 100,00 %
16.12.2018 01:34 -8,3 C 3,9 C -11,7 C 93 % 1020,8 hPa 0,0 l/m 0,7 km/h (0 Bft) S 180 0 min 0,000 mm 0,0 UV-I 0 W/m -9,2 C -8,3 C 1,6 km/h (1 Bft) 97,87 %
16.12.2018 01:36 -8,3 C 3,9 C -12,2 C 93 % 1020,7 hPa 0,0 l/m 1,6 km/h (1 Bft) S 180 0 min 0,000 mm 0,0 UV-I 0 W/m -9,2 C -8,3 C 3,2 km/h (1 Bft) 97,22 %
16.12.2018 01:38 -8,2 C 3,9 C -12,2 C 93 % 1020,7 hPa 0,0 l/m 1,0 km/h (0 Bft) S 180 0 min 0,000 mm 0,0 UV-I 0 W/m -9,1 C -8,2 C 1,6 km/h (1 Bft) 100,00 %
16.12.2018 01:40 -8,2 C 3,9 C -12,2 C 93 % 1020,7 hPa 0,0 l/m 0,4 km/h (0 Bft) S 180 0 min 0,000 mm 0,0 UV-I 0 W/m -9,1 C -8,2 C 1,6 km/h (1 Bft) 97,87 %
16.12.2018 01:42 -8,3 C 3,9 C -12,2 C 93 % 1020,7 hPa 0,0 l/m 0,0 km/h (0 Bft) S 180 0 min 0,000 mm 0,0 UV-I 0 W/m -9,2 C -8,3 C 0,0 km/h (0 Bft) 100,00 %
16.12.2018 01:44 -8,3 C 3,9 C -11,7 C 93 % 1020,7 hPa 0,0 l/m 0,0 km/h (0 Bft) S 180 0 min 0,000 mm 0,0 UV-I 0 W/m -9,2 C -8,3 C 0,0 km/h (0 Bft) 100,00 %
16.12.2018 01:46 -8,3 C 3,9 C -11,7 C 93 % 1020,6 hPa 0,0 l/m 0,0 km/h (0 Bft) S 180 0 min 0,000 mm 0,0 UV-I 0 W/m -9,2 C -8,3 C 0,0 km/h (0 Bft) 100,00 %
16.12.2018 01:48 -8,4 C 3,9 C -11,7 C 92 % 1020,6 hPa 0,0 l/m 0,0 km/h (0 Bft) S 180 0 min 0,000 mm 0,0 UV-I 0 W/m -9,5 C -8,4 C 0,0 km/h (0 Bft) 100,00 %
16.12.2018 01:50 -8,3 C 3,9 C -12,2 C 93 % 1020,6 hPa 0,0 l/m 0,0 km/h (0 Bft) S 180 0 min 0,000 mm 0,0 UV-I 0 W/m -9,2 C -8,3 C 0,0 km/h (0 Bft) 100,00 %
16.12.2018 01:52 -8,3 C 3,9 C -11,7 C 93 % 1020,5 hPa 0,0 l/m 0,0 km/h (0 Bft) S 180 0 min 0,000 mm 0,0 UV-I 0 W/m -9,2 C -8,3 C 0,0 km/h (0 Bft) 100,00 %
16.12.2018 01:54 -8,4 C 3,9 C -11,7 C 93 % 1020,5 hPa 0,0 l/m 1,3 km/h (1 Bft) S 180 0 min 0,000 mm 0,0 UV-I 0 W/m -9,3 C -8,4 C 3,2 km/h (1 Bft) 100,00 %
16.12.2018 01:56 -8,6 C 3,9 C -11,7 C 92 % 1020,4 hPa 0,0 l/m 2,1 km/h (1 Bft) S 180 0 min 0,000 mm 0,0 UV-I 0 W/m -9,7 C -8,6 C 3,2 km/h (1 Bft) 97,87 %
16.12.2018 01:58 -8,6 C 3,9 C -11,7 C 93 % 1020,3 hPa 0,0 l/m 2,1 km/h (1 Bft) S 180 0 min 0,000 mm 0,0 UV-I 0 W/m -9,5 C -8,6 C 3,2 km/h (1 Bft) 97,92 %
16.12.2018 02:00 -8,4 C 3,9 C -11,7 C 93 % 1020,3 hPa 0,0 l/m 2,1 km/h (1 Bft) S 180 0 min 0,000 mm 0,0 UV-I 0 W/m -9,3 C -8,4 C 3,2 km/h (1 Bft) 97,87 %
16.12.2018 02:02 -8,2 C 3,9 C -11,7 C 93 % 1020,3 hPa 0,0 l/m 2,2 km/h (1 Bft) S 180 0 min 0,000 mm 0,0 UV-I 0 W/m -9,1 C -8,2 C 3,2 km/h (1 Bft) 97,87 %
16.12.2018 02:04 -7,9 C 3,9 C -11,7 C 94 % 1020,3 hPa 0,0 l/m 1,8 km/h (1 Bft) S 180 0 min 0,000 mm 0,0 UV-I 0 W/m -8,7 C -7,9 C 3,2 km/h (1 Bft) 95,74 %
16.12.2018 02:06 -7,8 C 3,9 C -11,7 C 94 % 1020,3 hPa 0,0 l/m 1,5 km/h (1 Bft) S 180 0 min 0,000 mm 0,0 UV-I 0 W/m -8,6 C -7,8 C 3,2 km/h (1 Bft) 93,62 %
16.12.2018 02:08 -7,8 C 3,9 C -11,7 C 93 % 1020,2 hPa 0,0 l/m 1,0 km/h (0 Bft) S 180 0 min 0,000 mm 0,0 UV-I 0 W/m -8,7 C -7,8 C 3,2 km/h (1 Bft) 97,92 %
16.12.2018 02:10 -7,9 C 3,9 C -11,7 C 93 % 1020,1 hPa 0,0 l/m 1,0 km/h (0 Bft) S 180 0 min 0,000 mm 0,0 UV-I 0 W/m -8,8 C -7,9 C 3,2 km/h (1 Bft) 97,87 %
16.12.2018 02:12 -8,0 C 3,9 C -11,7 C 93 % 1020,1 hPa 0,0 l/m 0,6 km/h (0 Bft) S 180 0 min 0,000 mm 0,0 UV-I 0 W/m -8,9 C -8,0 C 3,2 km/h (1 Bft) 95,74 %
16.12.2018 02:14 -8,2 C 3,9 C -11,7 C 93 % 1020,2 hPa 0,0 l/m 0,8 km/h (0 Bft) S 180 0 min 0,000 mm 0,0 UV-I 0 W/m -9,1 C -8,2 C 1,6 km/h (1 Bft) 100,00 %
16.12.2018 02:16 -8,4 C 3,9 C -11,1 C 92 % 1020,0 hPa 0,0 l/m 1,6 km/h (1 Bft) S 180 0 min 0,000 mm 0,0 UV-I 0 W/m -9,5 C -8,4 C 3,2 km/h (1 Bft) 97,87 %
16.12.2018 02:18 -8,7 C 3,9 C -11,1 C 92 % 1020,0 hPa 0,0 l/m 2,3 km/h (1 Bft) S 180 0 min 0,000 mm 0,0 UV-I 0 W/m -9,8 C -8,7 C 3,2 km/h (1 Bft) 95,74 %
16.12.2018 02:20 -9,0 C 3,9 C -11,1 C 92 % 1020,0 hPa 0,0 l/m 2,1 km/h (1 Bft) S 180 0 min 0,000 mm 0,0 UV-I 0 W/m -10,1 C -9,0 C 3,2 km/h (1 Bft) 97,87 %
16.12.2018 02:22 -9,2 C 3,9 C -11,1 C 92 % 1020,0 hPa 0,0 l/m 2,6 km/h (1 Bft) S 179 0 min 0,000 mm 0,0 UV-I 0 W/m -10,3 C -9,2 C 4,8 km/h (1 Bft) 97,87 %
16.12.2018 02:24 -9,1 C 3,9 C -11,1 C 92 % 1020,0 hPa 0,0 l/m 1,2 km/h (1 Bft) S 179 0 min 0,000 mm 0,0 UV-I 0 W/m -10,2 C -9,1 C 1,6 km/h (1 Bft) 100,00 %
16.12.2018 02:26 -9,1 C 3,9 C -11,7 C 93 % 1020,0 hPa 0,0 l/m 0,0 km/h (0 Bft) S 179 0 min 0,000 mm 0,0 UV-I 0 W/m -10,0 C -9,1 C 0,0 km/h (0 Bft) 100,00 %
16.12.2018 02:28 -8,9 C 3,9 C -11,7 C 93 % 1019,9 hPa 0,0 l/m 0,0 km/h (0 Bft) S 179 0 min 0,000 mm 0,0 UV-I 0 W/m -9,8 C -8,9 C 0,0 km/h (0 Bft) 97,87 %
16.12.2018 02:30 -8,9 C 3,9 C -12,2 C 93 % 1019,9 hPa 0,0 l/m 0,0 km/h (0 Bft) S 179 0 min 0,000 mm 0,0 UV-I 0 W/m -9,8 C -8,9 C 0,0 km/h (0 Bft) 97,87 %
16.12.2018 02:32 -8,9 C 3,9 C -12,2 C 93 % 1019,9 hPa 0,0 l/m 0,0 km/h (0 Bft) S 179 0 min 0,000 mm 0,0 UV-I 0 W/m -9,8 C -8,9 C 0,0 km/h (0 Bft) 100,00 %
16.12.2018 02:34 -8,9 C 3,9 C -12,2 C 93 % 1019,8 hPa 0,0 l/m 0,0 km/h (0 Bft) S 179 0 min 0,000 mm 0,0 UV-I 0 W/m -9,8 C -8,9 C 0,0 km/h (0 Bft) 100,00 %
16.12.2018 02:36 -9,1 C 3,9 C -12,2 C 93 % 1019,8 hPa 0,0 l/m 0,0 km/h (0 Bft) S 179 0 min 0,000 mm 0,0 UV-I 0 W/m -10,0 C -9,1 C 0,0 km/h (0 Bft) 100,00 %
16.12.2018 02:38 -9,1 C 3,9 C -12,2 C 93 % 1019,8 hPa 0,0 l/m 0,0 km/h (0 Bft) S 179 0 min 0,000 mm 0,0 UV-I 0 W/m -10,0 C -9,1 C 0,0 km/h (0 Bft) 100,00 %
16.12.2018 02:40 -9,1 C 3,9 C -12,2 C 93 % 1019,7 hPa 0,0 l/m 0,0 km/h (0 Bft) S 179 0 min 0,000 mm 0,0 UV-I 0 W/m -10,0 C -9,1 C 0,0 km/h (0 Bft) 100,00 %
16.12.2018 02:42 -9,1 C 3,9 C -12,2 C 93 % 1019,7 hPa 0,0 l/m 0,0 km/h (0 Bft) S 179 0 min 0,000 mm 0,0 UV-I 0 W/m -10,0 C -9,1 C 0,0 km/h (0 Bft) 95,74 %
16.12.2018 02:44 -9,1 C 3,9 C -12,8 C 93 % 1019,7 hPa 0,0 l/m 0,0 km/h (0 Bft) S 179 0 min 0,000 mm 0,0 UV-I 0 W/m -10,0 C -9,1 C 0,0 km/h (0 Bft) 97,87 %
16.12.2018 02:46 -9,0 C 3,9 C -12,8 C 93 % 1019,6 hPa 0,0 l/m 0,0 km/h (0 Bft) S 179 0 min 0,000 mm 0,0 UV-I 0 W/m -9,9 C -9,0 C 0,0 km/h (0 Bft) 93,62 %
16.12.2018 02:48 -8,9 C 3,9 C -12,8 C 93 % 1019,6 hPa 0,0 l/m 0,8 km/h (0 Bft) S 179 0 min 0,000 mm 0,0 UV-I 0 W/m -9,8 C -8,9 C 3,2 km/h (1 Bft) 95,74 %
16.12.2018 02:50 -8,8 C 3,9 C -12,8 C 93 % 1019,6 hPa 0,0 l/m 1,2 km/h (1 Bft) S 179 0 min 0,000 mm 0,0 UV-I 0 W/m -9,7 C -8,8 C 3,2 km/h (1 Bft) 95,83 %
16.12.2018 02:52 -8,8 C 3,9 C -12,8 C 93 % 1019,6 hPa 0,0 l/m 0,5 km/h (0 Bft) S 179 0 min 0,000 mm 0,0 UV-I 0 W/m -9,7 C -8,8 C 1,6 km/h (1 Bft) 91,49 %
16.12.2018 02:54 -8,8 C 3,9 C -12,8 C 93 % 1019,6 hPa 0,0 l/m 2,1 km/h (1 Bft) S 179 0 min 0,000 mm 0,0 UV-I 0 W/m -9,7 C -8,8 C 3,2 km/h (1 Bft) 95,74 %
16.12.2018 02:56 -8,8 C 3,9 C -12,2 C 93 % 1019,6 hPa 0,0 l/m 2,7 km/h (1 Bft) S 180 0 min 0,000 mm 0,0 UV-I 0 W/m -9,7 C -8,8 C 3,2 km/h (1 Bft) 95,74 %
16.12.2018 02:58 -8,9 C 3,9 C -12,2 C 93 % 1019,7 hPa 0,0 l/m 2,9 km/h (1 Bft) S 180 0 min 0,000 mm 0,0 UV-I 0 W/m -9,8 C -8,9 C 4,8 km/h (1 Bft) 89,36 %
16.12.2018 03:00 -9,1 C 3,9 C -11,7 C 93 % 1019,7 hPa 0,0 l/m 3,4 km/h (1 Bft) S 180 0 min 0,000 mm 0,0 UV-I 0 W/m -10,0 C -9,1 C 4,8 km/h (1 Bft) 94,00 %
16.12.2018 03:02 -9,1 C 3,9 C -11,7 C 93 % 1019,7 hPa 0,0 l/m 3,0 km/h (1 Bft) S 180 0 min 0,000 mm 0,0 UV-I 0 W/m -10,0 C -9,1 C 4,8 km/h (1 Bft) 91,67 %
16.12.2018 03:04 -9,0 C 3,9 C -11,7 C 93 % 1019,6 hPa 0,0 l/m 3,2 km/h (1 Bft) S 180 0 min 0,000 mm 0,0 UV-I 0 W/m -9,9 C -9,0 C 4,8 km/h (1 Bft) 89,36 %
16.12.2018 03:06 -8,9 C 3,9 C -11,7 C 93 % 1019,6 hPa 0,0 l/m 3,5 km/h (1 Bft) S 180 0 min 0,000 mm 0,0 UV-I 0 W/m -9,8 C -8,9 C 4,8 km/h (1 Bft) 91,49 %
16.12.2018 03:08 -8,8 C 3,9 C -11,7 C 93 % 1019,6 hPa 0,0 l/m 3,7 km/h (1 Bft) S 180 0 min 0,000 mm 0,0 UV-I 0 W/m -9,7 C -8,8 C 4,8 km/h (1 Bft) 94,00 %
16.12.2018 03:10 -8,8 C 3,9 C -11,7 C 93 % 1019,6 hPa 0,0 l/m 3,2 km/h (1 Bft) S 180 0 min 0,000 mm 0,0 UV-I 0 W/m -9,7 C -8,8 C 4,8 km/h (1 Bft) 93,62 %
16.12.2018 03:12 -8,8 C 3,9 C -11,7 C 93 % 1019,6 hPa 0,0 l/m 3,0 km/h (1 Bft) S 180 0 min 0,000 mm 0,0 UV-I 0 W/m -9,7 C -8,8 C 3,2 km/h (1 Bft) 94,00 %
16.12.2018 03:14 -8,8 C 3,9 C -11,7 C 93 % 1019,6 hPa 0,0 l/m 2,6 km/h (1 Bft) S 180 0 min 0,000 mm 0,0 UV-I 0 W/m -9,7 C -8,8 C 3,2 km/h (1 Bft) 89,36 %
16.12.2018 03:16 -8,8 C 3,9 C -11,7 C 93 % 1019,5 hPa 0,0 l/m 1,9 km/h (1 Bft) S 180 0 min 0,000 mm 0,0 UV-I 0 W/m -9,7 C -8,8 C 3,2 km/h (1 Bft) 88,00 %
16.12.2018 03:18 -8,8 C 3,9 C -12,2 C 93 % 1019,5 hPa 0,0 l/m 0,6 km/h (0 Bft) S 180 0 min 0,000 mm 0,0 UV-I 0 W/m -9,7 C -8,8 C 1,6 km/h (1 Bft) 95,74 %
16.12.2018 03:20 -8,8 C 3,9 C -12,2 C 93 % 1019,5 hPa 0,0 l/m 0,0 km/h (0 Bft) S 180 0 min 0,000 mm 0,0 UV-I 0 W/m -9,7 C -8,8 C 0,0 km/h (0 Bft) 94,74 %
16.12.2018 03:22 -8,8 C 3,9 C -12,2 C 93 % 1019,5 hPa 0,0 l/m 0,7 km/h (0 Bft) S 180 0 min 0,000 mm 0,0 UV-I 0 W/m -9,7 C -8,8 C 1,6 km/h (1 Bft) 93,75 %
16.12.2018 03:24 -8,8 C 3,9 C -12,2 C 93 % 1019,5 hPa 0,0 l/m 1,4 km/h (1 Bft) S 180 0 min 0,000 mm 0,0 UV-I 0 W/m -9,7 C -8,8 C 1,6 km/h (1 Bft) 95,74 %
16.12.2018 03:26 -8,9 C 3,9 C -12,2 C 93 % 1019,5 hPa 0,0 l/m 1,4 km/h (1 Bft) S 180 0 min 0,000 mm 0,0 UV-I 0 W/m -9,8 C -8,9 C 1,6 km/h (1 Bft) 95,74 %
16.12.2018 03:28 -9,0 C 3,9 C -12,2 C 93 % 1019,4 hPa 0,0 l/m 0,8 km/h (0 Bft) S 180 0 min 0,000 mm 0,0 UV-I 0 W/m -9,9 C -9,0 C 1,6 km/h (1 Bft) 97,87 %
16.12.2018 03:30 -9,1 C 3,9 C -12,2 C 93 % 1019,4 hPa 0,0 l/m 0,7 km/h (0 Bft) S 180 0 min 0,000 mm 0,0 UV-I 0 W/m -10,0 C -9,1 C 1,6 km/h (1 Bft) 93,62 %
16.12.2018 03:32 -9,2 C 3,9 C -12,2 C 93 % 1019,4 hPa 0,0 l/m 0,6 km/h (0 Bft) S 180 0 min 0,000 mm 0,0 UV-I 0 W/m -10,1 C -9,2 C 1,6 km/h (1 Bft) 97,87 %
16.12.2018 03:34 -9,2 C 3,9 C -12,8 C 93 % 1019,3 hPa 0,0 l/m 1,6 km/h (1 Bft) S 180 0 min 0,000 mm 0,0 UV-I 0 W/m -10,1 C -9,2 C 1,6 km/h (1 Bft) 93,62 %
16.12.2018 03:36 -9,2 C 3,9 C -12,8 C 93 % 1019,3 hPa 0,0 l/m 2,1 km/h (1 Bft) S 180 0 min 0,000 mm 0,0 UV-I 0 W/m -10,1 C -9,2 C 3,2 km/h (1 Bft) 98,00 %
16.12.2018 03:38 -9,2 C 3,9 C -12,8 C 93 % 1019,1 hPa 0,0 l/m 3,4 km/h (1 Bft) S 180 0 min 0,000 mm 0,0 UV-I 0 W/m -10,1 C -9,2 C 4,8 km/h (1 Bft) 97,87 %
16.12.2018 03:40 -9,2 C 3,9 C -12,2 C 93 % 1019,1 hPa 0,0 l/m 3,6 km/h (1 Bft) O-NO 59 0 min 0,000 mm 0,0 UV-I 0 W/m -10,1 C -9,2 C 4,8 km/h (1 Bft) 97,87 %
16.12.2018 03:42 -9,2 C 3,9 C -11,7 C 93 % 1019,1 hPa 0,0 l/m 2,7 km/h (1 Bft) O-NO 59 0 min 0,000 mm 0,0 UV-I 0 W/m -10,1 C -9,2 C 3,2 km/h (1 Bft) 100,00 %
16.12.2018 03:44 -9,2 C 3,9 C -11,7 C 93 % 1019,1 hPa 0,0 l/m 2,9 km/h (1 Bft) O-NO 59 0 min 0,000 mm 0,0 UV-I 0 W/m -10,1 C -9,2 C 4,8 km/h (1 Bft) 100,00 %
16.12.2018 03:46 -9,0 C 3,9 C -11,7 C 93 % 1019,0 hPa 0,0 l/m 3,9 km/h (1 Bft) O-NO 59 0 min 0,000 mm 0,0 UV-I 0 W/m -9,9 C -9,0 C 4,8 km/h (1 Bft) 100,00 %
16.12.2018 03:48 -8,9 C 3,9 C -11,7 C 93 % 1019,0 hPa 0,0 l/m 5,0 km/h (1 Bft) O-NO 59 0 min 0,000 mm 0,0 UV-I 0 W/m -9,8 C -8,9 C 6,4 km/h (2 Bft) 100,00 %
16.12.2018 03:50 -8,8 C 3,9 C -11,1 C 93 % 1018,9 hPa 0,0 l/m 5,2 km/h (1 Bft) O-NO 59 0 min 0,000 mm 0,0 UV-I 0 W/m -9,7 C -8,8 C 6,4 km/h (2 Bft) 95,74 %
16.12.2018 03:52 -8,8 C 3,9 C -11,1 C 93 % 1018,9 hPa 0,0 l/m 6,0 km/h (2 Bft) O-NO 59 0 min 0,000 mm 0,0 UV-I 0 W/m -9,7 C -8,8 C 8,0 km/h (2 Bft) 100,00 %
16.12.2018 03:54 -8,8 C 3,9 C -10,6 C 93 % 1018,9 hPa 0,0 l/m 5,5 km/h (1 Bft) O-NO 59 0 min 0,000 mm 0,0 UV-I 0 W/m -9,7 C -8,8 C 6,4 km/h (2 Bft) 100,00 %
16.12.2018 03:56 -8,8 C 3,9 C -10,6 C 93 % 1018,9 hPa 0,0 l/m 5,4 km/h (1 Bft) O-NO 59 0 min 0,000 mm 0,0 UV-I 0 W/m -9,7 C -8,8 C 6,4 km/h (2 Bft) 100,00 %
16.12.2018 03:58 -8,8 C 3,9 C -10,6 C 93 % 1018,9 hPa 0,0 l/m 4,7 km/h (1 Bft) O-NO 59 0 min 0,000 mm 0,0 UV-I 0 W/m -9,7 C -8,8 C 6,4 km/h (2 Bft) 97,87 %
16.12.2018 04:00 -8,8 C 3,9 C -10,6 C 93 % 1018,9 hPa 0,0 l/m 4,0 km/h (1 Bft) O-NO 59 0 min 0,000 mm 0,0 UV-I 0 W/m -9,7 C -8,8 C 4,8 km/h (1 Bft) 95,74 %
16.12.2018 04:02 -8,8 C 3,9 C -10,6 C 93 % 1018,9 hPa 0,0 l/m 3,3 km/h (1 Bft) O-NO 59 0 min 0,000 mm 0,0 UV-I 0 W/m -9,7 C -8,8 C 4,8 km/h (1 Bft) 94,12 %
16.12.2018 04:04 -8,8 C 3,9 C -11,1 C 93 % 1018,8 hPa 0,0 l/m 3,3 km/h (1 Bft) O-NO 59 0 min 0,000 mm 0,0 UV-I 0 W/m -9,7 C -8,8 C 4,8 km/h (1 Bft) 97,92 %
16.12.2018 04:06 -8,7 C 3,9 C -11,1 C 93 % 1018,8 hPa 0,0 l/m 3,6 km/h (1 Bft) O-NO 59 0 min 0,000 mm 0,0 UV-I 0 W/m -9,6 C -8,7 C 4,8 km/h (1 Bft) 97,87 %
16.12.2018 04:08 -8,6 C 3,9 C -11,7 C 94 % 1018,8 hPa 0,0 l/m 2,7 km/h (1 Bft) O-NO 59 0 min 0,000 mm 0,0 UV-I 0 W/m -9,4 C -8,6 C 4,8 km/h (1 Bft) 98,00 %
16.12.2018 04:10 -8,6 C 3,9 C -11,7 C 93 % 1018,8 hPa 0,0 l/m 2,5 km/h (1 Bft) O-NO 59 0 min 0,000 mm 0,0 UV-I 0 W/m -9,5 C -8,6 C 3,2 km/h (1 Bft) 97,87 %
16.12.2018 04:12 -8,6 C 3,9 C -11,7 C 93 % 1018,8 hPa 0,0 l/m 2,5 km/h (1 Bft) O-NO 59 0 min 0,000 mm 0,0 UV-I 0 W/m -9,5 C -8,6 C 3,2 km/h (1 Bft) 97,87 %
16.12.2018 04:14 -8,6 C 3,9 C -11,7 C 93 % 1018,8 hPa 0,0 l/m 1,9 km/h (1 Bft) O-NO 59 0 min 0,000 mm 0,0 UV-I 0 W/m -9,5 C -8,6 C 3,2 km/h (1 Bft) 98,00 %
16.12.2018 04:16 -8,8 C 3,9 C -11,7 C 93 % 1018,8 hPa 0,0 l/m 0,7 km/h (0 Bft) O-NO 59 0 min 0,000 mm 0,0 UV-I 0 W/m -9,7 C -8,8 C 1,6 km/h (1 Bft) 93,62 %
16.12.2018 04:18 -8,9 C 3,9 C -12,2 C 93 % 1018,8 hPa 0,0 l/m 0,1 km/h (0 Bft) O-NO 59 0 min 0,000 mm 0,0 UV-I 0 W/m -9,8 C -8,9 C 1,6 km/h (1 Bft) 97,14 %
16.12.2018 04:20 -9,1 C 3,9 C -12,2 C 93 % 1018,9 hPa 0,0 l/m 0,0 km/h (0 Bft) O-NO 59 0 min 0,000 mm 0,0 UV-I 0 W/m -10,0 C -9,1 C 0,0 km/h (0 Bft) 100,00 %
16.12.2018 04:22 -9,2 C 3,9 C -11,7 C 93 % 1018,9 hPa 0,0 l/m 0,2 km/h (0 Bft) O-NO 59 0 min 0,000 mm 0,0 UV-I 0 W/m -10,1 C -9,2 C 1,6 km/h (1 Bft) 100,00 %
16.12.2018 04:24 -9,2 C 3,9 C -11,7 C 93 % 1018,9 hPa 0,0 l/m 1,3 km/h (1 Bft) O-NO 59 0 min 0,000 mm 0,0 UV-I 0 W/m -10,1 C -9,2 C 3,2 km/h (1 Bft) 100,00 %
16.12.2018 04:26 -9,3 C 3,9 C -11,7 C 93 % 1018,9 hPa 0,0 l/m 1,8 km/h (1 Bft) O-NO 59 0 min 0,000 mm 0,0 UV-I 0 W/m -10,2 C -9,3 C 3,2 km/h (1 Bft) 100,00 %
16.12.2018 04:28 -9,3 C 3,9 C -11,7 C 93 % 1018,9 hPa 0,0 l/m 0,9 km/h (0 Bft) O-NO 59 0 min 0,000 mm 0,0 UV-I 0 W/m -10,2 C -9,3 C 1,6 km/h (1 Bft) 98,00 %
16.12.2018 04:30 -9,3 C 3,9 C -11,7 C 93 % 1018,8 hPa 0,0 l/m 0,0 km/h (0 Bft) O-NO 59 0 min 0,000 mm 0,0 UV-I 0 W/m -10,2 C -9,3 C 0,0 km/h (0 Bft) 100,00 %
16.12.2018 04:32 -9,3 C 3,9 C -11,7 C 93 % 1018,9 hPa 0,0 l/m 0,9 km/h (0 Bft) O-NO 59 0 min 0,000 mm 0,0 UV-I 0 W/m -10,2 C -9,3 C 1,6 km/h (1 Bft) 100,00 %
16.12.2018 04:34 -9,3 C 3,9 C -11,7 C 93 % 1018,9 hPa 0,0 l/m 1,0 km/h (0 Bft) O-NO 59 0 min 0,000 mm 0,0 UV-I 0 W/m -10,2 C -9,3 C 1,6 km/h (1 Bft) 100,00 %
16.12.2018 04:36 -9,3 C 3,9 C -12,2 C 93 % 1018,9 hPa 0,0 l/m 1,5 km/h (1 Bft) O-NO 59 0 min 0,000 mm 0,0 UV-I 0 W/m -10,2 C -9,3 C 1,6 km/h (1 Bft) 97,87 %
16.12.2018 04:38 -9,2 C 3,9 C -12,2 C 93 % 1018,9 hPa 0,0 l/m 1,6 km/h (1 Bft) O-NO 59 0 min 0,000 mm 0,0 UV-I 0 W/m -10,1 C -9,2 C 3,2 km/h (1 Bft) 100,00 %
16.12.2018 04:40 -9,2 C 3,9 C -12,2 C 93 % 1018,9 hPa 0,0 l/m 1,6 km/h (1 Bft) O-NO 59 0 min 0,000 mm 0,0 UV-I 0 W/m -10,1 C -9,2 C 1,6 km/h (1 Bft) 97,87 %
16.12.2018 04:42 -9,3 C 3,9 C -12,2 C 93 % 1018,9 hPa 0,0 l/m 1,5 km/h (1 Bft) O-NO 59 0 min 0,000 mm 0,0 UV-I 0 W/m -10,2 C -9,3 C 1,6 km/h (1 Bft) 100,00 %
16.12.2018 04:44 -9,3 C 3,9 C -12,2 C 93 % 1018,8 hPa 0,0 l/m 0,5 km/h (0 Bft) O-NO 59 0 min 0,000 mm 0,0 UV-I 0 W/m -10,2 C -9,3 C 1,6 km/h (1 Bft) 100,00 %
16.12.2018 04:46 -9,3 C 3,9 C -12,2 C 92 % 1018,8 hPa 0,0 l/m 0,3 km/h (0 Bft) O-NO 59 0 min 0,000 mm 0,0 UV-I 0 W/m -10,4 C -9,3 C 1,6 km/h (1 Bft) 95,83 %
16.12.2018 04:48 -9,3 C 3,9 C -12,8 C 93 % 1018,7 hPa 0,0 l/m 1,6 km/h (1 Bft) O-NO 59 0 min 0,000 mm 0,0 UV-I 0 W/m -10,2 C -9,3 C 3,2 km/h (1 Bft) 100,00 %
16.12.2018 04:50 -9,2 C 3,9 C -12,2 C 93 % 1018,7 hPa 0,0 l/m 1,9 km/h (1 Bft) O-NO 59 0 min 0,000 mm 0,0 UV-I 0 W/m -10,1 C -9,2 C 3,2 km/h (1 Bft) 100,00 %
16.12.2018 04:52 -9,2 C 3,9 C -12,8 C 93 % 1018,6 hPa 0,0 l/m 1,6 km/h (1 Bft) O-NO 59 0 min 0,000 mm 0,0 UV-I 0 W/m -10,1 C -9,2 C 3,2 km/h (1 Bft) 100,00 %
16.12.2018 04:54 -9,2 C 3,9 C -12,8 C 93 % 1018,6 hPa 0,0 l/m 1,4 km/h (1 Bft) O-NO 59 0 min 0,000 mm 0,0 UV-I 0 W/m -10,1 C -9,2 C 3,2 km/h (1 Bft) 100,00 %
16.12.2018 04:56 -9,1 C 3,9 C -12,2 C 93 % 1018,6 hPa 0,0 l/m 1,5 km/h (1 Bft) O-NO 59 0 min 0,000 mm 0,0 UV-I 0 W/m -10,0 C -9,1 C 3,2 km/h (1 Bft) 100,00 %
16.12.2018 04:58 -9,2 C 3,9 C -12,8 C 93 % 1018,6 hPa 0,0 l/m 1,6 km/h (1 Bft) O-NO 59 0 min 0,000 mm 0,0 UV-I 0 W/m -10,1 C -9,2 C 3,2 km/h (1 Bft) 100,00 %
16.12.2018 05:00 -9,1 C 3,9 C -12,8 C 93 % 1018,6 hPa 0,0 l/m 1,6 km/h (1 Bft) O-NO 59 0 min 0,000 mm 0,0 UV-I 0 W/m -10,0 C -9,1 C 3,2 km/h (1 Bft) 97,87 %
16.12.2018 05:02 -9,1 C 3,9 C -12,8 C 93 % 1018,6 hPa 0,0 l/m 1,2 km/h (1 Bft) O-NO 59 0 min 0,000 mm 0,0 UV-I 0 W/m -10,0 C -9,1 C 3,2 km/h (1 Bft) 100,00 %
16.12.2018 05:04 -9,3 C 3,9 C -12,8 C 93 % 1018,6 hPa 0,0 l/m 0,7 km/h (0 Bft) O-NO 59 0 min 0,000 mm 0,0 UV-I 0 W/m -10,2 C -9,3 C 1,6 km/h (1 Bft) 97,87 %
16.12.2018 05:06 -9,4 C 3,9 C -12,8 C 92 % 1018,6 hPa 0,0 l/m 0,0 km/h (0 Bft) O-NO 59 0 min 0,000 mm 0,0 UV-I 0 W/m -10,5 C -9,4 C 1,6 km/h (1 Bft) 95,74 %
16.12.2018 05:08 -9,6 C 3,9 C -12,8 C 92 % 1018,6 hPa 0,0 l/m 0,1 km/h (0 Bft) O-NO 59 0 min 0,000 mm 0,0 UV-I 0 W/m -10,6 C -9,6 C 1,6 km/h (1 Bft) 97,87 %
16.12.2018 05:10 -9,6 C 3,9 C -12,8 C 93 % 1018,6 hPa 0,0 l/m 0,0 km/h (0 Bft) O-NO 59 0 min 0,000 mm 0,0 UV-I 0 W/m -10,5 C -9,6 C 0,0 km/h (0 Bft) 97,87 %
16.12.2018 05:12 -9,6 C 3,9 C -12,8 C 93 % 1018,6 hPa 0,0 l/m 0,0 km/h (0 Bft) O-NO 59 0 min 0,000 mm 0,0 UV-I 0 W/m -10,5 C -9,6 C 0,0 km/h (0 Bft) 96,00 %
16.12.2018 05:14 -9,7 C 3,9 C -13,3 C 93 % 1018,6 hPa 0,0 l/m 0,0 km/h (0 Bft) O-NO 59 0 min 0,000 mm 0,0 UV-I 0 W/m -10,6 C -9,7 C 0,0 km/h (0 Bft) 97,87 %
16.12.2018 05:16 -9,8 C 3,9 C -13,3 C 93 % 1018,6 hPa 0,0 l/m 0,0 km/h (0 Bft) O-NO 59 0 min 0,000 mm 0,0 UV-I 0 W/m -10,7 C -9,8 C 0,0 km/h (0 Bft) 93,62 %
16.12.2018 05:18 -9,8 C 3,9 C -13,3 C 93 % 1018,5 hPa 0,0 l/m 0,0 km/h (0 Bft) O-NO 59 0 min 0,000 mm 0,0 UV-I 0 W/m -10,7 C -9,8 C 0,0 km/h (0 Bft) 95,74 %
16.12.2018 05:20 -9,8 C 3,9 C -13,3 C 93 % 1018,5 hPa 0,0 l/m 0,0 km/h (0 Bft) O-NO 59 0 min 0,000 mm 0,0 UV-I 0 W/m -10,7 C -9,8 C 0,0 km/h (0 Bft) 97,87 %
16.12.2018 05:22 -9,8 C 3,9 C -13,3 C 93 % 1018,5 hPa 0,0 l/m 0,0 km/h (0 Bft) O-NO 59 0 min 0,000 mm 0,0 UV-I 0 W/m -10,7 C -9,8 C 0,0 km/h (0 Bft) 97,87 %
16.12.2018 05:24 -9,8 C 3,9 C -13,3 C 93 % 1018,5 hPa 0,0 l/m 0,0 km/h (0 Bft) O-NO 59 0 min 0,000 mm 0,0 UV-I 0 W/m -10,7 C -9,8 C 0,0 km/h (0 Bft) 97,87 %
16.12.2018 05:26 -9,7 C 3,9 C -13,3 C 93 % 1018,5 hPa 0,0 l/m 0,0 km/h (0 Bft) O-NO 59 0 min 0,000 mm 0,0 UV-I 0 W/m -10,6 C -9,7 C 0,0 km/h (0 Bft) 97,92 %
16.12.2018 05:28 -9,7 C 3,9 C -13,3 C 93 % 1018,5 hPa 0,0 l/m 0,0 km/h (0 Bft) O-NO 59 0 min 0,000 mm 0,0 UV-I 0 W/m -10,6 C -9,7 C 0,0 km/h (0 Bft) 97,87 %
16.12.2018 05:30 -9,7 C 3,9 C -13,3 C 93 % 1018,5 hPa 0,0 l/m 0,0 km/h (0 Bft) O-NO 59 0 min 0,000 mm 0,0 UV-I 0 W/m -10,6 C -9,7 C 0,0 km/h (0 Bft) 97,87 %
16.12.2018 05:32 -9,8 C 3,9 C -13,3 C 93 % 1018,4 hPa 0,0 l/m 0,0 km/h (0 Bft) O-NO 59 0 min 0,000 mm 0,0 UV-I 0 W/m -10,7 C -9,8 C 0,0 km/h (0 Bft) 95,74 %
16.12.2018 05:34 -9,8 C 3,9 C -13,3 C 93 % 1018,4 hPa 0,0 l/m 0,5 km/h (0 Bft) O-NO 59 0 min 0,000 mm 0,0 UV-I 0 W/m -10,7 C -9,8 C 1,6 km/h (1 Bft) 97,87 %
16.12.2018 05:36 -9,8 C 3,9 C -13,3 C 93 % 1018,4 hPa 0,0 l/m 1,8 km/h (1 Bft) O-NO 59 0 min 0,000 mm 0,0 UV-I 0 W/m -10,7 C -9,8 C 3,2 km/h (1 Bft) 97,87 %
16.12.2018 05:38 -9,8 C 3,9 C -13,3 C 93 % 1018,4 hPa 0,0 l/m 1,9 km/h (1 Bft) O-NO 59 0 min 0,000 mm 0,0 UV-I 0 W/m -10,7 C -9,8 C 3,2 km/h (1 Bft) 97,14 %
16.12.2018 05:40 -9,6 C 3,9 C -12,8 C 93 % 1018,3 hPa 0,0 l/m 3,3 km/h (1 Bft) O-NO 60 0 min 0,000 mm 0,0 UV-I 0 W/m -10,5 C -9,6 C 4,8 km/h (1 Bft) 97,87 %
16.12.2018 05:42 -9,2 C 3,9 C -12,2 C 93 % 1018,3 hPa 0,0 l/m 4,5 km/h (1 Bft) O 92 0 min 0,000 mm 0,0 UV-I 0 W/m -10,1 C -9,2 C 6,4 km/h (2 Bft) 96,00 %
16.12.2018 05:44 -8,9 C 3,9 C -11,7 C 94 % 1018,2 hPa 0,0 l/m 5,5 km/h (1 Bft) O 80 0 min 0,000 mm 0,0 UV-I 0 W/m -9,7 C -8,9 C 8,0 km/h (2 Bft) 95,74 %
16.12.2018 05:46 -8,8 C 3,9 C -11,1 C 94 % 1018,1 hPa 0,0 l/m 5,5 km/h (1 Bft) O 94 0 min 0,000 mm 0,0 UV-I 0 W/m -9,6 C -8,8 C 6,4 km/h (2 Bft) 98,00 %
16.12.2018 05:48 -8,7 C 3,9 C -10,6 C 94 % 1018,0 hPa 0,0 l/m 6,8 km/h (2 Bft) O 101 0 min 0,000 mm 0,0 UV-I 0 W/m -9,5 C -9,2 C 11,3 km/h (2 Bft) 96,00 %
16.12.2018 05:50 -8,6 C 3,9 C -10,0 C 94 % 1017,9 hPa 0,0 l/m 8,2 km/h (2 Bft) O-SO 108 0 min 0,000 mm 0,0 UV-I 0 W/m -9,4 C -10,9 C 11,3 km/h (2 Bft) 93,62 %
16.12.2018 05:52 -8,4 C 3,9 C -10,0 C 94 % 1017,8 hPa 0,0 l/m 8,6 km/h (2 Bft) O-SO 111 0 min 0,000 mm 0,0 UV-I 0 W/m -9,2 C -11,2 C 11,3 km/h (2 Bft) 91,49 %
16.12.2018 05:54 -8,4 C 3,9 C -10,0 C 93 % 1017,7 hPa 0,0 l/m 9,1 km/h (2 Bft) O 96 0 min 0,000 mm 0,0 UV-I 0 W/m -9,3 C -11,8 C 12,9 km/h (3 Bft) 95,74 %
16.12.2018 05:56 -8,3 C 3,9 C -9,4 C 93 % 1017,6 hPa 0,0 l/m 9,1 km/h (2 Bft) O 87 0 min 0,000 mm 0,0 UV-I 0 W/m -9,2 C -11,6 C 14,5 km/h (3 Bft) 95,74 %
16.12.2018 05:58 -8,3 C 3,9 C -9,4 C 93 % 1017,7 hPa 0,0 l/m 9,0 km/h (2 Bft) O-SO 113 0 min 0,000 mm 0,0 UV-I 0 W/m -9,2 C -11,5 C 12,9 km/h (3 Bft) 95,74 %
16.12.2018 06:00 -8,3 C 3,9 C -10,0 C 93 % 1017,7 hPa 0,0 l/m 8,5 km/h (2 Bft) O-SO 113 0 min 0,000 mm 0,0 UV-I 0 W/m -9,2 C -11,0 C 12,9 km/h (3 Bft) 95,74 %
16.12.2018 06:02 -8,3 C 3,9 C -10,0 C 93 % 1017,7 hPa 0,0 l/m 6,9 km/h (2 Bft) O 100 0 min 0,000 mm 0,0 UV-I 0 W/m -9,2 C -8,9 C 11,3 km/h (2 Bft) 97,87 %
16.12.2018 06:04 -8,3 C 3,9 C -10,0 C 93 % 1017,8 hPa 0,0 l/m 6,1 km/h (2 Bft) O-SO 121 0 min 0,000 mm 0,0 UV-I 0 W/m -9,2 C -8,3 C 11,3 km/h (2 Bft) 97,44 %
16.12.2018 06:06 -8,2 C 3,9 C -10,0 C 93 % 1017,9 hPa 0,0 l/m 2,7 km/h (1 Bft) O-SO 119 0 min 0,000 mm 0,0 UV-I 0 W/m -9,1 C -8,2 C 4,8 km/h (1 Bft) 91,49 %
16.12.2018 06:08 -8,2 C 3,9 C -10,6 C 93 % 1018,0 hPa 0,0 l/m 3,7 km/h (1 Bft) SO 130 0 min 0,000 mm 0,0 UV-I 0 W/m -9,1 C -8,2 C 6,4 km/h (2 Bft) 95,74 %
16.12.2018 06:10 -8,1 C 3,9 C -10,0 C 93 % 1018,0 hPa 0,0 l/m 4,5 km/h (1 Bft) SO 131 0 min 0,000 mm 0,0 UV-I 0 W/m -9,0 C -8,1 C 6,4 km/h (2 Bft) 92,00 %
16.12.2018 06:12 -8,1 C 3,9 C -10,0 C 93 % 1018,0 hPa 0,0 l/m 5,6 km/h (1 Bft) O-SO 111 0 min 0,000 mm 0,0 UV-I 0 W/m -9,0 C -8,1 C 11,3 km/h (2 Bft) 94,00 %
16.12.2018 06:14 -8,1 C 3,9 C -10,0 C 93 % 1018,0 hPa 0,0 l/m 4,0 km/h (1 Bft) SO 131 0 min 0,000 mm 0,0 UV-I 0 W/m -9,0 C -8,1 C 6,4 km/h (2 Bft) 92,11 %
16.12.2018 06:16 -8,1 C 3,9 C -10,0 C 92 % 1018,0 hPa 0,0 l/m 2,6 km/h (1 Bft) SO 131 0 min 0,000 mm 0,0 UV-I 0 W/m -9,2 C -8,1 C 3,2 km/h (1 Bft) 93,62 %
16.12.2018 06:18 -8,2 C 3,9 C -10,0 C 92 % 1018,0 hPa 0,0 l/m 2,5 km/h (1 Bft) SO 131 0 min 0,000 mm 0,0 UV-I 0 W/m -9,3 C -8,2 C 4,8 km/h (1 Bft) 94,34 %
16.12.2018 06:20 -8,4 C 3,9 C -10,0 C 92 % 1018,0 hPa 0,0 l/m 2,2 km/h (1 Bft) SO 131 0 min 0,000 mm 0,0 UV-I 0 W/m -9,5 C -8,4 C 3,2 km/h (1 Bft) 93,62 %
16.12.2018 06:22 -8,6 C 3,9 C -10,0 C 91 % 1018,0 hPa 0,0 l/m 2,0 km/h (1 Bft) SO 131 0 min 0,000 mm 0,0 UV-I 0 W/m -9,8 C -8,6 C 3,2 km/h (1 Bft) 96,00 %
16.12.2018 06:24 -8,7 C 3,9 C -10,6 C 91 % 1018,0 hPa 0,0 l/m 2,5 km/h (1 Bft) SO 131 0 min 0,000 mm 0,0 UV-I 0 W/m -9,9 C -8,7 C 3,2 km/h (1 Bft) 93,62 %
16.12.2018 06:26 -8,8 C 3,9 C -10,6 C 92 % 1017,9 hPa 0,0 l/m 3,7 km/h (1 Bft) SO 131 0 min 0,000 mm 0,0 UV-I 0 W/m -9,9 C -8,8 C 4,8 km/h (1 Bft) 97,37 %
16.12.2018 06:28 -8,8 C 3,9 C -11,1 C 91 % 1017,9 hPa 0,0 l/m 3,6 km/h (1 Bft) SO 131 0 min 0,000 mm 0,0 UV-I 0 W/m -10,0 C -8,8 C 4,8 km/h (1 Bft) 100,00 %
16.12.2018 06:30 -8,8 C 3,9 C -11,1 C 92 % 1017,8 hPa 0,0 l/m 4,8 km/h (1 Bft) SO 124 0 min 0,000 mm 0,0 UV-I 0 W/m -9,9 C -8,8 C 6,4 km/h (2 Bft) 100,00 %
16.12.2018 06:32 -8,7 C 3,9 C -11,1 C 92 % 1017,7 hPa 0,0 l/m 3,5 km/h (1 Bft) O-SO 123 0 min 0,000 mm 0,0 UV-I 0 W/m -9,8 C -8,7 C 4,8 km/h (1 Bft) 100,00 %
16.12.2018 06:34 -8,6 C 3,9 C -11,1 C 92 % 1017,8 hPa 0,0 l/m 3,1 km/h (1 Bft) O-SO 123 0 min 0,000 mm 0,0 UV-I 0 W/m -9,7 C -8,6 C 4,8 km/h (1 Bft) 100,00 %
16.12.2018 06:36 -8,5 C 3,9 C -11,1 C 92 % 1017,8 hPa 0,0 l/m 2,4 km/h (1 Bft) O-SO 123 0 min 0,000 mm 0,0 UV-I 0 W/m -9,6 C -8,5 C 4,8 km/h (1 Bft) 100,00 %
16.12.2018 06:38 -8,5 C 3,9 C -11,7 C 92 % 1017,8 hPa 0,0 l/m 1,2 km/h (1 Bft) O-SO 123 0 min 0,000 mm 0,0 UV-I 0 W/m -9,6 C -8,5 C 3,2 km/h (1 Bft) 100,00 %
16.12.2018 06:40 -8,6 C 3,9 C -11,7 C 92 % 1017,8 hPa 0,0 l/m 1,5 km/h (1 Bft) O-SO 123 0 min 0,000 mm 0,0 UV-I 0 W/m -9,7 C -8,6 C 3,2 km/h (1 Bft) 100,00 %
16.12.2018 06:42 -8,6 C 3,9 C -11,7 C 92 % 1017,7 hPa 0,0 l/m 1,2 km/h (1 Bft) O-SO 123 0 min 0,000 mm 0,0 UV-I 0 W/m -9,7 C -8,6 C 1,6 km/h (1 Bft) 100,00 %
16.12.2018 06:44 -8,7 C 3,9 C -11,7 C 92 % 1017,8 hPa 0,0 l/m 1,0 km/h (0 Bft) O-SO 123 0 min 0,000 mm 0,0 UV-I 0 W/m -9,8 C -8,7 C 1,6 km/h (1 Bft) 100,00 %
16.12.2018 06:46 -8,8 C 3,9 C -11,7 C 92 % 1017,8 hPa 0,0 l/m 2,5 km/h (1 Bft) O-SO 123 0 min 0,000 mm 0,0 UV-I 0 W/m -9,9 C -8,8 C 4,8 km/h (1 Bft) 100,00 %
16.12.2018 06:48 -8,9 C 3,9 C -11,7 C 91 % 1017,8 hPa 0,0 l/m 2,8 km/h (1 Bft) O-SO 123 0 min 0,000 mm 0,0 UV-I 0 W/m -10,1 C -8,9 C 3,2 km/h (1 Bft) 100,00 %
16.12.2018 06:50 -9,1 C 3,9 C -11,7 C 92 % 1017,7 hPa 0,0 l/m 2,1 km/h (1 Bft) O-SO 123 0 min 0,000 mm 0,0 UV-I 0 W/m -10,2 C -9,1 C 3,2 km/h (1 Bft) 97,87 %
16.12.2018 06:52 -9,2 C 3,9 C -11,7 C 91 % 1017,7 hPa 0,0 l/m 1,4 km/h (1 Bft) O-SO 123 0 min 0,000 mm 0,0 UV-I 0 W/m -10,4 C -9,2 C 1,6 km/h (1 Bft) 100,00 %
16.12.2018 06:54 -9,2 C 3,9 C -11,7 C 92 % 1017,6 hPa 0,0 l/m 2,9 km/h (1 Bft) O-SO 122 0 min 0,000 mm 0,0 UV-I 0 W/m -10,3 C -9,2 C 4,8 km/h (1 Bft) 100,00 %
16.12.2018 06:56 -9,1 C 3,9 C -11,7 C 92 % 1017,6 hPa 0,0 l/m 3,9 km/h (1 Bft) O 101 0 min 0,000 mm 0,0 UV-I 0 W/m -10,2 C -9,1 C 4,8 km/h (1 Bft) 97,87 %
16.12.2018 06:58 -8,8 C 3,9 C -11,1 C 93 % 1017,4 hPa 0,0 l/m 3,9 km/h (1 Bft) O 101 0 min 0,000 mm 0,0 UV-I 0 W/m -9,7 C -8,8 C 4,8 km/h (1 Bft) 100,00 %
16.12.2018 07:00 -8,6 C 3,9 C -11,1 C 93 % 1017,4 hPa 0,0 l/m 4,1 km/h (1 Bft) O 101 0 min 0,000 mm 0,0 UV-I 0 W/m -9,5 C -8,6 C 6,4 km/h (2 Bft) 100,00 %
16.12.2018 07:02 -8,5 C 3,9 C -11,1 C 93 % 1017,4 hPa 0,0 l/m 3,4 km/h (1 Bft) O 101 0 min 0,000 mm 0,0 UV-I 0 W/m -9,4 C -8,5 C 4,8 km/h (1 Bft) 97,87 %
16.12.2018 07:04 -8,4 C 3,9 C -11,1 C 93 % 1017,5 hPa 0,0 l/m 2,4 km/h (1 Bft) O 101 0 min 0,000 mm 0,0 UV-I 0 W/m -9,3 C -8,4 C 3,2 km/h (1 Bft) 95,74 %
16.12.2018 07:06 -8,6 C 3,9 C -11,1 C 92 % 1017,5 hPa 0,0 l/m 1,4 km/h (1 Bft) O 101 0 min 0,000 mm 0,0 UV-I 0 W/m -9,7 C -8,6 C 3,2 km/h (1 Bft) 98,00 %
16.12.2018 07:08 -8,7 C 3,9 C -11,7 C 92 % 1017,4 hPa 0,0 l/m 2,4 km/h (1 Bft) O 101 0 min 0,000 mm 0,0 UV-I 0 W/m -9,8 C -8,7 C 3,2 km/h (1 Bft) 97,37 %
16.12.2018 07:10 -8,6 C 3,9 C -11,7 C 92 % 1017,3 hPa 0,0 l/m 3,5 km/h (1 Bft) O-SO 103 0 min 0,000 mm 0,0 UV-I 0 W/m -9,7 C -8,6 C 6,4 km/h (2 Bft) 97,87 %
16.12.2018 07:12 -8,4 C 3,9 C -10,6 C 93 % 1017,2 hPa 0,0 l/m 4,8 km/h (1 Bft) O 82 0 min 0,000 mm 0,0 UV-I 0 W/m -9,3 C -8,4 C 6,4 km/h (2 Bft) 95,74 %
16.12.2018 07:14 -8,3 C 3,9 C -10,0 C 93 % 1017,2 hPa 0,0 l/m 5,5 km/h (1 Bft) O 87 0 min 0,000 mm 0,0 UV-I 0 W/m -9,2 C -8,3 C 8,0 km/h (2 Bft) 97,92 %
16.12.2018 07:16 -8,3 C 3,9 C -10,0 C 92 % 1017,1 hPa 0,0 l/m 6,9 km/h (2 Bft) O 90 0 min 0,000 mm 0,0 UV-I 0 W/m -9,4 C -8,9 C 11,3 km/h (2 Bft) 97,87 %
16.12.2018 07:18 -8,4 C 3,9 C -10,0 C 93 % 1017,1 hPa 0,0 l/m 7,1 km/h (2 Bft) O 93 0 min 0,000 mm 0,0 UV-I 0 W/m -9,3 C -9,3 C 11,3 km/h (2 Bft) 97,87 %
16.12.2018 07:20 -8,5 C 3,9 C -10,0 C 92 % 1017,2 hPa 0,0 l/m 6,9 km/h (2 Bft) O 90 0 min 0,000 mm 0,0 UV-I 0 W/m -9,6 C -9,1 C 11,3 km/h (2 Bft) 97,87 %
16.12.2018 07:22 -8,6 C 3,9 C -10,0 C 92 % 1017,2 hPa 0,0 l/m 6,0 km/h (2 Bft) O 92 0 min 0,000 mm 0,0 UV-I 0 W/m -9,7 C -8,6 C 9,7 km/h (2 Bft) 96,00 %
16.12.2018 07:24 -8,7 C 3,9 C -10,0 C 92 % 1017,3 hPa 0,0 l/m 5,0 km/h (1 Bft) O 92 0 min 0,000 mm 0,0 UV-I 0 W/m -9,8 C -8,7 C 6,4 km/h (2 Bft) 95,74 %
16.12.2018 07:26 -8,7 C 3,9 C -10,0 C 92 % 1017,3 hPa 0,0 l/m 3,8 km/h (1 Bft) O 92 0 min 0,000 mm 0,0 UV-I 0 W/m -9,8 C -8,7 C 4,8 km/h (1 Bft) 100,00 %
16.12.2018 07:28 -8,7 C 3,9 C -10,0 C 93 % 1017,4 hPa 0,0 l/m 1,8 km/h (1 Bft) O 92 0 min 0,000 mm 0,0 UV-I 0 W/m -9,6 C -8,7 C 3,2 km/h (1 Bft) 100,00 %
16.12.2018 07:30 -8,8 C 3,9 C -10,0 C 92 % 1017,5 hPa 0,0 l/m 1,3 km/h (1 Bft) O 92 0 min 0,000 mm 0,0 UV-I 0 W/m -9,9 C -8,8 C 3,2 km/h (1 Bft) 97,87 %
16.12.2018 07:32 -9,2 C 3,9 C -10,6 C 91 % 1017,5 hPa 0,0 l/m 1,7 km/h (1 Bft) O 92 0 min 0,000 mm 0,0 UV-I 4 W/m -10,4 C -9,2 C 3,2 km/h (1 Bft) 100,00 %
16.12.2018 07:34 -9,4 C 3,9 C -11,1 C 91 % 1017,6 hPa 0,0 l/m 1,6 km/h (1 Bft) O 92 0 min 0,000 mm 0,0 UV-I 5 W/m -10,6 C -9,4 C 3,2 km/h (1 Bft) 100,00 %
16.12.2018 07:36 -9,6 C 3,9 C -11,1 C 91 % 1017,6 hPa 0,0 l/m 0,7 km/h (0 Bft) O 92 0 min 0,000 mm 0,0 UV-I 7 W/m -10,8 C -9,6 C 1,6 km/h (1 Bft) 100,00 %
16.12.2018 07:38 -9,6 C 3,9 C -11,1 C 92 % 1017,5 hPa 0,0 l/m 0,8 km/h (0 Bft) O 92 0 min 0,000 mm 0,0 UV-I 7 W/m -10,6 C -9,6 C 1,6 km/h (1 Bft) 98,00 %
16.12.2018 07:40 -9,4 C 3,9 C -11,7 C 92 % 1017,5 hPa 0,0 l/m 1,6 km/h (1 Bft) O 92 0 min 0,000 mm 0,0 UV-I 9 W/m -10,5 C -9,4 C 3,2 km/h (1 Bft) 97,87 %
16.12.2018 07:42 -9,2 C 3,9 C -11,7 C 93 % 1017,4 hPa 0,0 l/m 2,3 km/h (1 Bft) O 92 0 min 0,000 mm 0,0 UV-I 9 W/m -10,1 C -9,2 C 4,8 km/h (1 Bft) 100,00 %
16.12.2018 07:44 -9,0 C 3,9 C -11,7 C 93 % 1017,4 hPa 0,0 l/m 2,8 km/h (1 Bft) O 92 0 min 0,000 mm 0,0 UV-I 9 W/m -9,9 C -9,0 C 4,8 km/h (1 Bft) 100,00 %
16.12.2018 07:46 -8,8 C 3,9 C -11,7 C 93 % 1017,5 hPa 0,0 l/m 2,2 km/h (1 Bft) O 92 0 min 0,000 mm 0,0 UV-I 11 W/m -9,7 C -8,8 C 3,2 km/h (1 Bft) 97,87 %
16.12.2018 07:48 -8,8 C 3,9 C -11,7 C 93 % 1017,5 hPa 0,0 l/m 1,8 km/h (1 Bft) O 92 0 min 0,000 mm 0,0 UV-I 11 W/m -9,7 C -8,8 C 3,2 km/h (1 Bft) 98,00 %
16.12.2018 07:50 -8,9 C 3,9 C -11,7 C 93 % 1017,4 hPa 0,0 l/m 1,8 km/h (1 Bft) O 92 0 min 0,000 mm 0,0 UV-I 11 W/m -9,8 C -8,9 C 4,8 km/h (1 Bft) 100,00 %
16.12.2018 07:52 -8,9 C 3,9 C -11,1 C 93 % 1017,5 hPa 0,0 l/m 2,1 km/h (1 Bft) O 92 0 min 0,000 mm 0,0 UV-I 11 W/m -9,8 C -8,9 C 3,2 km/h (1 Bft) 100,00 %
16.12.2018 07:54 -8,8 C 3,9 C -11,7 C 93 % 1017,5 hPa 0,0 l/m 1,1 km/h (1 Bft) O 92 0 min 0,000 mm 0,0 UV-I 12 W/m -9,7 C -8,8 C 3,2 km/h (1 Bft) 98,00 %
16.12.2018 07:56 -8,9 C 3,9 C -11,7 C 93 % 1017,5 hPa 0,0 l/m 0,2 km/h (0 Bft) O 92 0 min 0,000 mm 0,0 UV-I 16 W/m -9,8 C -8,9 C 1,6 km/h (1 Bft) 100,00 %
16.12.2018 07:58 -9,1 C 3,9 C -11,7 C 92 % 1017,5 hPa 0,0 l/m 0,0 km/h (0 Bft) O 92 0 min 0,000 mm 0,0 UV-I 18 W/m -10,2 C -9,1 C 0,0 km/h (0 Bft) 97,22 %
16.12.2018 08:00 -9,2 C 3,9 C -11,7 C 92 % 1017,4 hPa 0,0 l/m 0,0 km/h (0 Bft) O 92 0 min 0,000 mm 0,0 UV-I 20 W/m -10,3 C -9,2 C 0,0 km/h (0 Bft) 97,96 %
16.12.2018 08:02 -9,3 C 3,9 C -11,7 C 92 % 1017,4 hPa 0,0 l/m 2,0 km/h (1 Bft) O 92 2 min 0,000 mm 0,0 UV-I 23 W/m -10,4 C -9,3 C 3,2 km/h (1 Bft) 100,00 %
16.12.2018 08:04 -9,2 C 3,9 C -11,7 C 92 % 1017,4 hPa 0,0 l/m 1,8 km/h (1 Bft) O 92 2 min 0,000 mm 0,0 UV-I 25 W/m -10,3 C -9,2 C 3,2 km/h (1 Bft) 97,87 %
16.12.2018 08:06 -9,1 C 3,9 C -11,7 C 92 % 1017,3 hPa 0,0 l/m 1,9 km/h (1 Bft) O 92 2 min 0,000 mm 0,0 UV-I 28 W/m -10,2 C -9,1 C 3,2 km/h (1 Bft) 100,00 %
16.12.2018 08:08 -9,0 C 3,9 C -11,1 C 93 % 1017,3 hPa 0,0 l/m 2,1 km/h (1 Bft) O 92 2 min 0,000 mm 0,0 UV-I 32 W/m -9,9 C -9,0 C 3,2 km/h (1 Bft) 97,87 %
16.12.2018 08:10 -8,9 C 3,9 C -11,1 C 93 % 1017,3 hPa 0,0 l/m 2,4 km/h (1 Bft) O 92 2 min 0,000 mm 0,0 UV-I 37 W/m -9,8 C -8,9 C 4,8 km/h (1 Bft) 93,62 %
16.12.2018 08:12 -8,8 C 3,9 C -10,6 C 93 % 1017,3 hPa 0,0 l/m 1,6 km/h (1 Bft) O 92 2 min 0,000 mm 0,0 UV-I 39 W/m -9,7 C -8,8 C 3,2 km/h (1 Bft) 91,49 %
16.12.2018 08:14 -8,7 C 3,9 C -10,6 C 93 % 1017,3 hPa 0,0 l/m 0,2 km/h (0 Bft) O 92 2 min 0,000 mm 0,0 UV-I 37 W/m -9,6 C -8,7 C 1,6 km/h (1 Bft) 91,49 %
16.12.2018 08:16 -8,8 C 3,9 C -10,6 C 93 % 1017,2 hPa 0,0 l/m 0,0 km/h (0 Bft) O 92 2 min 0,000 mm 0,0 UV-I 35 W/m -9,7 C -8,8 C 1,6 km/h (1 Bft) 93,62 %
16.12.2018 08:18 -8,8 C 3,9 C -10,6 C 93 % 1017,2 hPa 0,0 l/m 1,1 km/h (1 Bft) O 92 2 min 0,000 mm 0,0 UV-I 38 W/m -9,7 C -8,8 C 1,6 km/h (1 Bft) 89,36 %
16.12.2018 08:20 -8,8 C 3,9 C -10,6 C 93 % 1017,2 hPa 0,0 l/m 1,5 km/h (1 Bft) O 92 2 min 0,000 mm 0,0 UV-I 41 W/m -9,7 C -8,8 C 3,2 km/h (1 Bft) 93,62 %
16.12.2018 08:22 -8,9 C 3,9 C -10,6 C 93 % 1017,2 hPa 0,0 l/m 1,9 km/h (1 Bft) O 92 2 min 0,000 mm 0,0 UV-I 46 W/m -9,8 C -8,9 C 3,2 km/h (1 Bft) 89,36 %
16.12.2018 08:24 -9,0 C 3,9 C -10,6 C 93 % 1017,2 hPa 0,0 l/m 2,2 km/h (1 Bft) O 92 2 min 0,000 mm 0,0 UV-I 54 W/m -9,9 C -9,0 C 3,2 km/h (1 Bft) 93,62 %
16.12.2018 08:26 -9,0 C 3,9 C -10,6 C 93 % 1017,2 hPa 0,0 l/m 0,2 km/h (0 Bft) O 92 2 min 0,000 mm 0,0 UV-I 62 W/m -9,9 C -9,0 C 1,6 km/h (1 Bft) 93,62 %
16.12.2018 08:28 -9,0 C 3,9 C -10,6 C 93 % 1017,2 hPa 0,0 l/m 0,0 km/h (0 Bft) O 92 2 min 0,000 mm 0,0 UV-I 67 W/m -9,9 C -9,0 C 0,0 km/h (0 Bft) 93,62 %
16.12.2018 08:30 -9,0 C 3,9 C -10,6 C 93 % 1017,3 hPa 0,0 l/m 0,0 km/h (0 Bft) O 92 2 min 0,000 mm 0,0 UV-I 74 W/m -9,9 C -9,0 C 0,0 km/h (0 Bft) 93,62 %
16.12.2018 08:32 -8,9 C 3,9 C -10,0 C 93 % 1017,2 hPa 0,0 l/m 0,0 km/h (0 Bft) O 92 2 min 0,000 mm 0,0 UV-I 75 W/m -9,8 C -8,9 C 1,6 km/h (1 Bft) 91,49 %
16.12.2018 08:34 -8,8 C 3,9 C -10,0 C 93 % 1017,2 hPa 0,0 l/m 0,3 km/h (0 Bft) O 92 2 min 0,000 mm 0,0 UV-I 83 W/m -9,7 C -8,8 C 3,2 km/h (1 Bft) 89,36 %
16.12.2018 08:36 -8,7 C 3,9 C -9,4 C 93 % 1017,2 hPa 0,0 l/m 2,8 km/h (1 Bft) O 92 2 min 0,000 mm 0,0 UV-I 98 W/m -9,6 C -8,7 C 3,2 km/h (1 Bft) 95,74 %
16.12.2018 08:38 -8,6 C 3,9 C -8,9 C 93 % 1017,2 hPa 0,0 l/m 2,9 km/h (1 Bft) O 92 2 min 0,000 mm 0,0 UV-I 99 W/m -9,5 C -8,6 C 3,2 km/h (1 Bft) 94,00 %
16.12.2018 08:40 -8,5 C 3,9 C -8,3 C 93 % 1017,2 hPa 0,0 l/m 1,9 km/h (1 Bft) O 92 2 min 0,000 mm 0,0 UV-I 88 W/m -9,4 C -8,5 C 3,2 km/h (1 Bft) 94,87 %
16.12.2018 08:42 -8,3 C 3,9 C -8,3 C 93 % 1017,2 hPa 0,0 l/m 1,9 km/h (1 Bft) O 92 2 min 0,000 mm 0,0 UV-I 103 W/m -9,2 C -8,3 C 3,2 km/h (1 Bft) 95,74 %
16.12.2018 08:44 -8,2 C 3,9 C -7,8 C 93 % 1017,2 hPa 0,0 l/m 2,4 km/h (1 Bft) O 92 2 min 0,000 mm 0,0 UV-I 107 W/m -9,1 C -8,2 C 4,8 km/h (1 Bft) 94,00 %
16.12.2018 08:46 -8,1 C 3,9 C -7,2 C 93 % 1017,2 hPa 0,0 l/m 3,8 km/h (1 Bft) O 92 2 min 0,000 mm 0,0 UV-I 115 W/m -9,0 C -8,1 C 6,4 km/h (2 Bft) 95,74 %
16.12.2018 08:48 -7,9 C 3,9 C -7,2 C 94 % 1017,2 hPa 0,0 l/m 3,8 km/h (1 Bft) O 92 2 min 0,000 mm 0,0 UV-I 118 W/m -8,7 C -7,9 C 4,8 km/h (1 Bft) 97,87 %
16.12.2018 08:50 -7,9 C 3,9 C -7,2 C 93 % 1017,2 hPa 0,0 l/m 3,4 km/h (1 Bft) O 92 2 min 0,000 mm 0,0 UV-I 118 W/m -8,8 C -7,9 C 4,8 km/h (1 Bft) 93,62 %
16.12.2018 08:52 -7,8 C 3,9 C -6,7 C 93 % 1017,2 hPa 0,0 l/m 2,5 km/h (1 Bft) O 92 2 min 0,000 mm 0,0 UV-I 117 W/m -8,7 C -7,8 C 4,8 km/h (1 Bft) 93,62 %
16.12.2018 08:54 -7,7 C 3,9 C -6,7 C 93 % 1017,2 hPa 0,0 l/m 3,1 km/h (1 Bft) O 92 2 min 0,000 mm 0,0 UV-I 100 W/m -8,6 C -7,7 C 4,8 km/h (1 Bft) 97,87 %
16.12.2018 08:56 -7,7 C 3,9 C -6,7 C 93 % 1017,2 hPa 0,0 l/m 4,3 km/h (1 Bft) O 93 2 min 0,000 mm 0,0 UV-I 84 W/m -8,6 C -7,7 C 6,4 km/h (2 Bft) 96,00 %
16.12.2018 08:58 -7,6 C 3,9 C -6,7 C 93 % 1017,2 hPa 0,0 l/m 3,4 km/h (1 Bft) O 93 0 min 0,000 mm 0,0 UV-I 74 W/m -8,5 C -7,6 C 4,8 km/h (1 Bft) 97,87 %
16.12.2018 09:00 -7,7 C 3,9 C -6,7 C 93 % 1017,1 hPa 0,0 l/m 2,8 km/h (1 Bft) O 93 0 min 0,025 mm 0,0 UV-I 66 W/m -8,6 C -7,7 C 4,8 km/h (1 Bft) 95,74 %
16.12.2018 09:02 -7,7 C 3,9 C -7,2 C 93 % 1017,1 hPa 0,0 l/m 3,6 km/h (1 Bft) O 93 0 min 0,000 mm 0,0 UV-I 68 W/m -8,6 C -7,7 C 4,8 km/h (1 Bft) 97,14 %
16.12.2018 09:04 -7,7 C 3,9 C -7,2 C 93 % 1017,1 hPa 0,0 l/m 2,7 km/h (1 Bft) O 92 0 min 0,000 mm 0,0 UV-I 72 W/m -8,6 C -7,7 C 4,8 km/h (1 Bft) 97,87 %
16.12.2018 09:06 -7,8 C 3,9 C -7,8 C 92 % 1017,0 hPa 0,0 l/m 3,8 km/h (1 Bft) O 92 0 min 0,000 mm 0,0 UV-I 64 W/m -8,9 C -7,8 C 4,8 km/h (1 Bft) 95,74 %
16.12.2018 09:08 -7,8 C 3,9 C -7,8 C 92 % 1017,0 hPa 0,0 l/m 4,1 km/h (1 Bft) O 89 0 min 0,000 mm 0,0 UV-I 66 W/m -8,9 C -7,8 C 6,4 km/h (2 Bft) 95,74 %
16.12.2018 09:10 -7,8 C 3,9 C -7,8 C 92 % 1017,0 hPa 0,0 l/m 4,2 km/h (1 Bft) O 86 0 min 0,000 mm 0,0 UV-I 71 W/m -8,9 C -7,8 C 6,4 km/h (2 Bft) 98,00 %
16.12.2018 09:12 -7,9 C 3,9 C -7,8 C 92 % 1016,9 hPa 0,0 l/m 3,8 km/h (1 Bft) O 86 0 min 0,000 mm 0,0 UV-I 66 W/m -9,0 C -7,9 C 4,8 km/h (1 Bft) 93,62 %
16.12.2018 09:14 -7,9 C 3,9 C -7,8 C 92 % 1017,0 hPa 0,0 l/m 4,0 km/h (1 Bft) O 86 0 min 0,000 mm 0,0 UV-I 58 W/m -9,0 C -7,9 C 6,4 km/h (2 Bft) 95,74 %
16.12.2018 09:16 -7,9 C 3,9 C -7,8 C 92 % 1017,0 hPa 0,0 l/m 3,4 km/h (1 Bft) O 86 0 min 0,000 mm 0,0 UV-I 55 W/m -9,0 C -7,9 C 4,8 km/h (1 Bft) 97,22 %
16.12.2018 09:18 -8,0 C 3,9 C -7,8 C 92 % 1017,0 hPa 0,0 l/m 2,6 km/h (1 Bft) O 86 0 min 0,000 mm 0,0 UV-I 65 W/m -9,1 C -8,0 C 4,8 km/h (1 Bft) 93,55 %
16.12.2018 09:20 -8,0 C 3,9 C -8,3 C 92 % 1017,0 hPa 0,0 l/m 2,8 km/h (1 Bft) O 86 0 min 0,000 mm 0,0 UV-I 98 W/m -9,1 C -8,0 C 4,8 km/h (1 Bft) 93,62 %
16.12.2018 09:22 -8,0 C 3,9 C -8,3 C 92 % 1017,0 hPa 0,0 l/m 3,7 km/h (1 Bft) O 86 0 min 0,000 mm 0,0 UV-I 85 W/m -9,1 C -8,0 C 4,8 km/h (1 Bft) 93,62 %
16.12.2018 09:24 -7,9 C 3,9 C -8,3 C 92 % 1017,0 hPa 0,0 l/m 3,2 km/h (1 Bft) O 86 0 min 0,000 mm 0,0 UV-I 100 W/m -9,0 C -7,9 C 4,8 km/h (1 Bft) 95,74 %
16.12.2018 09:26 -7,9 C 3,9 C -8,3 C 92 % 1017,1 hPa 0,0 l/m 3,0 km/h (1 Bft) O 86 0 min 0,000 mm 0,0 UV-I 95 W/m -9,0 C -7,9 C 4,8 km/h (1 Bft) 93,62 %
16.12.2018 09:28 -7,8 C 3,9 C -8,3 C 93 % 1017,0 hPa 0,0 l/m 3,6 km/h (1 Bft) O 86 0 min 0,000 mm 0,0 UV-I 102 W/m -8,7 C -7,8 C 4,8 km/h (1 Bft) 97,87 %
16.12.2018 09:30 -7,8 C 3,9 C -7,8 C 93 % 1017,0 hPa 0,0 l/m 3,8 km/h (1 Bft) O 86 2 min 0,000 mm 0,0 UV-I 146 W/m -8,7 C -7,8 C 4,8 km/h (1 Bft) 97,87 %
16.12.2018 09:32 -7,7 C 3,9 C -7,8 C 93 % 1017,0 hPa 0,0 l/m 3,3 km/h (1 Bft) O 86 2 min 0,000 mm 0,0 UV-I 184 W/m -8,6 C -7,7 C 4,8 km/h (1 Bft) 94,74 %
16.12.2018 09:34 -7,6 C 3,9 C -7,2 C 93 % 1017,1 hPa 0,0 l/m 2,3 km/h (1 Bft) O 86 2 min 0,000 mm 0,0 UV-I 201 W/m -8,5 C -7,6 C 4,8 km/h (1 Bft) 98,00 %
16.12.2018 09:36 -7,4 C 3,9 C -6,7 C 93 % 1017,1 hPa 0,0 l/m 1,7 km/h (1 Bft) O 86 2 min 0,000 mm 0,0 UV-I 228 W/m -8,3 C -7,4 C 3,2 km/h (1 Bft) 95,74 %
16.12.2018 09:38 -7,3 C 3,9 C -6,1 C 93 % 1017,1 hPa 0,0 l/m 2,4 km/h (1 Bft) O 86 2 min 0,000 mm 0,0 UV-I 207 W/m -8,2 C -7,3 C 4,8 km/h (1 Bft) 95,74 %
16.12.2018 09:40 -7,2 C 3,9 C -5,6 C 93 % 1017,1 hPa 0,0 l/m 3,1 km/h (1 Bft) O 86 2 min 0,000 mm 0,0 UV-I 178 W/m -8,1 C -7,2 C 4,8 km/h (1 Bft) 95,74 %
16.12.2018 09:42 -7,1 C 3,9 C -5,0 C 93 % 1017,1 hPa 0,0 l/m 3,1 km/h (1 Bft) O 86 2 min 0,000 mm 0,0 UV-I 134 W/m -8,0 C -7,1 C 4,8 km/h (1 Bft) 100,00 %
16.12.2018 09:44 -7,1 C 3,9 C -5,0 C 93 % 1017,1 hPa 0,0 l/m 3,0 km/h (1 Bft) O 86 2 min 0,000 mm 0,0 UV-I 123 W/m -8,0 C -7,1 C 4,8 km/h (1 Bft) 97,87 %
16.12.2018 09:46 -7,0 C 3,9 C -5,0 C 93 % 1017,1 hPa 0,0 l/m 2,6 km/h (1 Bft) O 86 2 min 0,000 mm 0,0 UV-I 125 W/m -7,9 C -7,0 C 4,8 km/h (1 Bft) 97,87 %
16.12.2018 09:48 -6,9 C 3,9 C -4,4 C 92 % 1017,0 hPa 0,0 l/m 2,5 km/h (1 Bft) O 86 2 min 0,000 mm 0,0 UV-I 132 W/m -8,0 C -6,9 C 4,8 km/h (1 Bft) 97,37 %
16.12.2018 09:50 -6,9 C 3,9 C -4,4 C 92 % 1017,0 hPa 0,0 l/m 4,4 km/h (1 Bft) O 86 2 min 0,000 mm 0,0 UV-I 151 W/m -8,0 C -6,9 C 6,4 km/h (2 Bft) 98,00 %
16.12.2018 09:52 -6,8 C 3,9 C -3,9 C 92 % 1016,9 hPa 0,0 l/m 4,3 km/h (1 Bft) O 86 2 min 0,000 mm 0,0 UV-I 200 W/m -7,9 C -6,8 C 6,4 km/h (2 Bft) 95,74 %
16.12.2018 09:54 -6,8 C 3,9 C -3,9 C 92 % 1016,8 hPa 0,0 l/m 4,9 km/h (1 Bft) O 84 2 min 0,000 mm 0,0 UV-I 241 W/m -7,9 C -6,8 C 6,4 km/h (2 Bft) 100,00 %
16.12.2018 09:56 -6,7 C 3,9 C -3,9 C 92 % 1016,7 hPa 0,0 l/m 6,2 km/h (2 Bft) O-NO 75 2 min 0,000 mm 0,0 UV-I 263 W/m -7,8 C -6,7 C 11,3 km/h (2 Bft) 100,00 %
16.12.2018 09:58 -6,7 C 3,9 C -3,9 C 92 % 1016,7 hPa 0,0 l/m 6,0 km/h (2 Bft) O 80 2 min 0,000 mm 0,0 UV-I 253 W/m -7,8 C -6,7 C 8,0 km/h (2 Bft) 95,74 %
16.12.2018 10:00 -6,7 C 3,9 C -3,9 C 92 % 1016,6 hPa 0,0 l/m 6,3 km/h (2 Bft) O-NO 77 2 min 0,026 mm 0,0 UV-I 195 W/m -7,8 C -6,7 C 9,7 km/h (2 Bft) 93,62 %
16.12.2018 10:02 -6,6 C 3,9 C -3,9 C 92 % 1016,6 hPa 0,0 l/m 6,0 km/h (2 Bft) O 94 2 min 0,000 mm 0,0 UV-I 150 W/m -7,7 C -6,6 C 9,7 km/h (2 Bft) 97,87 %
16.12.2018 10:04 -6,5 C 3,9 C -3,9 C 92 % 1016,6 hPa 0,0 l/m 6,6 km/h (2 Bft) O 82 2 min 0,000 mm 0,0 UV-I 163 W/m -7,6 C -6,7 C 9,7 km/h (2 Bft) 97,87 %
16.12.2018 10:06 -6,4 C 3,9 C -3,9 C 92 % 1016,6 hPa 0,0 l/m 7,1 km/h (2 Bft) O-NO 60 2 min 0,000 mm 0,0 UV-I 174 W/m -7,5 C -7,3 C 11,3 km/h (2 Bft) 97,87 %
16.12.2018 10:08 -6,3 C 3,9 C -3,9 C 92 % 1016,6 hPa 0,0 l/m 11,1 km/h (2 Bft) O-NO 73 2 min 0,000 mm 0,0 UV-I 188 W/m -7,4 C -11,5 C 14,5 km/h (3 Bft) 100,00 %
16.12.2018 10:10 -6,3 C 3,9 C -3,9 C 92 % 1016,6 hPa 0,0 l/m 10,2 km/h (2 Bft) O 89 2 min 0,000 mm 0,0 UV-I 191 W/m -7,4 C -10,6 C 16,1 km/h (3 Bft) 100,00 %
16.12.2018 10:12 -6,3 C 3,9 C -3,3 C 92 % 1016,7 hPa 0,0 l/m 8,8 km/h (2 Bft) O 90 2 min 0,000 mm 0,0 UV-I 212 W/m -7,4 C -9,2 C 12,9 km/h (3 Bft) 95,74 %
16.12.2018 10:14 -6,2 C 3,9 C -3,3 C 92 % 1016,8 hPa 0,0 l/m 8,1 km/h (2 Bft) O-SO 111 2 min 0,000 mm 0,0 UV-I 239 W/m -7,3 C -8,3 C 11,3 km/h (2 Bft) 94,00 %
16.12.2018 10:16 -6,1 C 3,9 C -3,3 C 91 % 1016,8 hPa 0,0 l/m 6,6 km/h (2 Bft) O 91 2 min 0,000 mm 0,0 UV-I 192 W/m -7,3 C -6,3 C 11,3 km/h (2 Bft) 93,62 %
16.12.2018 10:18 -6,0 C 3,9 C -2,8 C 91 % 1016,8 hPa 0,0 l/m 5,7 km/h (1 Bft) O 81 2 min 0,000 mm 0,0 UV-I 204 W/m -7,2 C -6,0 C 9,7 km/h (2 Bft) 95,74 %
16.12.2018 10:20 -5,9 C 3,9 C -2,8 C 91 % 1016,9 hPa 0,0 l/m 7,6 km/h (2 Bft) O 90 2 min 0,000 mm 0,0 UV-I 245 W/m -7,1 C -7,4 C 11,3 km/h (2 Bft) 96,00 %
16.12.2018 10:22 -5,8 C 3,9 C -2,8 C 91 % 1016,8 hPa 0,0 l/m 6,6 km/h (2 Bft) O-NO 65 2 min 0,000 mm 0,0 UV-I 267 W/m -7,0 C -6,0 C 9,7 km/h (2 Bft) 95,74 %
16.12.2018 10:24 -5,8 C 3,9 C -2,8 C 91 % 1016,8 hPa 0,0 l/m 7,7 km/h (2 Bft) O-NO 61 2 min 0,000 mm 0,0 UV-I 243 W/m -7,0 C -7,4 C 9,7 km/h (2 Bft) 92,11 %
16.12.2018 10:26 -5,7 C 3,9 C -2,8 C 91 % 1016,8 hPa 0,0 l/m 7,1 km/h (2 Bft) O-NO 74 2 min 0,000 mm 0,0 UV-I 199 W/m -6,9 C -6,6 C 11,3 km/h (2 Bft) 96,00 %
16.12.2018 10:28 -5,7 C 3,9 C -3,3 C 90 % 1016,8 hPa 0,0 l/m 5,7 km/h (1 Bft) O 82 2 min 0,000 mm 0,0 UV-I 273 W/m -7,1 C -5,7 C 8,0 km/h (2 Bft) 92,00 %
16.12.2018 10:30 -5,7 C 3,9 C -3,3 C 90 % 1016,7 hPa 0,0 l/m 6,6 km/h (2 Bft) O-NO 71 2 min 0,000 mm 0,0 UV-I 280 W/m -7,1 C -5,9 C 9,7 km/h (2 Bft) 92,00 %
16.12.2018 10:32 -5,6 C 3,9 C -3,3 C 90 % 1016,7 hPa 0,0 l/m 7,6 km/h (2 Bft) O-NO 72 2 min 0,000 mm 0,0 UV-I 279 W/m -7,0 C -7,1 C 11,3 km/h (2 Bft) 95,74 %
16.12.2018 10:34 -5,6 C 3,9 C -3,3 C 90 % 1016,6 hPa 0,0 l/m 5,6 km/h (1 Bft) O-NO 62 2 min 0,000 mm 0,0 UV-I 288 W/m -7,0 C -5,6 C 8,0 km/h (2 Bft) 97,87 %
16.12.2018 10:36 -5,4 C 3,9 C -3,3 C 90 % 1016,7 hPa 0,0 l/m 6,3 km/h (2 Bft) O-NO 67 2 min 0,000 mm 0,0 UV-I 294 W/m -6,8 C -5,4 C 8,0 km/h (2 Bft) 94,87 %
16.12.2018 10:38 -5,4 C 3,9 C -2,8 C 90 % 1016,8 hPa 0,0 l/m 4,0 km/h (1 Bft) O 84 2 min 0,000 mm 0,0 UV-I 289 W/m -6,8 C -5,4 C 6,4 km/h (2 Bft) 95,74 %
16.12.2018 10:40 -5,3 C 3,9 C -2,2 C 90 % 1016,8 hPa 0,0 l/m 1,7 km/h (1 Bft) O 84 2 min 0,000 mm 0,0 UV-I 322 W/m -6,7 C -5,3 C 4,8 km/h (1 Bft) 93,62 %
16.12.2018 10:42 -5,2 C 3,9 C -2,2 C 90 % 1016,8 hPa 0,0 l/m 3,3 km/h (1 Bft) O 84 2 min 0,000 mm 0,0 UV-I 358 W/m -6,6 C -5,2 C 6,4 km/h (2 Bft) 100,00 %
16.12.2018 10:44 -5,1 C 3,9 C -1,7 C 90 % 1016,8 hPa 0,0 l/m 4,5 km/h (1 Bft) O-NO 58 2 min 0,000 mm 0,0 UV-I 343 W/m -6,5 C -5,1 C 6,4 km/h (2 Bft) 100,00 %
16.12.2018 10:46 -4,9 C 3,9 C -1,7 C 90 % 1016,7 hPa 0,0 l/m 6,3 km/h (2 Bft) O-NO 68 2 min 0,000 mm 0,0 UV-I 335 W/m -6,3 C -4,9 C 8,0 km/h (2 Bft) 97,87 %
16.12.2018 10:48 -4,8 C 3,9 C -1,1 C 90 % 1016,7 hPa 0,0 l/m 6,1 km/h (2 Bft) O-NO 69 2 min 0,000 mm 0,2 UV-I 356 W/m -6,2 C -4,8 C 8,0 km/h (2 Bft) 100,00 %
16.12.2018 10:50 -4,7 C 3,9 C -0,6 C 89 % 1016,7 hPa 0,0 l/m 4,8 km/h (1 Bft) O-NO 62 2 min 0,000 mm 0,5 UV-I 362 W/m -6,2 C -4,7 C 6,4 km/h (2 Bft) 100,00 %
16.12.2018 10:52 -4,6 C 3,9 C -0,6 C 89 % 1016,7 hPa 0,0 l/m 4,7 km/h (1 Bft) O-NO 68 2 min 0,000 mm 0,5 UV-I 364 W/m -6,1 C -4,6 C 6,4 km/h (2 Bft) 100,00 %
16.12.2018 10:54 -4,6 C 3,9 C 0,0 C 88 % 1016,7 hPa 0,0 l/m 2,8 km/h (1 Bft) O-NO 68 2 min 0,000 mm 0,5 UV-I 354 W/m -6,3 C -4,6 C 4,8 km/h (1 Bft) 100,00 %
16.12.2018 10:56 -4,4 C 3,9 C 0,0 C 88 % 1016,6 hPa 0,0 l/m 2,7 km/h (1 Bft) O-NO 73 2 min 0,000 mm 0,0 UV-I 334 W/m -6,1 C -4,4 C 4,8 km/h (1 Bft) 100,00 %
16.12.2018 10:58 -4,4 C 3,9 C -0,6 C 88 % 1016,6 hPa 0,0 l/m 5,3 km/h (1 Bft) NO 54 2 min 0,000 mm 0,0 UV-I 257 W/m -6,1 C -4,4 C 9,7 km/h (2 Bft) 100,00 %
16.12.2018 11:00 -4,4 C 3,9 C -1,1 C 88 % 1016,6 hPa 0,0 l/m 6,4 km/h (2 Bft) O-NO 69 2 min 0,076 mm 0,0 UV-I 208 W/m -6,1 C -4,3 C 9,7 km/h (2 Bft) 97,87 %
16.12.2018 11:02 -4,4 C 3,9 C -1,1 C 87 % 1016,6 hPa 0,0 l/m 5,2 km/h (1 Bft) O-NO 72 2 min 0,000 mm 0,0 UV-I 180 W/m -6,2 C -4,4 C 6,4 km/h (2 Bft) 100,00 %
16.12.2018 11:04 -4,5 C 3,9 C -1,1 C 87 % 1016,5 hPa 0,0 l/m 5,1 km/h (1 Bft) O-NO 64 0 min 0,000 mm 0,0 UV-I 165 W/m -6,3 C -4,5 C 8,0 km/h (2 Bft) 97,87 %
16.12.2018 11:06 -4,6 C 3,9 C -1,7 C 87 % 1016,6 hPa 0,0 l/m 5,2 km/h (1 Bft) O 86 0 min 0,000 mm 0,0 UV-I 152 W/m -6,4 C -4,6 C 8,0 km/h (2 Bft) 100,00 %
16.12.2018 11:08 -4,6 C 3,9 C -1,7 C 87 % 1016,6 hPa 0,0 l/m 4,7 km/h (1 Bft) O 89 0 min 0,000 mm 0,0 UV-I 142 W/m -6,4 C -4,6 C 6,4 km/h (2 Bft) 100,00 %
16.12.2018 11:10 -4,6 C 3,9 C -1,7 C 87 % 1016,7 hPa 0,0 l/m 3,2 km/h (1 Bft) O 89 0 min 0,000 mm 0,0 UV-I 143 W/m -6,4 C -4,6 C 4,8 km/h (1 Bft) 97,92 %
16.12.2018 11:12 -4,6 C 3,9 C -1,7 C 87 % 1016,7 hPa 0,0 l/m 4,2 km/h (1 Bft) O 87 0 min 0,000 mm 0,0 UV-I 153 W/m -6,4 C -4,6 C 6,4 km/h (2 Bft) 97,87 %
16.12.2018 11:14 -4,4 C 3,9 C -1,7 C 87 % 1016,7 hPa 0,0 l/m 5,6 km/h (1 Bft) O-NO 71 0 min 0,000 mm 0,0 UV-I 158 W/m -6,2 C -4,4 C 8,0 km/h (2 Bft) 100,00 %
16.12.2018 11:16 -4,4 C 3,9 C -1,7 C 87 % 1016,6 hPa 0,0 l/m 6,0 km/h (2 Bft) O-NO 66 0 min 0,000 mm 0,0 UV-I 158 W/m -6,2 C -4,4 C 8,0 km/h (2 Bft) 100,00 %
16.12.2018 11:18 -4,4 C 3,9 C -1,7 C 87 % 1016,6 hPa 0,0 l/m 7,3 km/h (2 Bft) O-NO 75 0 min 0,000 mm 0,0 UV-I 156 W/m -6,2 C -5,5 C 11,3 km/h (2 Bft) 97,87 %
16.12.2018 11:20 -4,4 C 3,9 C -1,7 C 87 % 1016,5 hPa 0,0 l/m 8,4 km/h (2 Bft) O-NO 73 0 min 0,000 mm 0,0 UV-I 151 W/m -6,2 C -6,7 C 12,9 km/h (3 Bft) 98,00 %
16.12.2018 11:22 -4,4 C 3,9 C -1,7 C 87 % 1016,5 hPa 0,0 l/m 9,0 km/h (2 Bft) O 95 0 min 0,000 mm 0,0 UV-I 148 W/m -6,2 C -7,3 C 14,5 km/h (3 Bft) 95,74 %
16.12.2018 11:24 -4,4 C 3,9 C -1,7 C 87 % 1016,5 hPa 0,0 l/m 10,0 km/h (2 Bft) O-NO 67 0 min 0,000 mm 0,0 UV-I 148 W/m -6,2 C -8,3 C 14,5 km/h (3 Bft) 100,00 %
16.12.2018 11:26 -4,4 C 3,9 C -1,7 C 86 % 1016,5 hPa 0,0 l/m 8,7 km/h (2 Bft) NO 39 0 min 0,000 mm 0,0 UV-I 151 W/m -6,4 C -7,0 C 14,5 km/h (3 Bft) 94,34 %
16.12.2018 11:28 -4,4 C 3,9 C -1,7 C 87 % 1016,6 hPa 0,0 l/m 7,9 km/h (2 Bft) O 99 0 min 0,000 mm 0,0 UV-I 159 W/m -6,2 C -6,2 C 12,9 km/h (3 Bft) 96,00 %
16.12.2018 11:30 -4,4 C 3,9 C -1,7 C 87 % 1016,7 hPa 0,0 l/m 5,9 km/h (2 Bft) O-SO 103 0 min 0,000 mm 0,0 UV-I 163 W/m -6,2 C -4,4 C 11,3 km/h (2 Bft) 93,62 %
16.12.2018 11:32 -4,4 C 3,9 C -1,1 C 87 % 1016,7 hPa 0,0 l/m 5,2 km/h (1 Bft) O-SO 104 0 min 0,000 mm 0,0 UV-I 164 W/m -6,2 C -4,4 C 11,3 km/h (2 Bft) 95,74 %
16.12.2018 11:34 -4,3 C 3,9 C -1,1 C 87 % 1016,7 hPa 0,0 l/m 6,7 km/h (2 Bft) O 96 0 min 0,000 mm 0,0 UV-I 163 W/m -6,1 C -4,6 C 11,3 km/h (2 Bft) 97,87 %
16.12.2018 11:36 -4,3 C 3,9 C -1,1 C 87 % 1016,6 hPa 0,0 l/m 8,7 km/h (2 Bft) O 97 0 min 0,000 mm 0,0 UV-I 161 W/m -6,1 C -6,9 C 12,9 km/h (3 Bft) 98,00 %
16.12.2018 11:38 -4,3 C 3,9 C -1,1 C 86 % 1016,6 hPa 0,0 l/m 5,9 km/h (2 Bft) O-NO 67 0 min 0,000 mm 0,0 UV-I 157 W/m -6,3 C -4,3 C 11,3 km/h (2 Bft) 100,00 %
16.12.2018 11:40 -4,3 C 3,9 C -1,1 C 87 % 1016,7 hPa 0,0 l/m 6,6 km/h (2 Bft) O 90 0 min 0,000 mm 0,0 UV-I 155 W/m -6,1 C -4,5 C 11,3 km/h (2 Bft) 97,87 %
16.12.2018 11:42 -4,2 C 3,9 C -1,1 C 86 % 1016,6 hPa 0,0 l/m 4,8 km/h (1 Bft) O 81 0 min 0,000 mm 0,0 UV-I 153 W/m -6,2 C -4,2 C 8,0 km/h (2 Bft) 97,87 %
16.12.2018 11:44 -4,2 C 3,9 C -1,1 C 86 % 1016,6 hPa 0,0 l/m 4,5 km/h (1 Bft) O 94 0 min 0,000 mm 0,0 UV-I 152 W/m -6,2 C -4,2 C 9,7 km/h (2 Bft) 97,22 %
16.12.2018 11:46 -4,1 C 3,9 C -1,1 C 87 % 1016,5 hPa 0,0 l/m 3,5 km/h (1 Bft) O-SO 105 0 min 0,000 mm 0,0 UV-I 151 W/m -5,9 C -4,1 C 6,4 km/h (2 Bft) 97,87 %
16.12.2018 11:48 -4,1 C 3,9 C -1,1 C 87 % 1016,5 hPa 0,0 l/m 5,0 km/h (1 Bft) O 92 0 min 0,000 mm 0,0 UV-I 151 W/m -5,9 C -4,1 C 9,7 km/h (2 Bft) 96,00 %
16.12.2018 11:50 -4,0 C 3,9 C -1,1 C 86 % 1016,6 hPa 0,0 l/m 4,5 km/h (1 Bft) NO 56 0 min 0,000 mm 0,0 UV-I 152 W/m -6,0 C -4,0 C 6,4 km/h (2 Bft) 97,87 %
16.12.2018 11:52 -4,0 C 3,9 C -1,1 C 87 % 1016,6 hPa 0,0 l/m 2,2 km/h (1 Bft) NO 55 0 min 0,000 mm 0,0 UV-I 150 W/m -5,8 C -4,0 C 4,8 km/h (1 Bft) 97,87 %
16.12.2018 11:54 -3,9 C 3,9 C -0,6 C 87 % 1016,5 hPa 0,0 l/m 4,2 km/h (1 Bft) O 82 0 min 0,000 mm 0,0 UV-I 146 W/m -5,7 C -3,9 C 6,4 km/h (2 Bft) 98,11 %
16.12.2018 11:56 -3,9 C 3,9 C -0,6 C 87 % 1016,6 hPa 0,0 l/m 4,5 km/h (1 Bft) O 89 0 min 0,000 mm 0,0 UV-I 142 W/m -5,7 C -3,9 C 6,4 km/h (2 Bft) 97,14 %
16.12.2018 11:58 -3,9 C 3,9 C -1,1 C 86 % 1016,6 hPa 0,0 l/m 5,0 km/h (1 Bft) O 92 0 min 0,000 mm 0,0 UV-I 136 W/m -5,9 C -3,9 C 6,4 km/h (2 Bft) 96,00 %
16.12.2018 12:00 -3,9 C 3,9 C -1,1 C 86 % 1016,6 hPa 0,0 l/m 5,0 km/h (1 Bft) O-SO 103 0 min 0,051 mm 0,0 UV-I 132 W/m -5,9 C -3,9 C 9,7 km/h (2 Bft) 98,00 %
16.12.2018 12:02 -3,9 C 3,9 C -1,1 C 86 % 1016,6 hPa 0,0 l/m 4,2 km/h (1 Bft) O 96 0 min 0,000 mm 0,0 UV-I 129 W/m -5,9 C -3,9 C 6,4 km/h (2 Bft) 97,87 %
16.12.2018 12:04 -3,9 C 3,9 C -1,1 C 86 % 1016,5 hPa 0,0 l/m 5,1 km/h (1 Bft) O 90 0 min 0,000 mm 0,0 UV-I 127 W/m -5,9 C -3,9 C 9,7 km/h (2 Bft) 97,87 %
16.12.2018 12:06 -3,9 C 3,9 C -1,1 C 86 % 1016,4 hPa 0,0 l/m 6,7 km/h (2 Bft) O-SO 105 0 min 0,000 mm 0,0 UV-I 125 W/m -5,9 C -4,2 C 11,3 km/h (2 Bft) 97,87 %
16.12.2018 12:08 -3,9 C 3,9 C -1,1 C 86 % 1016,4 hPa 0,0 l/m 4,0 km/h (1 Bft) O-SO 105 0 min 0,000 mm 0,0 UV-I 127 W/m -5,9 C -3,9 C 6,4 km/h (2 Bft) 95,74 %
16.12.2018 12:10 -3,8 C 3,9 C -1,1 C 86 % 1016,4 hPa 0,0 l/m 4,1 km/h (1 Bft) O-NO 78 0 min 0,000 mm 0,0 UV-I 126 W/m -5,8 C -3,8 C 11,3 km/h (2 Bft) 95,74 %
16.12.2018 12:12 -3,8 C 3,9 C -1,1 C 86 % 1016,5 hPa 0,0 l/m 6,2 km/h (2 Bft) O 88 0 min 0,000 mm 0,0 UV-I 125 W/m -5,8 C -3,8 C 8,0 km/h (2 Bft) 94,00 %
16.12.2018 12:14 -3,8 C 3,9 C -1,1 C 86 % 1016,5 hPa 0,0 l/m 5,4 km/h (1 Bft) O-SO 113 0 min 0,000 mm 0,0 UV-I 126 W/m -5,8 C -3,8 C 8,0 km/h (2 Bft) 92,11 %
16.12.2018 12:16 -3,8 C 3,9 C -1,1 C 86 % 1016,4 hPa 0,0 l/m 6,6 km/h (2 Bft) O 96 0 min 0,000 mm 0,0 UV-I 129 W/m -5,8 C -4,0 C 14,5 km/h (3 Bft) 100,00 %
16.12.2018 12:18 -3,8 C 3,9 C -1,1 C 86 % 1016,4 hPa 0,0 l/m 8,0 km/h (2 Bft) SO 134 0 min 0,000 mm 0,0 UV-I 134 W/m -5,8 C -5,6 C 12,9 km/h (3 Bft) 95,74 %
16.12.2018 12:20 -3,8 C 3,9 C -1,1 C 86 % 1016,4 hPa 0,0 l/m 5,4 km/h (1 Bft) O-SO 119 0 min 0,000 mm 0,0 UV-I 136 W/m -5,8 C -3,8 C 12,9 km/h (3 Bft) 98,11 %
16.12.2018 12:22 -3,7 C 3,9 C -1,1 C 86 % 1016,4 hPa 0,0 l/m 5,5 km/h (1 Bft) O-SO 105 0 min 0,000 mm 0,0 UV-I 134 W/m -5,7 C -3,7 C 11,3 km/h (2 Bft) 97,87 %
16.12.2018 12:24 -3,7 C 3,9 C -1,1 C 86 % 1016,4 hPa 0,0 l/m 9,7 km/h (2 Bft) O-SO 109 0 min 0,000 mm 0,0 UV-I 130 W/m -5,7 C -7,3 C 16,1 km/h (3 Bft) 100,00 %
16.12.2018 12:26 -3,7 C 3,9 C -1,1 C 86 % 1016,5 hPa 0,0 l/m 7,4 km/h (2 Bft) O-SO 111 0 min 0,000 mm 0,0 UV-I 126 W/m -5,7 C -4,9 C 14,5 km/h (3 Bft) 95,74 %
16.12.2018 12:28 -3,7 C 3,9 C -1,1 C 85 % 1016,5 hPa 0,0 l/m 10,1 km/h (2 Bft) O 90 0 min 0,000 mm 0,0 UV-I 121 W/m -5,8 C -7,6 C 14,5 km/h (3 Bft) 97,92 %
16.12.2018 12:30 -3,6 C 3,9 C -1,1 C 86 % 1016,5 hPa 0,0 l/m 10,6 km/h (2 Bft) O 81 0 min 0,000 mm 0,0 UV-I 119 W/m -5,6 C -8,0 C 14,5 km/h (3 Bft) 97,56 %
16.12.2018 12:32 -3,6 C 3,9 C -1,7 C 86 % 1016,4 hPa 0,0 l/m 10,5 km/h (2 Bft) O-SO 106 0 min 0,000 mm 0,0 UV-I 117 W/m -5,6 C -7,9 C 14,5 km/h (3 Bft) 97,87 %
16.12.2018 12:34 -3,6 C 3,9 C -1,1 C 86 % 1016,4 hPa 0,0 l/m 8,7 km/h (2 Bft) O-SO 102 0 min 0,000 mm 0,0 UV-I 115 W/m -5,6 C -6,2 C 16,1 km/h (3 Bft) 97,87 %
16.12.2018 12:36 -3,5 C 3,9 C -1,1 C 86 % 1016,3 hPa 0,0 l/m 11,7 km/h (2 Bft) O-SO 105 0 min 0,000 mm 0,0 UV-I 113 W/m -5,5 C -8,8 C 17,7 km/h (3 Bft) 97,87 %
16.12.2018 12:38 -3,5 C 3,9 C -1,7 C 86 % 1016,4 hPa 0,0 l/m 10,2 km/h (2 Bft) O 91 0 min 0,000 mm 0,0 UV-I 113 W/m -5,5 C -7,5 C 14,5 km/h (3 Bft) 93,62 %
16.12.2018 12:40 -3,4 C 3,9 C -1,7 C 86 % 1016,3 hPa 0,0 l/m 8,8 km/h (2 Bft) O 85 0 min 0,000 mm 0,0 UV-I 114 W/m -5,4 C -6,1 C 19,3 km/h (3 Bft) 97,87 %
16.12.2018 12:42 -3,4 C 3,9 C -1,7 C 86 % 1016,3 hPa 0,0 l/m 12,2 km/h (2 Bft) O 95 0 min 0,000 mm 0,0 UV-I 119 W/m -5,4 C -9,1 C 19,3 km/h (3 Bft) 97,14 %
16.12.2018 12:44 -3,4 C 3,9 C -1,1 C 86 % 1016,3 hPa 0,0 l/m 7,1 km/h (2 Bft) O 80 0 min 0,000 mm 0,0 UV-I 123 W/m -5,4 C -4,2 C 11,3 km/h (2 Bft) 96,77 %
16.12.2018 12:46 -3,4 C 3,9 C -1,1 C 85 % 1016,2 hPa 0,0 l/m 9,3 km/h (2 Bft) O 90 0 min 0,000 mm 0,0 UV-I 122 W/m -5,5 C -6,5 C 14,5 km/h (3 Bft) 97,87 %
16.12.2018 12:48 -3,4 C 3,9 C -1,1 C 85 % 1016,2 hPa 0,0 l/m 12,1 km/h (2 Bft) O 86 0 min 0,000 mm 0,0 UV-I 119 W/m -5,5 C -9,0 C 16,1 km/h (3 Bft) 97,87 %
16.12.2018 12:50 -3,4 C 3,9 C -1,1 C 85 % 1016,1 hPa 0,0 l/m 12,5 km/h (3 Bft) O 100 0 min 0,000 mm 0,0 UV-I 118 W/m -5,5 C -9,3 C 16,1 km/h (3 Bft) 100,00 %
16.12.2018 12:52 -3,4 C 3,9 C -1,1 C 85 % 1016,2 hPa 0,0 l/m 11,1 km/h (2 Bft) O-SO 104 0 min 0,000 mm 0,0 UV-I 118 W/m -5,5 C -8,2 C 16,1 km/h (3 Bft) 100,00 %
16.12.2018 12:54 -3,3 C 3,9 C -1,1 C 86 % 1016,2 hPa 0,0 l/m 5,1 km/h (1 Bft) S-SO 148 0 min 0,000 mm 0,0 UV-I 118 W/m -5,3 C -3,3 C 9,7 km/h (2 Bft) 100,00 %
16.12.2018 12:56 -3,3 C 3,9 C -1,1 C 86 % 1016,2 hPa 0,0 l/m 8,3 km/h (2 Bft) O-SO 113 0 min 0,000 mm 0,0 UV-I 116 W/m -5,3 C -5,4 C 12,9 km/h (3 Bft) 97,87 %
16.12.2018 12:58 -3,3 C 3,9 C -1,1 C 85 % 1016,2 hPa 0,0 l/m 6,4 km/h (2 Bft) SO 134 0 min 0,000 mm 0,0 UV-I 111 W/m -5,5 C -3,2 C 9,7 km/h (2 Bft) 97,37 %
16.12.2018 13:00 -3,3 C 3,9 C -1,1 C 85 % 1016,2 hPa 0,0 l/m 5,7 km/h (1 Bft) O-SO 114 0 min 0,051 mm 0,0 UV-I 105 W/m -5,5 C -3,3 C 12,9 km/h (3 Bft) 97,87 %
16.12.2018 13:02 -3,3 C 3,9 C -1,1 C 85 % 1016,3 hPa 0,0 l/m 4,5 km/h (1 Bft) O-NO 74 0 min 0,000 mm 0,0 UV-I 100 W/m -5,5 C -3,3 C 6,4 km/h (2 Bft) 100,00 %
16.12.2018 13:04 -3,2 C 3,9 C -1,1 C 85 % 1016,4 hPa 0,0 l/m 4,0 km/h (1 Bft) S-SO 148 0 min 0,000 mm 0,0 UV-I 99 W/m -5,4 C -3,2 C 6,4 km/h (2 Bft) 98,00 %
16.12.2018 13:06 -3,2 C 3,9 C -1,1 C 85 % 1016,4 hPa 0,0 l/m 3,5 km/h (1 Bft) S-SO 151 0 min 0,000 mm 0,0 UV-I 100 W/m -5,4 C -3,2 C 6,4 km/h (2 Bft) 97,96 %
16.12.2018 13:08 -3,2 C 3,9 C -1,1 C 85 % 1016,4 hPa 0,0 l/m 5,0 km/h (1 Bft) S-SO 164 0 min 0,000 mm 0,0 UV-I 103 W/m -5,4 C -3,2 C 9,7 km/h (2 Bft) 100,00 %
16.12.2018 13:10 -3,3 C 3,9 C -1,1 C 85 % 1016,4 hPa 0,0 l/m 3,7 km/h (1 Bft) S 171 0 min 0,000 mm 0,0 UV-I 113 W/m -5,5 C -3,3 C 6,4 km/h (2 Bft) 100,00 %
16.12.2018 13:12 -3,2 C 3,9 C -1,1 C 85 % 1016,4 hPa 0,0 l/m 4,4 km/h (1 Bft) S-SO 153 0 min 0,000 mm 0,0 UV-I 126 W/m -5,4 C -3,2 C 8,0 km/h (2 Bft) 97,87 %
16.12.2018 13:14 -3,2 C 3,9 C -1,1 C 85 % 1016,4 hPa 0,0 l/m 7,4 km/h (2 Bft) S-SO 147 0 min 0,000 mm 0,0 UV-I 136 W/m -5,4 C -4,3 C 11,3 km/h (2 Bft) 100,00 %
16.12.2018 13:16 -3,2 C 3,9 C -0,6 C 85 % 1016,4 hPa 0,0 l/m 5,6 km/h (1 Bft) SO 126 0 min 0,000 mm 0,0 UV-I 145 W/m -5,4 C -3,2 C 11,3 km/h (2 Bft) 100,00 %
16.12.2018 13:18 -3,2 C 3,9 C -0,6 C 85 % 1016,4 hPa 0,0 l/m 5,3 km/h (1 Bft) SO 137 0 min 0,000 mm 0,0 UV-I 149 W/m -5,4 C -3,2 C 8,0 km/h (2 Bft) 100,00 %
16.12.2018 13:20 -3,2 C 3,9 C -0,6 C 85 % 1016,4 hPa 0,0 l/m 4,9 km/h (1 Bft) SO 144 0 min 0,000 mm 0,0 UV-I 152 W/m -5,4 C -3,2 C 6,4 km/h (2 Bft) 100,00 %
16.12.2018 13:22 -3,2 C 3,9 C -0,6 C 85 % 1016,4 hPa 0,0 l/m 5,3 km/h (1 Bft) SO 124 0 min 0,000 mm 0,0 UV-I 149 W/m -5,4 C -3,2 C 8,0 km/h (2 Bft) 100,00 %
16.12.2018 13:24 -3,2 C 3,9 C 0,0 C 85 % 1016,4 hPa 0,0 l/m 4,0 km/h (1 Bft) SO 126 0 min 0,000 mm 0,0 UV-I 144 W/m -5,4 C -3,2 C 6,4 km/h (2 Bft) 100,00 %
16.12.2018 13:26 -3,2 C 3,9 C -0,6 C 85 % 1016,3 hPa 0,0 l/m 6,7 km/h (2 Bft) SO 128 0 min 0,000 mm 0,0 UV-I 137 W/m -5,4 C -3,5 C 11,3 km/h (2 Bft) 97,87 %
16.12.2018 13:29 -3,2 C 3,9 C -0,6 C 84 % 1016,3 hPa 0,0 l/m 5,4 km/h (1 Bft) O-NO 67 0 min 0,000 mm 0,0 UV-I 127 W/m -5,5 C -3,2 C 9,7 km/h (2 Bft) 100,00 %
16.12.2018 13:30 -3,2 C 3,9 C -0,6 C 84 % 1016,3 hPa 0,0 l/m 5,3 km/h (1 Bft) O-SO 104 0 min 0,000 mm 0,0 UV-I 121 W/m -5,5 C -3,2 C 6,4 km/h (2 Bft) 100,00 %
16.12.2018 13:32 -3,2 C 3,9 C -0,6 C 84 % 1016,3 hPa 0,0 l/m 4,7 km/h (1 Bft) O-SO 121 0 min 0,000 mm 0,0 UV-I 116 W/m -5,5 C -3,2 C 6,4 km/h (2 Bft) 100,00 %
16.12.2018 13:34 -3,2 C 3,9 C -1,1 C 84 % 1016,3 hPa 0,0 l/m 4,2 km/h (1 Bft) O 84 0 min 0,000 mm 0,0 UV-I 109 W/m -5,5 C -3,2 C 6,4 km/h (2 Bft) 100,00 %
16.12.2018 13:36 -3,2 C 3,9 C -0,6 C 84 % 1016,3 hPa 0,0 l/m 5,4 km/h (1 Bft) O-NO 65 0 min 0,000 mm 0,0 UV-I 103 W/m -5,5 C -3,2 C 9,7 km/h (2 Bft) 100,00 %
16.12.2018 13:38 -3,2 C 3,9 C -1,1 C 85 % 1016,2 hPa 0,0 l/m 7,4 km/h (2 Bft) O 98 0 min 0,000 mm 0,0 UV-I 97 W/m -5,4 C -4,3 C 11,3 km/h (2 Bft) 98,00 %
16.12.2018 13:40 -3,2 C 3,9 C -1,1 C 84 % 1016,2 hPa 0,0 l/m 10,5 km/h (2 Bft) O-NO 76 0 min 0,000 mm 0,0 UV-I 95 W/m -5,5 C -7,4 C 14,5 km/h (3 Bft) 93,62 %
16.12.2018 13:42 -3,2 C 3,9 C -1,7 C 85 % 1016,2 hPa 0,0 l/m 9,5 km/h (2 Bft) O 96 0 min 0,000 mm 0,0 UV-I 95 W/m -5,4 C -6,5 C 12,9 km/h (3 Bft) 100,00 %
16.12.2018 13:44 -3,2 C 3,9 C -1,7 C 85 % 1016,4 hPa 0,0 l/m 9,0 km/h (2 Bft) S-SO 158 0 min 0,000 mm 0,0 UV-I 94 W/m -5,4 C -6,0 C 14,5 km/h (3 Bft) 92,45 %
16.12.2018 13:46 -3,2 C 3,9 C -1,1 C 85 % 1016,4 hPa 0,0 l/m 3,5 km/h (1 Bft) SO 134 0 min 0,000 mm 0,0 UV-I 91 W/m -5,4 C -3,2 C 6,4 km/h (2 Bft) 96,00 %
16.12.2018 13:48 -3,2 C 3,9 C -1,1 C 85 % 1016,4 hPa 0,0 l/m 3,8 km/h (1 Bft) S-SO 147 0 min 0,000 mm 0,0 UV-I 90 W/m -5,4 C -3,2 C 6,4 km/h (2 Bft) 94,00 %
16.12.2018 13:50 -3,1 C 3,9 C -1,1 C 85 % 1016,5 hPa 0,0 l/m 2,5 km/h (1 Bft) S-SO 147 0 min 0,000 mm 0,0 UV-I 90 W/m -5,3 C -3,1 C 4,8 km/h (1 Bft) 95,74 %
16.12.2018 13:52 -3,1 C 3,9 C -1,1 C 85 % 1016,5 hPa 0,0 l/m 7,9 km/h (2 Bft) O-SO 114 0 min 0,000 mm 0,0 UV-I 87 W/m -5,3 C -4,8 C 11,3 km/h (2 Bft) 94,74 %
16.12.2018 13:54 -3,1 C 3,9 C -1,1 C 85 % 1016,5 hPa 0,0 l/m 2,5 km/h (1 Bft) O-SO 114 0 min 0,000 mm 0,0 UV-I 88 W/m -5,3 C -3,1 C 4,8 km/h (1 Bft) 95,74 %
16.12.2018 13:56 -3,1 C 3,9 C -1,1 C 85 % 1016,5 hPa 0,0 l/m 4,8 km/h (1 Bft) O 88 0 min 0,000 mm 0,0 UV-I 91 W/m -5,3 C -3,1 C 9,7 km/h (2 Bft) 95,74 %
16.12.2018 13:58 -3,1 C 3,9 C -1,1 C 85 % 1016,6 hPa 0,0 l/m 6,0 km/h (2 Bft) SO 133 0 min 0,000 mm 0,0 UV-I 91 W/m -5,3 C -3,1 C 9,7 km/h (2 Bft) 95,74 %
16.12.2018 14:00 -3,2 C 3,9 C -1,1 C 84 % 1016,6 hPa 0,0 l/m 1,3 km/h (1 Bft) SO 136 0 min 0,000 mm 0,0 UV-I 89 W/m -5,5 C -3,2 C 4,8 km/h (1 Bft) 90,57 %
16.12.2018 14:02 -3,1 C 3,9 C -1,1 C 85 % 1016,7 hPa 0,0 l/m 6,1 km/h (2 Bft) SO 134 0 min 0,050 mm 0,0 UV-I 90 W/m -5,3 C -3,1 C 11,3 km/h (2 Bft) 97,37 %
16.12.2018 14:04 -3,1 C 3,9 C -1,1 C 85 % 1016,6 hPa 0,0 l/m 6,8 km/h (2 Bft) SO 125 0 min 0,000 mm 0,0 UV-I 90 W/m -5,3 C -3,5 C 11,3 km/h (2 Bft) 98,00 %
16.12.2018 14:06 -3,2 C 3,9 C -1,1 C 85 % 1016,6 hPa 0,0 l/m 6,5 km/h (2 Bft) SO 127 0 min 0,000 mm 0,0 UV-I 88 W/m -5,4 C -3,3 C 11,3 km/h (2 Bft) 93,62 %
16.12.2018 14:08 -3,2 C 3,9 C -1,1 C 85 % 1016,6 hPa 0,0 l/m 4,1 km/h (1 Bft) SO 141 0 min 0,000 mm 0,0 UV-I 86 W/m -5,4 C -3,2 C 6,4 km/h (2 Bft) 93,62 %
16.12.2018 14:10 -3,1 C 3,9 C -1,1 C 85 % 1016,6 hPa 0,0 l/m 4,7 km/h (1 Bft) SO 141 0 min 0,000 mm 0,0 UV-I 85 W/m -5,3 C -3,1 C 6,4 km/h (2 Bft) 98,00 %
16.12.2018 14:12 -3,1 C 3,9 C -1,1 C 85 % 1016,7 hPa 0,0 l/m 3,1 km/h (1 Bft) SO 141 0 min 0,000 mm 0,0 UV-I 80 W/m -5,3 C -3,1 C 4,8 km/h (1 Bft) 97,87 %
16.12.2018 14:14 -3,2 C 3,9 C -1,1 C 85 % 1016,7 hPa 0,0 l/m 4,6 km/h (1 Bft) O-SO 111 0 min 0,000 mm 0,0 UV-I 74 W/m -5,4 C -3,2 C 6,4 km/h (2 Bft) 97,87 %
16.12.2018 14:16 -3,1 C 3,9 C -1,1 C 85 % 1016,7 hPa 0,0 l/m 3,5 km/h (1 Bft) S 173 0 min 0,000 mm 0,0 UV-I 75 W/m -5,3 C -3,1 C 6,4 km/h (2 Bft) 97,87 %
16.12.2018 14:18 -3,2 C 3,9 C -1,1 C 84 % 1016,7 hPa 0,0 l/m 3,8 km/h (1 Bft) S 169 0 min 0,000 mm 0,0 UV-I 73 W/m -5,5 C -3,2 C 9,7 km/h (2 Bft) 100,00 %
16.12.2018 14:20 -3,2 C 3,9 C -1,1 C 84 % 1016,7 hPa 0,0 l/m 3,2 km/h (1 Bft) S 169 0 min 0,000 mm 0,0 UV-I 70 W/m -5,5 C -3,2 C 6,4 km/h (2 Bft) 97,87 %
16.12.2018 14:22 -3,2 C 3,9 C -1,1 C 85 % 1016,6 hPa 0,0 l/m 2,1 km/h (1 Bft) S 169 0 min 0,000 mm 0,0 UV-I 70 W/m -5,4 C -3,2 C 6,4 km/h (2 Bft) 97,87 %
16.12.2018 14:24 -3,3 C 3,9 C -1,7 C 84 % 1016,6 hPa 0,0 l/m 4,0 km/h (1 Bft) S 185 0 min 0,000 mm 0,0 UV-I 69 W/m -5,6 C -3,3 C 8,0 km/h (2 Bft) 98,00 %
16.12.2018 14:26 -3,4 C 3,9 C -1,7 C 84 % 1016,6 hPa 0,0 l/m 2,4 km/h (1 Bft) S 185 0 min 0,000 mm 0,0 UV-I 67 W/m -5,7 C -3,4 C 4,8 km/h (1 Bft) 97,22 %
16.12.2018 14:28 -3,4 C 3,9 C -1,7 C 84 % 1016,5 hPa 0,0 l/m 0,7 km/h (0 Bft) S 185 0 min 0,000 mm 0,0 UV-I 63 W/m -5,7 C -3,4 C 3,2 km/h (1 Bft) 95,74 %
16.12.2018 14:30 -3,5 C 3,9 C -1,7 C 84 % 1016,5 hPa 0,0 l/m 0,7 km/h (0 Bft) S 185 0 min 0,000 mm 0,0 UV-I 59 W/m -5,8 C -3,5 C 3,2 km/h (1 Bft) 98,00 %
16.12.2018 14:32 -3,4 C 3,9 C -1,7 C 84 % 1016,5 hPa 0,0 l/m 1,6 km/h (1 Bft) S 185 0 min 0,000 mm 0,0 UV-I 54 W/m -5,7 C -3,4 C 3,2 km/h (1 Bft) 97,87 %
16.12.2018 14:34 -3,4 C 3,9 C -1,7 C 84 % 1016,6 hPa 0,0 l/m 2,1 km/h (1 Bft) S 185 0 min 0,000 mm 0,0 UV-I 51 W/m -5,7 C -3,4 C 3,2 km/h (1 Bft) 97,87 %
16.12.2018 14:36 -3,5 C 3,9 C -1,7 C 84 % 1016,6 hPa 0,0 l/m 1,2 km/h (1 Bft) S 185 0 min 0,000 mm 0,0 UV-I 47 W/m -5,8 C -3,5 C 3,2 km/h (1 Bft) 97,87 %
16.12.2018 14:38 -3,4 C 3,9 C -1,7 C 84 % 1016,7 hPa 0,0 l/m 1,1 km/h (1 Bft) S 185 0 min 0,000 mm 0,0 UV-I 46 W/m -5,7 C -3,4 C 3,2 km/h (1 Bft) 97,87 %
16.12.2018 14:40 -3,4 C 3,9 C -1,7 C 84 % 1016,6 hPa 0,0 l/m 0,0 km/h (0 Bft) S 185 0 min 0,000 mm 0,0 UV-I 46 W/m -5,7 C -3,4 C 0,0 km/h (0 Bft) 91,49 %
16.12.2018 14:42 -3,4 C 3,9 C -1,7 C 84 % 1016,6 hPa 0,0 l/m 1,2 km/h (1 Bft) S 185 0 min 0,000 mm 0,0 UV-I 45 W/m -5,7 C -3,4 C 3,2 km/h (1 Bft) 95,74 %
16.12.2018 14:44 -3,4 C 3,9 C -1,7 C 84 % 1016,6 hPa 0,0 l/m 1,7 km/h (1 Bft) S 185 0 min 0,000 mm 0,0 UV-I 42 W/m -5,7 C -3,4 C 3,2 km/h (1 Bft) 95,74 %
16.12.2018 14:46 -3,4 C 3,9 C -2,2 C 84 % 1016,5 hPa 0,0 l/m 1,4 km/h (1 Bft) S 185 0 min 0,000 mm 0,0 UV-I 42 W/m -5,7 C -3,4 C 3,2 km/h (1 Bft) 97,87 %
16.12.2018 14:48 -3,4 C 3,9 C -2,2 C 85 % 1016,6 hPa 0,0 l/m 3,1 km/h (1 Bft) O-SO 123 0 min 0,000 mm 0,0 UV-I 42 W/m -5,5 C -3,4 C 4,8 km/h (1 Bft) 98,00 %
16.12.2018 14:50 -3,3 C 3,9 C -2,2 C 85 % 1016,6 hPa 0,0 l/m 3,2 km/h (1 Bft) O-SO 104 0 min 0,000 mm 0,0 UV-I 42 W/m -5,5 C -3,3 C 4,8 km/h (1 Bft) 97,87 %
16.12.2018 14:52 -3,3 C 3,9 C -2,2 C 85 % 1016,6 hPa 0,0 l/m 3,4 km/h (1 Bft) O-SO 104 0 min 0,000 mm 0,0 UV-I 41 W/m -5,5 C -3,3 C 4,8 km/h (1 Bft) 92,00 %
16.12.2018 14:54 -3,3 C 3,9 C -2,2 C 84 % 1016,6 hPa 0,0 l/m 4,1 km/h (1 Bft) O-SO 104 0 min 0,000 mm 0,0 UV-I 40 W/m -5,6 C -3,3 C 6,4 km/h (2 Bft) 91,43 %
16.12.2018 14:56 -3,4 C 3,9 C -2,2 C 84 % 1016,7 hPa 0,0 l/m 2,4 km/h (1 Bft) O-SO 104 0 min 0,000 mm 0,0 UV-I 40 W/m -5,7 C -3,4 C 4,8 km/h (1 Bft) 95,74 %
16.12.2018 14:58 -3,4 C 3,9 C -2,2 C 84 % 1016,9 hPa 0,0 l/m 2,5 km/h (1 Bft) O-SO 104 0 min 0,000 mm 0,0 UV-I 37 W/m -5,7 C -3,4 C 4,8 km/h (1 Bft) 95,83 %
16.12.2018 15:00 -3,4 C 3,9 C -2,2 C 84 % 1016,9 hPa 0,0 l/m 2,9 km/h (1 Bft) O-SO 104 0 min 0,000 mm 0,0 UV-I 35 W/m -5,7 C -3,4 C 4,8 km/h (1 Bft) 96,00 %
16.12.2018 15:02 -3,4 C 3,9 C -2,2 C 84 % 1016,8 hPa 0,0 l/m 3,1 km/h (1 Bft) O-SO 104 0 min 0,026 mm 0,0 UV-I 35 W/m -5,7 C -3,4 C 4,8 km/h (1 Bft) 88,00 %
16.12.2018 15:04 -3,3 C 3,9 C -2,2 C 84 % 1016,8 hPa 0,0 l/m 3,8 km/h (1 Bft) O-SO 104 0 min 0,000 mm 0,0 UV-I 35 W/m -5,6 C -3,3 C 4,8 km/h (1 Bft) 95,74 %
16.12.2018 15:06 -3,3 C 3,9 C -2,2 C 84 % 1016,9 hPa 0,0 l/m 2,2 km/h (1 Bft) O-SO 104 0 min 0,000 mm 0,0 UV-I 34 W/m -5,6 C -3,3 C 3,2 km/h (1 Bft) 95,74 %
16.12.2018 15:08 -3,3 C 3,9 C -2,2 C 84 % 1016,9 hPa 0,0 l/m 2,1 km/h (1 Bft) O-SO 104 0 min 0,000 mm 0,0 UV-I 35 W/m -5,6 C -3,3 C 3,2 km/h (1 Bft) 97,87 %
16.12.2018 15:10 -3,3 C 3,9 C -2,2 C 85 % 1016,9 hPa 0,0 l/m 2,5 km/h (1 Bft) O-SO 104 0 min 0,000 mm 0,0 UV-I 40 W/m -5,5 C -3,3 C 3,2 km/h (1 Bft) 93,62 %
16.12.2018 15:12 -3,3 C 3,9 C -2,2 C 85 % 1016,9 hPa 0,0 l/m 3,0 km/h (1 Bft) S 180 0 min 0,000 mm 0,0 UV-I 52 W/m -5,5 C -3,3 C 4,8 km/h (1 Bft) 96,00 %
16.12.2018 15:14 -3,3 C 3,9 C -2,2 C 85 % 1016,9 hPa 0,0 l/m 3,9 km/h (1 Bft) S-SO 167 0 min 0,000 mm 0,0 UV-I 61 W/m -5,5 C -3,3 C 6,4 km/h (2 Bft) 97,87 %
16.12.2018 15:16 -3,3 C 3,9 C -2,2 C 85 % 1016,9 hPa 0,0 l/m 4,1 km/h (1 Bft) S 178 2 min 0,000 mm 0,0 UV-I 62 W/m -5,5 C -3,3 C 6,4 km/h (2 Bft) 95,74 %
16.12.2018 15:18 -3,4 C 3,9 C -2,2 C 85 % 1016,8 hPa 0,0 l/m 2,8 km/h (1 Bft) S 178 0 min 0,000 mm 0,0 UV-I 50 W/m -5,5 C -3,4 C 4,8 km/h (1 Bft) 97,37 %
16.12.2018 15:20 -3,4 C 3,9 C -2,2 C 85 % 1016,8 hPa 0,0 l/m 2,3 km/h (1 Bft) S 178 0 min 0,000 mm 0,0 UV-I 43 W/m -5,5 C -3,4 C 4,8 km/h (1 Bft) 97,87 %
16.12.2018 15:22 -3,4 C 3,9 C -2,2 C 85 % 1016,9 hPa 0,0 l/m 2,0 km/h (1 Bft) S 178 0 min 0,000 mm 0,0 UV-I 41 W/m -5,5 C -3,4 C 3,2 km/h (1 Bft) 95,74 %
16.12.2018 15:24 -3,4 C 3,9 C -2,2 C 85 % 1016,9 hPa 0,0 l/m 2,7 km/h (1 Bft) S 178 0 min 0,000 mm 0,0 UV-I 39 W/m -5,5 C -3,4 C 3,2 km/h (1 Bft) 100,00 %
16.12.2018 15:26 -3,4 C 3,9 C -2,2 C 86 % 1017,0 hPa 0,0 l/m 2,8 km/h (1 Bft) S 178 0 min 0,000 mm 0,0 UV-I 35 W/m -5,4 C -3,4 C 4,8 km/h (1 Bft) 100,00 %
16.12.2018 15:28 -3,5 C 3,9 C -2,2 C 86 % 1017,1 hPa 0,0 l/m 1,7 km/h (1 Bft) S 178 0 min 0,000 mm 0,0 UV-I 29 W/m -5,5 C -3,5 C 3,2 km/h (1 Bft) 97,87 %
16.12.2018 15:30 -3,6 C 3,9 C -2,2 C 85 % 1017,0 hPa 0,0 l/m 1,9 km/h (1 Bft) S 178 0 min 0,000 mm 0,0 UV-I 21 W/m -5,7 C -3,6 C 3,2 km/h (1 Bft) 100,00 %
16.12.2018 15:32 -3,6 C 3,9 C -2,8 C 86 % 1017,0 hPa 0,0 l/m 0,2 km/h (0 Bft) S 178 0 min 0,000 mm 0,0 UV-I 17 W/m -5,6 C -3,6 C 1,6 km/h (1 Bft) 95,74 %
16.12.2018 15:34 -3,6 C 3,9 C -2,8 C 86 % 1017,0 hPa 0,0 l/m 1,8 km/h (1 Bft) S 178 0 min 0,000 mm 0,0 UV-I 19 W/m -5,6 C -3,6 C 4,8 km/h (1 Bft) 98,00 %
16.12.2018 15:36 -3,6 C 3,9 C -2,8 C 86 % 1017,0 hPa 0,0 l/m 2,8 km/h (1 Bft) S 178 0 min 0,000 mm 0,0 UV-I 26 W/m -5,6 C -3,6 C 4,8 km/h (1 Bft) 95,74 %
16.12.2018 15:38 -3,6 C 3,9 C -2,8 C 86 % 1017,0 hPa 0,0 l/m 1,5 km/h (1 Bft) S 178 0 min 0,000 mm 0,0 UV-I 33 W/m -5,6 C -3,6 C 3,2 km/h (1 Bft) 100,00 %
16.12.2018 15:40 -3,6 C 3,9 C -2,2 C 86 % 1017,1 hPa 0,0 l/m 2,3 km/h (1 Bft) S 178 2 min 0,000 mm 0,0 UV-I 39 W/m -5,6 C -3,6 C 4,8 km/h (1 Bft) 100,00 %
16.12.2018 15:42 -3,6 C 3,9 C -2,2 C 87 % 1017,1 hPa 0,0 l/m 2,7 km/h (1 Bft) S 178 2 min 0,000 mm 0,0 UV-I 31 W/m -5,4 C -3,6 C 4,8 km/h (1 Bft) 100,00 %
16.12.2018 15:44 -3,6 C 3,9 C -2,8 C 86 % 1017,1 hPa 0,0 l/m 0,9 km/h (0 Bft) S 178 0 min 0,000 mm 0,0 UV-I 23 W/m -5,6 C -3,6 C 3,2 km/h (1 Bft) 100,00 %
16.12.2018 15:46 -3,6 C 3,9 C -2,8 C 87 % 1017,1 hPa 0,0 l/m 1,1 km/h (1 Bft) S 178 0 min 0,000 mm 0,0 UV-I 16 W/m -5,4 C -3,6 C 3,2 km/h (1 Bft) 100,00 %
16.12.2018 15:48 -3,6 C 3,9 C -2,8 C 86 % 1017,2 hPa 0,0 l/m 0,7 km/h (0 Bft) S 178 0 min 0,000 mm 0,0 UV-I 16 W/m -5,6 C -3,6 C 1,6 km/h (1 Bft) 95,74 %
16.12.2018 15:50 -3,6 C 3,9 C -2,8 C 86 % 1017,1 hPa 0,0 l/m 2,2 km/h (1 Bft) S 178 0 min 0,000 mm 0,0 UV-I 18 W/m -5,6 C -3,6 C 4,8 km/h (1 Bft) 98,00 %
16.12.2018 15:52 -3,6 C 3,9 C -2,8 C 86 % 1017,1 hPa 0,0 l/m 2,1 km/h (1 Bft) S 178 2 min 0,000 mm 0,0 UV-I 17 W/m -5,6 C -3,6 C 3,2 km/h (1 Bft) 95,74 %
16.12.2018 15:54 -3,6 C 3,9 C -2,8 C 87 % 1017,2 hPa 0,0 l/m 1,5 km/h (1 Bft) S 178 2 min 0,000 mm 0,0 UV-I 14 W/m -5,4 C -3,6 C 3,2 km/h (1 Bft) 97,87 %
16.12.2018 15:56 -3,6 C 3,9 C -2,8 C 86 % 1017,3 hPa 0,0 l/m 0,2 km/h (0 Bft) S 178 2 min 0,000 mm 0,0 UV-I 13 W/m -5,6 C -3,6 C 1,6 km/h (1 Bft) 98,00 %
16.12.2018 15:58 -3,6 C 3,9 C -2,8 C 87 % 1017,2 hPa 0,0 l/m 0,7 km/h (0 Bft) S 178 2 min 0,000 mm 0,0 UV-I 14 W/m -5,4 C -3,6 C 1,6 km/h (1 Bft) 95,74 %
16.12.2018 16:00 -3,6 C 3,9 C -2,8 C 87 % 1017,2 hPa 0,0 l/m 0,1 km/h (0 Bft) S 178 0 min 0,000 mm 0,0 UV-I 12 W/m -5,4 C -3,6 C 1,6 km/h (1 Bft) 97,87 %
16.12.2018 16:02 -3,6 C 3,9 C -2,8 C 87 % 1017,1 hPa 0,0 l/m 1,3 km/h (1 Bft) S 178 0 min 0,000 mm 0,0 UV-I 8 W/m -5,4 C -3,6 C 3,2 km/h (1 Bft) 95,12 %
16.12.2018 16:04 -3,6 C 3,9 C -2,8 C 87 % 1017,1 hPa 0,0 l/m 1,6 km/h (1 Bft) S 178 0 min 0,000 mm 0,0 UV-I 7 W/m -5,4 C -3,6 C 3,2 km/h (1 Bft) 97,87 %
16.12.2018 16:06 -3,6 C 3,9 C -2,8 C 87 % 1017,2 hPa 0,0 l/m 0,9 km/h (0 Bft) S 178 0 min 0,000 mm 0,0 UV-I 7 W/m -5,4 C -3,6 C 1,6 km/h (1 Bft) 93,62 %
16.12.2018 16:08 -3,6 C 3,9 C -2,8 C 87 % 1017,2 hPa 0,0 l/m 0,8 km/h (0 Bft) S 178 0 min 0,000 mm 0,0 UV-I 5 W/m -5,4 C -3,6 C 1,6 km/h (1 Bft) 95,74 %
16.12.2018 16:10 -3,6 C 3,9 C -2,8 C 86 % 1017,2 hPa 0,0 l/m 1,8 km/h (1 Bft) S 178 0 min 0,000 mm 0,0 UV-I 5 W/m -5,6 C -3,6 C 3,2 km/h (1 Bft) 95,74 %
16.12.2018 16:12 -3,6 C 3,9 C -2,8 C 86 % 1017,3 hPa 0,0 l/m 1,2 km/h (1 Bft) S 178 0 min 0,000 mm 0,0 UV-I 5 W/m -5,6 C -3,6 C 3,2 km/h (1 Bft) 95,74 %
16.12.2018 16:14 -3,6 C 3,9 C -2,8 C 87 % 1017,3 hPa 0,0 l/m 1,0 km/h (0 Bft) S 178 0 min 0,000 mm 0,0 UV-I 5 W/m -5,4 C -3,6 C 1,6 km/h (1 Bft) 94,44 %
16.12.2018 16:16 -3,5 C 3,9 C -2,8 C 87 % 1017,2 hPa 0,0 l/m 1,8 km/h (1 Bft) S 178 0 min 0,000 mm 0,0 UV-I 5 W/m -5,3 C -3,5 C 3,2 km/h (1 Bft) 93,44 %
16.12.2018 16:18 -3,6 C 3,9 C -2,8 C 87 % 1017,1 hPa 0,0 l/m 3,9 km/h (1 Bft) S 178 0 min 0,000 mm 0,0 UV-I 4 W/m -5,4 C -3,6 C 4,8 km/h (1 Bft) 97,22 %
16.12.2018 16:20 -3,6 C 3,9 C -2,8 C 87 % 1017,1 hPa 0,0 l/m 3,8 km/h (1 Bft) S 178 0 min 0,000 mm 0,0 UV-I 0 W/m -5,4 C -3,6 C 4,8 km/h (1 Bft) 90,00 %
16.12.2018 16:22 -3,6 C 3,9 C -2,8 C 87 % 1017,2 hPa 0,0 l/m 2,6 km/h (1 Bft) S 178 0 min 0,000 mm 0,0 UV-I 0 W/m -5,4 C -3,6 C 3,2 km/h (1 Bft) 95,74 %
16.12.2018 16:24 -3,5 C 3,9 C -2,8 C 87 % 1017,2 hPa 0,0 l/m 2,6 km/h (1 Bft) S 178 0 min 0,000 mm 0,0 UV-I 0 W/m -5,3 C -3,5 C 4,8 km/h (1 Bft) 95,74 %
16.12.2018 16:26 -3,5 C 3,9 C -2,8 C 87 % 1017,3 hPa 0,0 l/m 2,3 km/h (1 Bft) S 178 0 min 0,000 mm 0,0 UV-I 0 W/m -5,3 C -3,5 C 3,2 km/h (1 Bft) 95,74 %
16.12.2018 16:28 -3,6 C 3,9 C -2,8 C 87 % 1017,3 hPa 0,0 l/m 1,9 km/h (1 Bft) S 178 0 min 0,000 mm 0,0 UV-I 0 W/m -5,4 C -3,6 C 3,2 km/h (1 Bft) 96,00 %
16.12.2018 16:30 -3,6 C 3,9 C -2,8 C 87 % 1017,3 hPa 0,0 l/m 0,6 km/h (0 Bft) S 178 0 min 0,000 mm 0,0 UV-I 0 W/m -5,4 C -3,6 C 3,2 km/h (1 Bft) 100,00 %
16.12.2018 16:32 -3,6 C 3,9 C -2,8 C 87 % 1017,3 hPa 0,0 l/m 2,0 km/h (1 Bft) S 178 0 min 0,000 mm 0,0 UV-I 0 W/m -5,4 C -3,6 C 4,8 km/h (1 Bft) 97,87 %
16.12.2018 16:34 -3,6 C 3,9 C -2,8 C 87 % 1017,4 hPa 0,0 l/m 2,8 km/h (1 Bft) S 178 0 min 0,000 mm 0,0 UV-I 0 W/m -5,4 C -3,6 C 4,8 km/h (1 Bft) 97,87 %
16.12.2018 16:36 -3,6 C 3,9 C -2,8 C 87 % 1017,4 hPa 0,0 l/m 2,2 km/h (1 Bft) S 178 0 min 0,000 mm 0,0 UV-I 0 W/m -5,4 C -3,6 C 3,2 km/h (1 Bft) 100,00 %
16.12.2018 16:38 -3,6 C 3,9 C -2,8 C 87 % 1017,5 hPa 0,0 l/m 1,8 km/h (1 Bft) S 178 0 min 0,000 mm 0,0 UV-I 0 W/m -5,4 C -3,6 C 3,2 km/h (1 Bft) 100,00 %
16.12.2018 16:40 -3,6 C 3,9 C -2,8 C 87 % 1017,5 hPa 0,0 l/m 3,5 km/h (1 Bft) S 178 0 min 0,000 mm 0,0 UV-I 0 W/m -5,4 C -3,6 C 4,8 km/h (1 Bft) 98,04 %
16.12.2018 16:42 -3,6 C 3,9 C -2,8 C 87 % 1017,5 hPa 0,0 l/m 2,4 km/h (1 Bft) S 178 0 min 0,000 mm 0,0 UV-I 0 W/m -5,4 C -3,6 C 4,8 km/h (1 Bft) 98,00 %
16.12.2018 16:44 -3,6 C 3,9 C -2,8 C 87 % 1017,5 hPa 0,0 l/m 2,6 km/h (1 Bft) S 178 0 min 0,000 mm 0,0 UV-I 0 W/m -5,4 C -3,6 C 4,8 km/h (1 Bft) 97,87 %
16.12.2018 16:46 -3,6 C 3,9 C -2,8 C 87 % 1017,5 hPa 0,0 l/m 1,5 km/h (1 Bft) S 178 0 min 0,000 mm 0,0 UV-I 0 W/m -5,4 C -3,6 C 3,2 km/h (1 Bft) 97,87 %
16.12.2018 16:48 -3,6 C 3,9 C -2,8 C 87 % 1017,5 hPa 0,0 l/m 0,4 km/h (0 Bft) S 178 0 min 0,000 mm 0,0 UV-I 0 W/m -5,4 C -3,6 C 1,6 km/h (1 Bft) 100,00 %
16.12.2018 16:50 -3,6 C 3,9 C -2,8 C 86 % 1017,6 hPa 0,0 l/m 0,1 km/h (0 Bft) S 178 0 min 0,000 mm 0,0 UV-I 0 W/m -5,6 C -3,6 C 1,6 km/h (1 Bft) 100,00 %
16.12.2018 16:52 -3,6 C 3,9 C -2,8 C 86 % 1017,4 hPa 0,0 l/m 0,0 km/h (0 Bft) S 178 0 min 0,000 mm 0,0 UV-I 0 W/m -5,6 C -3,6 C 1,6 km/h (1 Bft) 97,92 %
16.12.2018 16:54 -3,6 C 3,9 C -2,8 C 86 % 1017,3 hPa 0,0 l/m 0,5 km/h (0 Bft) S 178 0 min 0,000 mm 0,0 UV-I 0 W/m -5,6 C -3,6 C 1,6 km/h (1 Bft) 100,00 %
16.12.2018 16:56 -3,6 C 3,9 C -2,8 C 85 % 1017,3 hPa 0,0 l/m 0,0 km/h (0 Bft) S 178 0 min 0,000 mm 0,0 UV-I 0 W/m -5,7 C -3,6 C 0,0 km/h (0 Bft) 100,00 %
16.12.2018 16:58 -3,6 C 3,9 C -2,8 C 85 % 1017,4 hPa 0,0 l/m 0,2 km/h (0 Bft) S 178 0 min 0,000 mm 0,0 UV-I 0 W/m -5,7 C -3,6 C 1,6 km/h (1 Bft) 98,11 %
16.12.2018 17:00 -3,6 C 3,9 C -2,8 C 85 % 1017,4 hPa 0,0 l/m 1,3 km/h (1 Bft) S 178 0 min 0,000 mm 0,0 UV-I 0 W/m -5,7 C -3,6 C 3,2 km/h (1 Bft) 100,00 %
16.12.2018 17:02 -3,6 C 3,9 C -2,8 C 85 % 1017,4 hPa 0,0 l/m 1,0 km/h (0 Bft) S 178 0 min 0,000 mm 0,0 UV-I 0 W/m -5,7 C -3,6 C 3,2 km/h (1 Bft) 97,87 %
16.12.2018 17:04 -3,6 C 3,9 C -2,8 C 85 % 1017,5 hPa 0,0 l/m 3,2 km/h (1 Bft) S 178 0 min 0,000 mm 0,0 UV-I 0 W/m -5,7 C -3,6 C 4,8 km/h (1 Bft) 100,00 %
16.12.2018 17:06 -3,6 C 3,9 C -2,8 C 85 % 1017,4 hPa 0,0 l/m 2,6 km/h (1 Bft) S 178 0 min 0,000 mm 0,0 UV-I 0 W/m -5,7 C -3,6 C 4,8 km/h (1 Bft) 100,00 %
16.12.2018 17:09 -3,5 C 3,9 C -2,8 C 85 % 1017,4 hPa 0,0 l/m 1,2 km/h (1 Bft) S 178 0 min 0,000 mm 0,0 UV-I 0 W/m -5,6 C -3,5 C 3,2 km/h (1 Bft) 100,00 %
16.12.2018 17:10 -3,5 C 3,9 C -2,8 C 85 % 1017,4 hPa 0,0 l/m 1,6 km/h (1 Bft) S 178 0 min 0,000 mm 0,0 UV-I 0 W/m -5,6 C -3,5 C 3,2 km/h (1 Bft) 100,00 %
16.12.2018 17:12 -3,5 C 3,9 C -2,8 C 85 % 1017,4 hPa 0,0 l/m 1,7 km/h (1 Bft) S 178 0 min 0,000 mm 0,0 UV-I 0 W/m -5,6 C -3,5 C 3,2 km/h (1 Bft) 100,00 %
16.12.2018 17:14 -3,5 C 3,9 C -2,8 C 85 % 1017,4 hPa 0,0 l/m 2,4 km/h (1 Bft) S 178 0 min 0,000 mm 0,0 UV-I 0 W/m -5,6 C -3,5 C 3,2 km/h (1 Bft) 97,37 %
16.12.2018 17:16 -3,5 C 3,9 C -2,8 C 85 % 1017,4 hPa 0,0 l/m 3,0 km/h (1 Bft) S 178 0 min 0,000 mm 0,0 UV-I 0 W/m -5,6 C -3,5 C 4,8 km/h (1 Bft) 100,00 %
16.12.2018 17:18 -3,4 C 3,9 C -2,8 C 86 % 1017,4 hPa 0,0 l/m 3,0 km/h (1 Bft) S 178 0 min 0,000 mm 0,0 UV-I 0 W/m -5,4 C -3,4 C 4,8 km/h (1 Bft) 98,00 %
16.12.2018 17:20 -3,5 C 3,9 C -2,8 C 86 % 1017,4 hPa 0,0 l/m 3,0 km/h (1 Bft) S 178 0 min 0,000 mm 0,0 UV-I 0 W/m -5,5 C -3,5 C 4,8 km/h (1 Bft) 100,00 %
16.12.2018 17:22 -3,4 C 3,9 C -2,8 C 86 % 1017,4 hPa 0,0 l/m 3,9 km/h (1 Bft) S 178 0 min 0,000 mm 0,0 UV-I 0 W/m -5,4 C -3,4 C 4,8 km/h (1 Bft) 100,00 %
16.12.2018 17:24 -3,4 C 3,9 C -2,8 C 86 % 1017,4 hPa 0,0 l/m 2,3 km/h (1 Bft) S 178 0 min 0,000 mm 0,0 UV-I 0 W/m -5,4 C -3,4 C 3,2 km/h (1 Bft) 97,87 %
16.12.2018 17:26 -3,5 C 3,9 C -2,8 C 86 % 1017,4 hPa 0,0 l/m 1,1 km/h (1 Bft) S 178 0 min 0,000 mm 0,0 UV-I 0 W/m -5,5 C -3,5 C 3,2 km/h (1 Bft) 98,11 %
16.12.2018 17:29 -3,5 C 3,9 C -2,8 C 85 % 1017,5 hPa 0,0 l/m 1,7 km/h (1 Bft) S 178 0 min 0,000 mm 0,0 UV-I 0 W/m -5,6 C -3,5 C 3,2 km/h (1 Bft) 97,18 %
16.12.2018 17:30 -3,6 C 3,9 C -2,8 C 85 % 1017,5 hPa 0,0 l/m 0,5 km/h (0 Bft) S 178 0 min 0,000 mm 0,0 UV-I 0 W/m -5,7 C -3,6 C 1,6 km/h (1 Bft) 95,65 %
16.12.2018 17:32 -3,6 C 3,9 C -2,8 C 85 % 1017,5 hPa 0,0 l/m 0,3 km/h (0 Bft) S 178 0 min 0,000 mm 0,0 UV-I 0 W/m -5,7 C -3,6 C 1,6 km/h (1 Bft) 97,87 %
16.12.2018 17:34 -3,5 C 3,9 C -2,8 C 86 % 1017,5 hPa 0,0 l/m 1,8 km/h (1 Bft) S 178 0 min 0,000 mm 0,0 UV-I 0 W/m -5,5 C -3,5 C 3,2 km/h (1 Bft) 92,31 %
16.12.2018 17:36 -3,5 C 3,9 C -2,8 C 85 % 1017,5 hPa 0,0 l/m 1,6 km/h (1 Bft) S 178 0 min 0,000 mm 0,0 UV-I 0 W/m -5,6 C -3,5 C 3,2 km/h (1 Bft) 98,00 %
16.12.2018 17:38 -3,5 C 3,9 C -2,8 C 86 % 1017,5 hPa 0,0 l/m 1,5 km/h (1 Bft) S 178 0 min 0,000 mm 0,0 UV-I 0 W/m -5,5 C -3,5 C 3,2 km/h (1 Bft) 98,00 %
16.12.2018 17:40 -3,4 C 3,9 C -2,8 C 86 % 1017,5 hPa 0,0 l/m 1,0 km/h (0 Bft) S 178 0 min 0,000 mm 0,0 UV-I 0 W/m -5,4 C -3,4 C 3,2 km/h (1 Bft) 97,87 %
16.12.2018 17:42 -3,4 C 3,9 C -2,8 C 86 % 1017,5 hPa 0,0 l/m 0,1 km/h (0 Bft) S 178 0 min 0,000 mm 0,0 UV-I 0 W/m -5,4 C -3,4 C 1,6 km/h (1 Bft) 97,87 %
16.12.2018 17:44 -3,4 C 3,9 C -2,8 C 86 % 1017,5 hPa 0,0 l/m 0,0 km/h (0 Bft) S 178 0 min 0,000 mm 0,0 UV-I 0 W/m -5,4 C -3,4 C 1,6 km/h (1 Bft) 95,74 %
16.12.2018 17:46 -3,4 C 3,9 C -2,8 C 86 % 1017,5 hPa 0,0 l/m 1,1 km/h (1 Bft) S 178 0 min 0,000 mm 0,0 UV-I 0 W/m -5,4 C -3,4 C 3,2 km/h (1 Bft) 100,00 %
16.12.2018 17:49 -3,4 C 3,9 C -2,8 C 85 % 1017,5 hPa 0,0 l/m 0,5 km/h (0 Bft) S 178 0 min 0,000 mm 0,0 UV-I 0 W/m -5,5 C -3,4 C 1,6 km/h (1 Bft) 97,14 %
16.12.2018 17:50 -3,4 C 3,9 C -2,8 C 85 % 1017,5 hPa 0,0 l/m 0,0 km/h (0 Bft) S 178 0 min 0,000 mm 0,0 UV-I 0 W/m -5,5 C -3,4 C 0,0 km/h (0 Bft) 100,00 %
16.12.2018 17:52 -3,4 C 3,9 C -2,8 C 85 % 1017,6 hPa 0,0 l/m 0,3 km/h (0 Bft) S 178 0 min 0,000 mm 0,0 UV-I 0 W/m -5,5 C -3,4 C 1,6 km/h (1 Bft) 95,74 %
16.12.2018 17:54 -3,4 C 3,9 C -2,8 C 85 % 1017,7 hPa 0,0 l/m 1,4 km/h (1 Bft) S 178 0 min 0,000 mm 0,0 UV-I 0 W/m -5,5 C -3,4 C 3,2 km/h (1 Bft) 95,74 %
16.12.2018 17:56 -3,4 C 3,9 C -2,8 C 85 % 1017,8 hPa 0,0 l/m 2,9 km/h (1 Bft) S 178 0 min 0,000 mm 0,0 UV-I 0 W/m -5,5 C -3,4 C 4,8 km/h (1 Bft) 97,87 %
16.12.2018 17:59 -3,4 C 3,9 C -2,8 C 86 % 1017,8 hPa 0,0 l/m 2,9 km/h (1 Bft) S 178 0 min 0,000 mm 0,0 UV-I 0 W/m -5,4 C -3,4 C 4,8 km/h (1 Bft) 95,77 %
16.12.2018 18:00 -3,3 C 3,9 C -2,8 C 86 % 1017,8 hPa 0,0 l/m 2,0 km/h (1 Bft) S 178 0 min 0,000 mm 0,0 UV-I 0 W/m -5,3 C -3,3 C 3,2 km/h (1 Bft) 91,30 %
16.12.2018 18:02 -3,3 C 3,9 C -2,8 C 86 % 1017,8 hPa 0,0 l/m 1,8 km/h (1 Bft) S 178 0 min 0,000 mm 0,0 UV-I 0 W/m -5,3 C -3,3 C 3,2 km/h (1 Bft) 95,74 %
16.12.2018 18:04 -3,4 C 3,9 C -2,8 C 86 % 1017,8 hPa 0,0 l/m 3,0 km/h (1 Bft) S 178 0 min 0,000 mm 0,0 UV-I 0 W/m -5,4 C -3,4 C 3,2 km/h (1 Bft) 95,74 %
16.12.2018 18:06 -3,3 C 3,9 C -2,8 C 86 % 1017,9 hPa 0,0 l/m 2,4 km/h (1 Bft) S 178 0 min 0,000 mm 0,0 UV-I 0 W/m -5,3 C -3,3 C 4,8 km/h (1 Bft) 91,49 %
16.12.2018 18:08 -3,3 C 3,9 C -2,8 C 86 % 1018,0 hPa 0,0 l/m 2,2 km/h (1 Bft) S 178 0 min 0,000 mm 0,0 UV-I 0 W/m -5,3 C -3,3 C 4,8 km/h (1 Bft) 95,74 %
16.12.2018 18:10 -3,3 C 3,9 C -2,8 C 86 % 1018,0 hPa 0,0 l/m 3,4 km/h (1 Bft) S 178 0 min 0,000 mm 0,0 UV-I 0 W/m -5,3 C -3,3 C 4,8 km/h (1 Bft) 95,74 %
16.12.2018 18:12 -3,3 C 3,9 C -2,8 C 86 % 1018,0 hPa 0,0 l/m 2,4 km/h (1 Bft) S 178 0 min 0,000 mm 0,0 UV-I 0 W/m -5,3 C -3,3 C 3,2 km/h (1 Bft) 93,62 %
16.12.2018 18:14 -3,4 C 3,9 C -2,8 C 86 % 1018,0 hPa 0,0 l/m 2,7 km/h (1 Bft) S-SW 193 0 min 0,000 mm 0,0 UV-I 0 W/m -5,4 C -3,4 C 6,4 km/h (2 Bft) 95,74 %
16.12.2018 18:16 -3,3 C 3,9 C -2,8 C 87 % 1018,1 hPa 0,0 l/m 3,9 km/h (1 Bft) S-SW 200 0 min 0,000 mm 0,0 UV-I 0 W/m -5,1 C -3,3 C 6,4 km/h (2 Bft) 93,75 %
16.12.2018 18:18 -3,3 C 3,9 C -2,8 C 87 % 1018,0 hPa 0,0 l/m 2,2 km/h (1 Bft) S-SW 200 0 min 0,000 mm 0,0 UV-I 0 W/m -5,1 C -3,3 C 4,8 km/h (1 Bft) 97,14 %
16.12.2018 18:20 -3,3 C 3,9 C -2,8 C 87 % 1018,0 hPa 0,0 l/m 3,0 km/h (1 Bft) W-SW 257 0 min 0,000 mm 0,0 UV-I 0 W/m -5,1 C -3,3 C 4,8 km/h (1 Bft) 91,49 %
16.12.2018 18:22 -3,3 C 3,9 C -2,8 C 87 % 1018,0 hPa 0,0 l/m 3,8 km/h (1 Bft) SW 227 0 min 0,000 mm 0,0 UV-I 0 W/m -5,1 C -3,3 C 4,8 km/h (1 Bft) 96,00 %
16.12.2018 18:24 -3,3 C 3,9 C -2,8 C 87 % 1018,1 hPa 0,0 l/m 2,5 km/h (1 Bft) SW 227 0 min 0,000 mm 0,0 UV-I 0 W/m -5,1 C -3,3 C 4,8 km/h (1 Bft) 95,74 %
16.12.2018 18:26 -3,3 C 3,9 C -2,8 C 87 % 1018,0 hPa 0,0 l/m 4,2 km/h (1 Bft) SW 227 0 min 0,000 mm 0,0 UV-I 0 W/m -5,1 C -3,3 C 4,8 km/h (1 Bft) 93,62 %
16.12.2018 18:28 -3,3 C 3,9 C -2,8 C 87 % 1018,0 hPa 0,0 l/m 3,5 km/h (1 Bft) SW 227 0 min 0,000 mm 0,0 UV-I 0 W/m -5,1 C -3,3 C 4,8 km/h (1 Bft) 96,00 %
16.12.2018 18:30 -3,3 C 3,9 C -2,8 C 87 % 1018,0 hPa 0,0 l/m 3,4 km/h (1 Bft) SW 226 0 min 0,000 mm 0,0 UV-I 0 W/m -5,1 C -3,3 C 4,8 km/h (1 Bft) 96,00 %
16.12.2018 18:32 -3,3 C 3,9 C -2,8 C 87 % 1018,0 hPa 0,0 l/m 2,4 km/h (1 Bft) SW 227 0 min 0,000 mm 0,0 UV-I 0 W/m -5,1 C -3,3 C 4,8 km/h (1 Bft) 94,74 %
16.12.2018 18:34 -3,3 C 3,9 C -2,8 C 88 % 1018,0 hPa 0,0 l/m 3,1 km/h (1 Bft) SW 226 0 min 0,000 mm 0,0 UV-I 0 W/m -5,0 C -3,3 C 4,8 km/h (1 Bft) 97,87 %
16.12.2018 18:36 -3,4 C 3,9 C -2,8 C 87 % 1017,9 hPa 0,0 l/m 2,2 km/h (1 Bft) SW 226 0 min 0,000 mm 0,0 UV-I 0 W/m -5,2 C -3,4 C 3,2 km/h (1 Bft) 92,45 %
16.12.2018 18:38 -3,3 C 3,9 C -2,8 C 88 % 1018,0 hPa 0,0 l/m 1,4 km/h (1 Bft) SW 226 0 min 0,000 mm 0,0 UV-I 0 W/m -5,0 C -3,3 C 3,2 km/h (1 Bft) 97,87 %
16.12.2018 18:40 -3,3 C 3,9 C -2,8 C 88 % 1017,9 hPa 0,0 l/m 1,7 km/h (1 Bft) SW 226 0 min 0,000 mm 0,0 UV-I 0 W/m -5,0 C -3,3 C 3,2 km/h (1 Bft) 95,74 %
16.12.2018 18:42 -3,3 C 3,9 C -2,8 C 88 % 1017,9 hPa 0,0 l/m 2,4 km/h (1 Bft) SW 226 0 min 0,000 mm 0,0 UV-I 0 W/m -5,0 C -3,3 C 4,8 km/h (1 Bft) 89,47 %
16.12.2018 18:44 -3,3 C 3,9 C -2,8 C 88 % 1018,0 hPa 0,0 l/m 1,4 km/h (1 Bft) SW 226 0 min 0,000 mm 0,0 UV-I 0 W/m -5,0 C -3,3 C 3,2 km/h (1 Bft) 89,36 %
16.12.2018 18:46 -3,3 C 3,9 C -2,8 C 88 % 1018,1 hPa 0,0 l/m 1,9 km/h (1 Bft) SW 226 0 min 0,000 mm 0,0 UV-I 0 W/m -5,0 C -3,3 C 3,2 km/h (1 Bft) 95,74 %
16.12.2018 18:48 -3,3 C 3,9 C -2,8 C 88 % 1018,2 hPa 0,0 l/m 3,7 km/h (1 Bft) SW 226 0 min 0,000 mm 0,0 UV-I 0 W/m -5,0 C -3,3 C 4,8 km/h (1 Bft) 95,83 %
16.12.2018 18:50 -3,3 C 3,9 C -2,8 C 88 % 1018,2 hPa 0,0 l/m 4,2 km/h (1 Bft) SW 226 0 min 0,000 mm 0,0 UV-I 0 W/m -5,0 C -3,3 C 4,8 km/h (1 Bft) 95,74 %
16.12.2018 18:52 -3,3 C 3,9 C -2,8 C 88 % 1018,1 hPa 0,0 l/m 2,6 km/h (1 Bft) SW 226 0 min 0,000 mm 0,0 UV-I 0 W/m -5,0 C -3,3 C 4,8 km/h (1 Bft) 94,00 %
16.12.2018 18:54 -3,3 C 3,9 C -2,8 C 88 % 1018,2 hPa 0,0 l/m 3,3 km/h (1 Bft) SW 226 0 min 0,000 mm 0,0 UV-I 0 W/m -5,0 C -3,3 C 4,8 km/h (1 Bft) 95,74 %
16.12.2018 18:56 -3,2 C 3,9 C -2,8 C 88 % 1018,1 hPa 0,0 l/m 2,4 km/h (1 Bft) SW 226 0 min 0,000 mm 0,0 UV-I 0 W/m -4,9 C -3,2 C 3,2 km/h (1 Bft) 96,00 %
16.12.2018 18:58 -3,2 C 3,9 C -2,8 C 88 % 1018,1 hPa 0,0 l/m 2,8 km/h (1 Bft) SW 226 0 min 0,000 mm 0,0 UV-I 0 W/m -4,9 C -3,2 C 4,8 km/h (1 Bft) 92,00 %
16.12.2018 19:00 -3,2 C 3,9 C -2,8 C 88 % 1018,1 hPa 0,0 l/m 3,0 km/h (1 Bft) SW 226 0 min 0,000 mm 0,0 UV-I 0 W/m -4,9 C -3,2 C 4,8 km/h (1 Bft) 95,74 %
16.12.2018 19:02 -3,2 C 3,9 C -2,8 C 88 % 1018,2 hPa 0,0 l/m 2,9 km/h (1 Bft) SW 226 0 min 0,000 mm 0,0 UV-I 0 W/m -4,9 C -3,2 C 4,8 km/h (1 Bft) 94,74 %
16.12.2018 19:04 -3,2 C 3,9 C -2,8 C 88 % 1018,2 hPa 0,0 l/m 2,0 km/h (1 Bft) SW 226 0 min 0,000 mm 0,0 UV-I 0 W/m -4,9 C -3,2 C 3,2 km/h (1 Bft) 100,00 %
16.12.2018 19:06 -3,2 C 3,9 C -2,8 C 88 % 1018,3 hPa 0,0 l/m 2,1 km/h (1 Bft) SW 226 0 min 0,000 mm 0,0 UV-I 0 W/m -4,9 C -3,2 C 4,8 km/h (1 Bft) 97,87 %
16.12.2018 19:09 -3,2 C 3,9 C -2,8 C 88 % 1018,3 hPa 0,0 l/m 2,9 km/h (1 Bft) SW 226 0 min 0,000 mm 0,0 UV-I 0 W/m -4,9 C -3,2 C 4,8 km/h (1 Bft) 98,59 %
16.12.2018 19:10 -3,2 C 3,9 C -2,8 C 88 % 1018,3 hPa 0,0 l/m 2,9 km/h (1 Bft) SW 226 0 min 0,000 mm 0,0 UV-I 0 W/m -4,9 C -3,2 C 4,8 km/h (1 Bft) 100,00 %
16.12.2018 19:12 -3,2 C 3,9 C -2,8 C 88 % 1018,3 hPa 0,0 l/m 3,1 km/h (1 Bft) SW 226 0 min 0,000 mm 0,0 UV-I 0 W/m -4,9 C -3,2 C 6,4 km/h (2 Bft) 100,00 %
16.12.2018 19:14 -3,2 C 3,9 C -2,8 C 88 % 1018,4 hPa 0,0 l/m 3,5 km/h (1 Bft) SW 226 0 min 0,000 mm 0,0 UV-I 0 W/m -4,9 C -3,2 C 6,4 km/h (2 Bft) 97,87 %
16.12.2018 19:16 -3,2 C 3,9 C -2,8 C 88 % 1018,4 hPa 0,0 l/m 2,3 km/h (1 Bft) SW 226 0 min 0,000 mm 0,0 UV-I 0 W/m -4,9 C -3,2 C 4,8 km/h (1 Bft) 100,00 %
16.12.2018 19:18 -3,1 C 3,9 C -2,8 C 89 % 1018,5 hPa 0,0 l/m 2,6 km/h (1 Bft) SW 226 0 min 0,000 mm 0,0 UV-I 0 W/m -4,6 C -3,1 C 4,8 km/h (1 Bft) 97,87 %
16.12.2018 19:20 -3,1 C 3,9 C -2,8 C 89 % 1018,5 hPa 0,0 l/m 3,7 km/h (1 Bft) SW 225 0 min 0,000 mm 0,0 UV-I 0 W/m -4,6 C -3,1 C 4,8 km/h (1 Bft) 100,00 %
16.12.2018 19:22 -3,1 C 3,9 C -2,8 C 88 % 1018,5 hPa 0,0 l/m 4,2 km/h (1 Bft) SW 225 0 min 0,000 mm 0,0 UV-I 0 W/m -4,8 C -3,1 C 6,4 km/h (2 Bft) 100,00 %
16.12.2018 19:24 -3,1 C 3,9 C -2,8 C 89 % 1018,5 hPa 0,0 l/m 2,8 km/h (1 Bft) SW 225 0 min 0,000 mm 0,0 UV-I 0 W/m -4,6 C -3,1 C 4,8 km/h (1 Bft) 100,00 %
16.12.2018 19:26 -3,1 C 3,9 C -2,8 C 89 % 1018,5 hPa 0,0 l/m 1,7 km/h (1 Bft) SW 225 0 min 0,000 mm 0,0 UV-I 0 W/m -4,6 C -3,1 C 3,2 km/h (1 Bft) 100,00 %
16.12.2018 19:28 -3,1 C 3,9 C -2,8 C 89 % 1018,5 hPa 0,0 l/m 1,7 km/h (1 Bft) SW 225 0 min 0,000 mm 0,0 UV-I 0 W/m -4,6 C -3,1 C 4,8 km/h (1 Bft) 100,00 %
16.12.2018 19:30 -3,1 C 3,9 C -2,8 C 89 % 1018,5 hPa 0,0 l/m 2,0 km/h (1 Bft) SW 225 0 min 0,000 mm 0,0 UV-I 0 W/m -4,6 C -3,1 C 4,8 km/h (1 Bft) 100,00 %
16.12.2018 19:32 -3,1 C 3,9 C -2,8 C 89 % 1018,5 hPa 0,0 l/m 1,7 km/h (1 Bft) SW 226 0 min 0,000 mm 0,0 UV-I 0 W/m -4,6 C -3,1 C 3,2 km/h (1 Bft) 100,00 %
16.12.2018 19:34 -3,0 C 3,9 C -2,8 C 89 % 1018,5 hPa 0,0 l/m 1,2 km/h (1 Bft) SW 226 0 min 0,000 mm 0,0 UV-I 0 W/m -4,6 C -3,0 C 1,6 km/h (1 Bft) 97,87 %
16.12.2018 19:36 -3,0 C 3,9 C -2,8 C 89 % 1018,6 hPa 0,0 l/m 1,5 km/h (1 Bft) SW 226 0 min 0,000 mm 0,0 UV-I 0 W/m -4,6 C -3,0 C 3,2 km/h (1 Bft) 100,00 %
16.12.2018 19:38 -3,0 C 3,9 C -2,8 C 89 % 1018,5 hPa 0,0 l/m 2,3 km/h (1 Bft) SW 230 0 min 0,000 mm 0,0 UV-I 0 W/m -4,6 C -3,0 C 4,8 km/h (1 Bft) 98,00 %
16.12.2018 19:40 -3,0 C 3,9 C -2,8 C 89 % 1018,5 hPa 0,0 l/m 3,4 km/h (1 Bft) SW 236 0 min 0,000 mm 0,0 UV-I 0 W/m -4,6 C -3,0 C 4,8 km/h (1 Bft) 100,00 %
16.12.2018 19:42 -3,0 C 3,9 C -2,8 C 88 % 1018,5 hPa 0,0 l/m 2,7 km/h (1 Bft) SW 236 0 min 0,000 mm 0,0 UV-I 0 W/m -4,7 C -3,0 C 4,8 km/h (1 Bft) 100,00 %
16.12.2018 19:44 -3,0 C 3,9 C -2,8 C 89 % 1018,6 hPa 0,0 l/m 2,6 km/h (1 Bft) SW 236 0 min 0,000 mm 0,0 UV-I 0 W/m -4,6 C -3,0 C 3,2 km/h (1 Bft) 100,00 %
16.12.2018 19:46 -3,0 C 3,9 C -2,8 C 89 % 1018,5 hPa 0,0 l/m 2,9 km/h (1 Bft) SW 236 0 min 0,000 mm 0,0 UV-I 0 W/m -4,6 C -3,0 C 4,8 km/h (1 Bft) 100,00 %
16.12.2018 19:48 -3,0 C 3,9 C -2,2 C 89 % 1018,5 hPa 0,0 l/m 1,9 km/h (1 Bft) SW 236 0 min 0,000 mm 0,0 UV-I 0 W/m -4,6 C -3,0 C 3,2 km/h (1 Bft) 100,00 %
16.12.2018 19:50 -3,0 C 3,9 C -2,2 C 88 % 1018,4 hPa 0,0 l/m 0,5 km/h (0 Bft) SW 236 0 min 0,000 mm 0,0 UV-I 0 W/m -4,7 C -3,0 C 1,6 km/h (1 Bft) 97,87 %
16.12.2018 19:52 -3,0 C 3,9 C -2,2 C 88 % 1018,3 hPa 0,0 l/m 1,2 km/h (1 Bft) SW 236 0 min 0,000 mm 0,0 UV-I 0 W/m -4,7 C -3,0 C 3,2 km/h (1 Bft) 100,00 %
16.12.2018 19:54 -2,9 C 3,9 C -2,2 C 89 % 1018,3 hPa 0,0 l/m 0,9 km/h (0 Bft) SW 236 0 min 0,000 mm 0,0 UV-I 0 W/m -4,5 C -2,9 C 1,6 km/h (1 Bft) 97,87 %
16.12.2018 19:56 -2,9 C 3,9 C -2,2 C 88 % 1018,3 hPa 0,0 l/m 0,1 km/h (0 Bft) SW 236 0 min 0,000 mm 0,0 UV-I 0 W/m -4,6 C -2,9 C 1,6 km/h (1 Bft) 97,87 %
16.12.2018 19:58 -2,9 C 3,9 C -2,2 C 89 % 1018,3 hPa 0,0 l/m 0,3 km/h (0 Bft) SW 236 0 min 0,000 mm 0,0 UV-I 0 W/m -4,5 C -2,9 C 1,6 km/h (1 Bft) 96,00 %
16.12.2018 20:00 -2,9 C 3,9 C -2,2 C 89 % 1018,3 hPa 0,0 l/m 0,0 km/h (0 Bft) SW 236 0 min 0,000 mm 0,0 UV-I 0 W/m -4,5 C -2,9 C 0,0 km/h (0 Bft) 95,74 %
16.12.2018 20:02 -2,9 C 3,9 C -2,2 C 88 % 1018,3 hPa 0,0 l/m 0,0 km/h (0 Bft) SW 236 0 min 0,000 mm 0,0 UV-I 0 W/m -4,6 C -2,9 C 0,0 km/h (0 Bft) 100,00 %
16.12.2018 20:04 -2,9 C 3,9 C -2,2 C 89 % 1018,2 hPa 0,0 l/m 0,1 km/h (0 Bft) SW 236 0 min 0,000 mm 0,0 UV-I 0 W/m -4,5 C -2,9 C 1,6 km/h (1 Bft) 97,87 %
16.12.2018 20:06 -2,9 C 3,9 C -2,2 C 89 % 1018,3 hPa 0,0 l/m 0,0 km/h (0 Bft) SW 236 0 min 0,000 mm 0,0 UV-I 0 W/m -4,5 C -2,9 C 1,6 km/h (1 Bft) 94,23 %
16.12.2018 20:08 -2,9 C 3,9 C -2,2 C 89 % 1018,3 hPa 0,0 l/m 1,0 km/h (0 Bft) SW 236 0 min 0,000 mm 0,0 UV-I 0 W/m -4,5 C -2,9 C 3,2 km/h (1 Bft) 97,92 %
16.12.2018 20:10 -2,9 C 3,9 C -2,2 C 89 % 1018,3 hPa 0,0 l/m 1,2 km/h (1 Bft) SW 236 0 min 0,000 mm 0,0 UV-I 0 W/m -4,5 C -2,9 C 1,6 km/h (1 Bft) 97,87 %
16.12.2018 20:12 -2,9 C 3,9 C -2,2 C 89 % 1018,3 hPa 0,0 l/m 0,6 km/h (0 Bft) SW 236 0 min 0,000 mm 0,0 UV-I 0 W/m -4,5 C -2,9 C 1,6 km/h (1 Bft) 95,74 %
16.12.2018 20:14 -2,8 C 3,9 C -2,2 C 89 % 1018,3 hPa 0,0 l/m 0,0 km/h (0 Bft) SW 236 0 min 0,000 mm 0,0 UV-I 0 W/m -4,4 C -2,8 C 0,0 km/h (0 Bft) 95,74 %
16.12.2018 20:16 -2,8 C 3,9 C -2,2 C 89 % 1018,3 hPa 0,0 l/m 1,2 km/h (1 Bft) SW 236 0 min 0,000 mm 0,0 UV-I 0 W/m -4,4 C -2,8 C 3,2 km/h (1 Bft) 97,87 %
16.12.2018 20:18 -2,8 C 3,9 C -2,2 C 89 % 1018,3 hPa 0,0 l/m 2,0 km/h (1 Bft) SW 236 0 min 0,000 mm 0,0 UV-I 0 W/m -4,4 C -2,8 C 3,2 km/h (1 Bft) 96,00 %
16.12.2018 20:20 -2,8 C 3,9 C -2,2 C 89 % 1018,3 hPa 0,0 l/m 1,5 km/h (1 Bft) SW 236 0 min 0,000 mm 0,0 UV-I 0 W/m -4,4 C -2,8 C 3,2 km/h (1 Bft) 95,74 %
16.12.2018 20:22 -2,8 C 3,9 C -2,2 C 89 % 1018,3 hPa 0,0 l/m 0,4 km/h (0 Bft) SW 236 0 min 0,000 mm 0,0 UV-I 0 W/m -4,4 C -2,8 C 1,6 km/h (1 Bft) 95,74 %
16.12.2018 20:24 -2,8 C 3,9 C -2,2 C 89 % 1018,4 hPa 0,0 l/m 1,5 km/h (1 Bft) SW 236 0 min 0,000 mm 0,0 UV-I 0 W/m -4,4 C -2,8 C 3,2 km/h (1 Bft) 95,74 %
16.12.2018 20:26 -2,8 C 3,9 C -2,2 C 89 % 1018,4 hPa 0,0 l/m 1,3 km/h (1 Bft) SW 236 0 min 0,000 mm 0,0 UV-I 0 W/m -4,4 C -2,8 C 3,2 km/h (1 Bft) 93,62 %
16.12.2018 20:28 -2,8 C 3,9 C -2,2 C 89 % 1018,4 hPa 0,0 l/m 0,9 km/h (0 Bft) SW 236 0 min 0,000 mm 0,0 UV-I 0 W/m -4,4 C -2,8 C 1,6 km/h (1 Bft) 97,37 %
16.12.2018 20:30 -2,8 C 3,9 C -2,2 C 89 % 1018,4 hPa 0,0 l/m 0,4 km/h (0 Bft) SW 236 0 min 0,000 mm 0,0 UV-I 0 W/m -4,4 C -2,8 C 1,6 km/h (1 Bft) 98,00 %
16.12.2018 20:32 -2,8 C 3,9 C -2,2 C 89 % 1018,4 hPa 0,0 l/m 1,9 km/h (1 Bft) SW 236 0 min 0,000 mm 0,0 UV-I 0 W/m -4,4 C -2,8 C 3,2 km/h (1 Bft) 95,74 %
16.12.2018 20:34 -2,8 C 3,9 C -2,2 C 89 % 1018,3 hPa 0,0 l/m 2,1 km/h (1 Bft) SW 236 0 min 0,000 mm 0,0 UV-I 0 W/m -4,4 C -2,8 C 3,2 km/h (1 Bft) 95,74 %
16.12.2018 20:36 -2,8 C 3,9 C -2,2 C 89 % 1018,4 hPa 0,0 l/m 0,9 km/h (0 Bft) SW 236 0 min 0,000 mm 0,0 UV-I 0 W/m -4,4 C -2,8 C 1,6 km/h (1 Bft) 97,87 %
16.12.2018 20:38 -2,8 C 3,9 C -2,2 C 89 % 1018,4 hPa 0,0 l/m 1,8 km/h (1 Bft) SW 236 0 min 0,000 mm 0,0 UV-I 0 W/m -4,4 C -2,8 C 3,2 km/h (1 Bft) 98,00 %
16.12.2018 20:40 -2,8 C 3,9 C -2,2 C 89 % 1018,5 hPa 0,0 l/m 2,4 km/h (1 Bft) SW 236 0 min 0,000 mm 0,0 UV-I 0 W/m -4,4 C -2,8 C 4,8 km/h (1 Bft) 97,87 %
16.12.2018 20:42 -2,8 C 3,9 C -2,2 C 89 % 1018,5 hPa 0,0 l/m 2,3 km/h (1 Bft) SW 236 0 min 0,000 mm 0,0 UV-I 0 W/m -4,4 C -2,8 C 3,2 km/h (1 Bft) 97,87 %
16.12.2018 20:44 -2,8 C 3,9 C -2,2 C 89 % 1018,5 hPa 0,0 l/m 3,0 km/h (1 Bft) SW 236 0 min 0,000 mm 0,0 UV-I 0 W/m -4,4 C -2,8 C 4,8 km/h (1 Bft) 97,87 %
16.12.2018 20:46 -2,8 C 3,9 C -2,2 C 89 % 1018,6 hPa 0,0 l/m 3,7 km/h (1 Bft) NO 49 0 min 0,000 mm 0,0 UV-I 0 W/m -4,4 C -2,8 C 4,8 km/h (1 Bft) 97,87 %
16.12.2018 20:48 -2,8 C 3,9 C -2,2 C 89 % 1018,5 hPa 0,0 l/m 3,0 km/h (1 Bft) NO 49 0 min 0,000 mm 0,0 UV-I 0 W/m -4,4 C -2,8 C 4,8 km/h (1 Bft) 97,92 %
16.12.2018 20:50 -2,8 C 3,9 C -2,2 C 89 % 1018,6 hPa 0,0 l/m 4,3 km/h (1 Bft) NO 48 0 min 0,000 mm 0,0 UV-I 0 W/m -4,4 C -2,8 C 6,4 km/h (2 Bft) 97,87 %
16.12.2018 20:52 -2,8 C 3,9 C -2,2 C 89 % 1018,6 hPa 0,0 l/m 4,2 km/h (1 Bft) NO 48 0 min 0,000 mm 0,0 UV-I 0 W/m -4,4 C -2,8 C 4,8 km/h (1 Bft) 97,87 %
16.12.2018 20:54 -2,7 C 3,9 C -2,2 C 90 % 1018,5 hPa 0,0 l/m 4,6 km/h (1 Bft) NO 56 0 min 0,000 mm 0,0 UV-I 0 W/m -4,1 C -2,7 C 6,4 km/h (2 Bft) 100,00 %
16.12.2018 20:56 -2,7 C 3,9 C -2,2 C 90 % 1018,6 hPa 0,0 l/m 3,8 km/h (1 Bft) NO 55 0 min 0,000 mm 0,0 UV-I 0 W/m -4,1 C -2,7 C 4,8 km/h (1 Bft) 97,87 %
16.12.2018 20:58 -2,7 C 3,9 C -2,2 C 90 % 1018,6 hPa 0,0 l/m 4,1 km/h (1 Bft) NO 55 0 min 0,000 mm 0,0 UV-I 0 W/m -4,1 C -2,7 C 6,4 km/h (2 Bft) 100,00 %
16.12.2018 21:00 -2,7 C 3,9 C -2,2 C 90 % 1018,5 hPa 0,0 l/m 4,5 km/h (1 Bft) NO 54 0 min 0,000 mm 0,0 UV-I 0 W/m -4,1 C -2,7 C 4,8 km/h (1 Bft) 100,00 %
16.12.2018 21:02 -2,7 C 3,9 C -2,2 C 90 % 1018,6 hPa 0,0 l/m 4,6 km/h (1 Bft) NO 55 0 min 0,000 mm 0,0 UV-I 0 W/m -4,1 C -2,7 C 6,4 km/h (2 Bft) 100,00 %
16.12.2018 21:04 -2,7 C 3,9 C -2,2 C 90 % 1018,7 hPa 0,0 l/m 4,8 km/h (1 Bft) NO 34 0 min 0,000 mm 0,0 UV-I 0 W/m -4,1 C -2,7 C 6,4 km/h (2 Bft) 97,87 %
16.12.2018 21:06 -2,8 C 3,9 C -2,2 C 90 % 1018,7 hPa 0,0 l/m 4,6 km/h (1 Bft) NO 38 0 min 0,000 mm 0,0 UV-I 0 W/m -4,2 C -2,8 C 6,4 km/h (2 Bft) 100,00 %
16.12.2018 21:08 -2,8 C 3,9 C -2,2 C 90 % 1018,8 hPa 0,0 l/m 4,2 km/h (1 Bft) NO 51 0 min 0,000 mm 0,0 UV-I 0 W/m -4,2 C -2,8 C 6,4 km/h (2 Bft) 98,00 %
16.12.2018 21:10 -2,8 C 3,9 C -2,2 C 90 % 1018,7 hPa 0,0 l/m 4,2 km/h (1 Bft) O-NO 70 0 min 0,000 mm 0,0 UV-I 0 W/m -4,2 C -2,8 C 4,8 km/h (1 Bft) 97,37 %
16.12.2018 21:12 -2,8 C 3,9 C -2,2 C 90 % 1018,7 hPa 0,0 l/m 3,0 km/h (1 Bft) O 82 0 min 0,000 mm 0,0 UV-I 0 W/m -4,2 C -2,8 C 4,8 km/h (1 Bft) 97,87 %
16.12.2018 21:14 -2,8 C 3,9 C -2,2 C 89 % 1018,6 hPa 0,0 l/m 5,4 km/h (1 Bft) O-NO 68 0 min 0,000 mm 0,0 UV-I 0 W/m -4,4 C -2,8 C 8,0 km/h (2 Bft) 97,87 %
16.12.2018 21:16 -2,8 C 3,9 C -2,2 C 89 % 1018,6 hPa 0,0 l/m 6,1 km/h (2 Bft) O-NO 78 0 min 0,000 mm 0,0 UV-I 0 W/m -4,4 C -2,8 C 8,0 km/h (2 Bft) 97,87 %
16.12.2018 21:18 -2,8 C 3,9 C -2,2 C 89 % 1018,6 hPa 0,0 l/m 5,9 km/h (2 Bft) O-NO 71 0 min 0,000 mm 0,0 UV-I 0 W/m -4,4 C -2,8 C 9,7 km/h (2 Bft) 97,87 %
16.12.2018 21:20 -2,8 C 3,9 C -2,2 C 89 % 1018,6 hPa 0,0 l/m 6,7 km/h (2 Bft) O 88 0 min 0,000 mm 0,0 UV-I 0 W/m -4,4 C -3,1 C 11,3 km/h (2 Bft) 97,87 %
16.12.2018 21:22 -2,8 C 3,9 C -2,2 C 89 % 1018,7 hPa 0,0 l/m 6,2 km/h (2 Bft) O 82 0 min 0,000 mm 0,0 UV-I 0 W/m -4,4 C -2,8 C 8,0 km/h (2 Bft) 97,44 %
16.12.2018 21:24 -2,9 C 3,9 C -2,2 C 89 % 1018,7 hPa 0,0 l/m 4,0 km/h (1 Bft) O 82 0 min 0,000 mm 0,0 UV-I 0 W/m -4,5 C -2,9 C 6,4 km/h (2 Bft) 96,23 %
16.12.2018 21:26 -2,9 C 3,9 C -2,2 C 89 % 1018,7 hPa 0,0 l/m 5,8 km/h (2 Bft) O-NO 69 0 min 0,000 mm 0,0 UV-I 0 W/m -4,5 C -2,9 C 8,0 km/h (2 Bft) 97,87 %
16.12.2018 21:28 -2,8 C 3,9 C -2,2 C 89 % 1018,7 hPa 0,0 l/m 6,0 km/h (2 Bft) O 86 0 min 0,000 mm 0,0 UV-I 0 W/m -4,4 C -2,8 C 8,0 km/h (2 Bft) 95,74 %
16.12.2018 21:30 -2,8 C 3,9 C -2,2 C 89 % 1018,7 hPa 0,0 l/m 5,1 km/h (1 Bft) O 83 0 min 0,000 mm 0,0 UV-I 0 W/m -4,4 C -2,8 C 9,7 km/h (2 Bft) 100,00 %
16.12.2018 21:32 -2,8 C 3,9 C -2,2 C 89 % 1018,8 hPa 0,0 l/m 4,7 km/h (1 Bft) O 83 0 min 0,000 mm 0,0 UV-I 0 W/m -4,4 C -2,8 C 6,4 km/h (2 Bft) 100,00 %
16.12.2018 21:34 -2,8 C 3,9 C -2,2 C 89 % 1018,8 hPa 0,0 l/m 4,1 km/h (1 Bft) O 89 0 min 0,000 mm 0,0 UV-I 0 W/m -4,4 C -2,8 C 6,4 km/h (2 Bft) 95,74 %
16.12.2018 21:36 -2,8 C 3,9 C -2,2 C 89 % 1018,8 hPa 0,0 l/m 4,3 km/h (1 Bft) O 84 0 min 0,000 mm 0,0 UV-I 0 W/m -4,4 C -2,8 C 6,4 km/h (2 Bft) 97,87 %
16.12.2018 21:38 -2,8 C 3,9 C -2,2 C 89 % 1018,8 hPa 0,0 l/m 5,6 km/h (1 Bft) O 94 0 min 0,000 mm 0,0 UV-I 0 W/m -4,4 C -2,8 C 8,0 km/h (2 Bft) 95,74 %
16.12.2018 21:40 -2,8 C 3,9 C -2,2 C 89 % 1018,8 hPa 0,0 l/m 5,3 km/h (1 Bft) O 79 0 min 0,000 mm 0,0 UV-I 0 W/m -4,4 C -2,8 C 8,0 km/h (2 Bft) 95,74 %
16.12.2018 21:42 -2,8 C 3,9 C -2,2 C 89 % 1018,9 hPa 0,0 l/m 6,0 km/h (2 Bft) O-NO 78 0 min 0,000 mm 0,0 UV-I 0 W/m -4,4 C -2,8 C 8,0 km/h (2 Bft) 100,00 %
16.12.2018 21:44 -2,8 C 3,9 C -2,2 C 89 % 1018,9 hPa 0,0 l/m 5,4 km/h (1 Bft) O 96 0 min 0,000 mm 0,0 UV-I 0 W/m -4,4 C -2,8 C 9,7 km/h (2 Bft) 100,00 %
16.12.2018 21:46 -2,8 C 3,9 C -2,2 C 89 % 1018,9 hPa 0,0 l/m 5,0 km/h (1 Bft) O-NO 78 0 min 0,000 mm 0,0 UV-I 0 W/m -4,4 C -2,8 C 6,4 km/h (2 Bft) 97,87 %
16.12.2018 21:48 -2,8 C 3,9 C -2,2 C 89 % 1018,9 hPa 0,0 l/m 5,7 km/h (1 Bft) O 101 0 min 0,000 mm 0,0 UV-I 0 W/m -4,4 C -2,8 C 9,7 km/h (2 Bft) 100,00 %
16.12.2018 21:50 -2,8 C 3,9 C -2,2 C 89 % 1019,0 hPa 0,0 l/m 3,7 km/h (1 Bft) O 85 0 min 0,000 mm 0,0 UV-I 0 W/m -4,4 C -2,8 C 6,4 km/h (2 Bft) 97,87 %
16.12.2018 21:52 -2,8 C 3,9 C -2,2 C 89 % 1019,0 hPa 0,0 l/m 3,3 km/h (1 Bft) O 85 0 min 0,000 mm 0,0 UV-I 0 W/m -4,4 C -2,8 C 6,4 km/h (2 Bft) 95,74 %
16.12.2018 21:54 -2,8 C 3,9 C -2,2 C 89 % 1019,0 hPa 0,0 l/m 4,6 km/h (1 Bft) O 85 0 min 0,000 mm 0,0 UV-I 0 W/m -4,4 C -2,8 C 6,4 km/h (2 Bft) 97,87 %
16.12.2018 21:56 -2,8 C 3,9 C -2,2 C 89 % 1019,0 hPa 0,0 l/m 6,7 km/h (2 Bft) O-NO 69 0 min 0,000 mm 0,0 UV-I 0 W/m -4,4 C -3,1 C 9,7 km/h (2 Bft) 100,00 %
16.12.2018 21:58 -2,8 C 3,9 C -2,2 C 89 % 1019,0 hPa 0,0 l/m 4,5 km/h (1 Bft) NO 43 0 min 0,000 mm 0,0 UV-I 0 W/m -4,4 C -2,8 C 6,4 km/h (2 Bft) 97,87 %
16.12.2018 22:00 -2,8 C 3,9 C -2,2 C 89 % 1019,0 hPa 0,0 l/m 4,6 km/h (1 Bft) O-NO 61 0 min 0,000 mm 0,0 UV-I 0 W/m -4,4 C -2,8 C 6,4 km/h (2 Bft) 98,00 %
16.12.2018 22:02 -2,7 C 3,9 C -2,2 C 89 % 1019,0 hPa 0,0 l/m 5,4 km/h (1 Bft) NO 41 0 min 0,000 mm 0,0 UV-I 0 W/m -4,3 C -2,7 C 6,4 km/h (2 Bft) 97,92 %
16.12.2018 22:04 -2,7 C 3,9 C -2,2 C 90 % 1019,0 hPa 0,0 l/m 4,5 km/h (1 Bft) NO 41 0 min 0,000 mm 0,0 UV-I 0 W/m -4,1 C -2,7 C 6,4 km/h (2 Bft) 97,87 %
16.12.2018 22:06 -2,7 C 3,9 C -2,2 C 89 % 1019,1 hPa 0,0 l/m 2,4 km/h (1 Bft) NO 41 0 min 0,000 mm 0,0 UV-I 0 W/m -4,3 C -2,7 C 4,8 km/h (1 Bft) 97,87 %
16.12.2018 22:08 -2,7 C 3,9 C -2,2 C 89 % 1019,2 hPa 0,0 l/m 1,9 km/h (1 Bft) NO 41 0 min 0,000 mm 0,0 UV-I 0 W/m -4,3 C -2,7 C 3,2 km/h (1 Bft) 95,74 %
16.12.2018 22:10 -2,7 C 3,9 C -2,2 C 89 % 1019,2 hPa 0,0 l/m 3,6 km/h (1 Bft) NO 41 0 min 0,000 mm 0,0 UV-I 0 W/m -4,3 C -2,7 C 6,4 km/h (2 Bft) 95,74 %
16.12.2018 22:12 -2,7 C 3,9 C -2,2 C 90 % 1019,2 hPa 0,0 l/m 3,2 km/h (1 Bft) NO 47 0 min 0,000 mm 0,0 UV-I 0 W/m -4,1 C -2,7 C 4,8 km/h (1 Bft) 93,62 %
16.12.2018 22:14 -2,7 C 3,9 C -2,2 C 89 % 1019,2 hPa 0,0 l/m 2,0 km/h (1 Bft) NO 47 0 min 0,000 mm 0,0 UV-I 0 W/m -4,3 C -2,7 C 3,2 km/h (1 Bft) 97,87 %
16.12.2018 22:16 -2,7 C 3,9 C -2,2 C 89 % 1019,1 hPa 0,0 l/m 2,7 km/h (1 Bft) NO 47 0 min 0,000 mm 0,0 UV-I 0 W/m -4,3 C -2,7 C 3,2 km/h (1 Bft) 96,00 %
16.12.2018 22:18 -2,7 C 3,9 C -2,2 C 89 % 1019,2 hPa 0,0 l/m 3,5 km/h (1 Bft) O-NO 74 0 min 0,000 mm 0,0 UV-I 0 W/m -4,3 C -2,7 C 4,8 km/h (1 Bft) 94,29 %
16.12.2018 22:20 -2,7 C 3,9 C -2,2 C 89 % 1019,2 hPa 0,0 l/m 3,1 km/h (1 Bft) O-NO 74 0 min 0,000 mm 0,0 UV-I 0 W/m -4,3 C -2,7 C 4,8 km/h (1 Bft) 95,74 %
16.12.2018 22:22 -2,7 C 3,9 C -2,2 C 89 % 1019,1 hPa 0,0 l/m 2,5 km/h (1 Bft) O-NO 74 0 min 0,000 mm 0,0 UV-I 0 W/m -4,3 C -2,7 C 4,8 km/h (1 Bft) 95,74 %
16.12.2018 22:24 -2,7 C 3,9 C -2,2 C 88 % 1019,0 hPa 0,0 l/m 5,7 km/h (1 Bft) O-NO 73 0 min 0,000 mm 0,0 UV-I 0 W/m -4,4 C -2,7 C 8,0 km/h (2 Bft) 91,49 %
16.12.2018 22:26 -2,7 C 3,9 C -2,2 C 89 % 1019,1 hPa 0,0 l/m 4,9 km/h (1 Bft) O 80 0 min 0,000 mm 0,0 UV-I 0 W/m -4,3 C -2,7 C 6,4 km/h (2 Bft) 93,62 %
16.12.2018 22:28 -2,6 C 3,9 C -2,2 C 89 % 1019,1 hPa 0,0 l/m 4,0 km/h (1 Bft) O 80 0 min 0,000 mm 0,0 UV-I 0 W/m -4,2 C -2,6 C 6,4 km/h (2 Bft) 93,62 %
16.12.2018 22:30 -2,6 C 3,9 C -2,2 C 89 % 1019,1 hPa 0,0 l/m 4,2 km/h (1 Bft) O 80 0 min 0,000 mm 0,0 UV-I 0 W/m -4,2 C -2,6 C 6,4 km/h (2 Bft) 93,62 %
16.12.2018 22:32 -2,6 C 3,9 C -2,2 C 89 % 1019,1 hPa 0,0 l/m 3,8 km/h (1 Bft) O 79 0 min 0,000 mm 0,0 UV-I 0 W/m -4,2 C -2,6 C 6,4 km/h (2 Bft) 91,49 %
16.12.2018 22:34 -2,6 C 3,9 C -2,2 C 89 % 1019,1 hPa 0,0 l/m 4,0 km/h (1 Bft) NO 54 0 min 0,000 mm 0,0 UV-I 0 W/m -4,2 C -2,6 C 6,4 km/h (2 Bft) 93,62 %
16.12.2018 22:36 -2,6 C 3,9 C -2,2 C 89 % 1019,2 hPa 0,0 l/m 5,2 km/h (1 Bft) O 93 0 min 0,000 mm 0,0 UV-I 0 W/m -4,2 C -2,6 C 8,0 km/h (2 Bft) 91,49 %
16.12.2018 22:38 -2,6 C 3,9 C -2,2 C 89 % 1019,3 hPa 0,0 l/m 4,3 km/h (1 Bft) NO 50 0 min 0,000 mm 0,0 UV-I 0 W/m -4,2 C -2,6 C 6,4 km/h (2 Bft) 92,16 %
16.12.2018 22:40 -2,6 C 3,9 C -2,2 C 89 % 1019,2 hPa 0,0 l/m 4,5 km/h (1 Bft) O 84 0 min 0,000 mm 0,0 UV-I 0 W/m -4,2 C -2,6 C 6,4 km/h (2 Bft) 91,49 %
16.12.2018 22:42 -2,6 C 3,9 C -2,2 C 89 % 1019,2 hPa 0,0 l/m 4,8 km/h (1 Bft) O-SO 103 0 min 0,000 mm 0,0 UV-I 0 W/m -4,2 C -2,6 C 6,4 km/h (2 Bft) 89,36 %
16.12.2018 22:44 -2,6 C 3,9 C -2,2 C 89 % 1019,3 hPa 0,0 l/m 4,5 km/h (1 Bft) O 83 0 min 0,000 mm 0,0 UV-I 0 W/m -4,2 C -2,6 C 8,0 km/h (2 Bft) 93,62 %
16.12.2018 22:46 -2,6 C 3,9 C -2,2 C 89 % 1019,2 hPa 0,0 l/m 4,4 km/h (1 Bft) O 92 0 min 0,000 mm 0,0 UV-I 0 W/m -4,2 C -2,6 C 6,4 km/h (2 Bft) 93,62 %
16.12.2018 22:49 -2,6 C 3,9 C -2,2 C 89 % 1019,2 hPa 0,0 l/m 5,3 km/h (1 Bft) O 80 0 min 0,000 mm 0,0 UV-I 0 W/m -4,2 C -2,6 C 8,0 km/h (2 Bft) 94,29 %
16.12.2018 22:50 -2,6 C 3,9 C -2,2 C 89 % 1019,2 hPa 0,0 l/m 5,2 km/h (1 Bft) O-NO 74 0 min 0,000 mm 0,0 UV-I 0 W/m -4,2 C -2,6 C 6,4 km/h (2 Bft) 100,00 %
16.12.2018 22:52 -2,6 C 3,9 C -2,2 C 89 % 1019,1 hPa 0,0 l/m 6,2 km/h (2 Bft) O-NO 74 0 min 0,000 mm 0,0 UV-I 0 W/m -4,2 C -2,6 C 11,3 km/h (2 Bft) 97,87 %
16.12.2018 22:54 -2,6 C 3,9 C -2,2 C 89 % 1019,1 hPa 0,0 l/m 6,8 km/h (2 Bft) O-NO 76 0 min 0,000 mm 0,0 UV-I 0 W/m -4,2 C -3,0 C 8,0 km/h (2 Bft) 94,00 %
16.12.2018 22:56 -2,6 C 3,9 C -2,2 C 89 % 1019,1 hPa 0,0 l/m 6,8 km/h (2 Bft) O-NO 77 0 min 0,000 mm 0,0 UV-I 0 W/m -4,2 C -3,0 C 8,0 km/h (2 Bft) 97,87 %
16.12.2018 22:58 -2,6 C 3,9 C -2,2 C 89 % 1019,1 hPa 0,0 l/m 4,1 km/h (1 Bft) O-SO 118 0 min 0,000 mm 0,0 UV-I 0 W/m -4,2 C -2,6 C 6,4 km/h (2 Bft) 97,87 %
16.12.2018 23:00 -2,6 C 3,9 C -2,2 C 89 % 1019,2 hPa 0,0 l/m 4,7 km/h (1 Bft) O-SO 104 0 min 0,000 mm 0,0 UV-I 0 W/m -4,2 C -2,6 C 6,4 km/h (2 Bft) 95,74 %
16.12.2018 23:02 -2,6 C 3,9 C -2,2 C 89 % 1019,2 hPa 0,0 l/m 2,7 km/h (1 Bft) O-SO 113 0 min 0,000 mm 0,0 UV-I 0 W/m -4,2 C -2,6 C 4,8 km/h (1 Bft) 100,00 %
16.12.2018 23:04 -2,6 C 3,9 C -2,2 C 89 % 1019,2 hPa 0,0 l/m 2,3 km/h (1 Bft) O-SO 117 0 min 0,000 mm 0,0 UV-I 0 W/m -4,2 C -2,6 C 4,8 km/h (1 Bft) 97,87 %
16.12.2018 23:06 -2,6 C 3,9 C -2,2 C 89 % 1019,1 hPa 0,0 l/m 3,8 km/h (1 Bft) O-SO 117 0 min 0,000 mm 0,0 UV-I 0 W/m -4,2 C -2,6 C 4,8 km/h (1 Bft) 100,00 %
16.12.2018 23:08 -2,6 C 3,9 C -2,8 C 89 % 1019,1 hPa 0,0 l/m 4,6 km/h (1 Bft) O-SO 117 0 min 0,000 mm 0,0 UV-I 0 W/m -4,2 C -2,6 C 6,4 km/h (2 Bft) 95,74 %
16.12.2018 23:10 -2,7 C 3,9 C -2,8 C 89 % 1019,1 hPa 0,0 l/m 4,2 km/h (1 Bft) O-SO 106 0 min 0,000 mm 0,0 UV-I 0 W/m -4,3 C -2,7 C 6,4 km/h (2 Bft) 100,00 %
16.12.2018 23:12 -2,7 C 3,9 C -2,8 C 89 % 1019,1 hPa 0,0 l/m 5,4 km/h (1 Bft) SO 128 0 min 0,000 mm 0,0 UV-I 0 W/m -4,3 C -2,7 C 9,7 km/h (2 Bft) 100,00 %
16.12.2018 23:14 -2,7 C 3,9 C -3,3 C 89 % 1019,2 hPa 0,0 l/m 2,1 km/h (1 Bft) SO 128 0 min 0,000 mm 0,0 UV-I 0 W/m -4,3 C -2,7 C 4,8 km/h (1 Bft) 95,74 %
16.12.2018 23:16 -2,7 C 3,9 C -3,3 C 89 % 1019,1 hPa 0,0 l/m 1,3 km/h (1 Bft) SO 128 0 min 0,000 mm 0,0 UV-I 0 W/m -4,3 C -2,7 C 3,2 km/h (1 Bft) 100,00 %
16.12.2018 23:19 -2,8 C 3,9 C -3,9 C 90 % 1019,2 hPa 0,0 l/m 1,7 km/h (1 Bft) SO 128 0 min 0,000 mm 0,0 UV-I 0 W/m -4,2 C -2,8 C 3,2 km/h (1 Bft) 100,00 %
16.12.2018 23:20 -2,8 C 3,9 C -3,9 C 90 % 1019,2 hPa 0,0 l/m 1,1 km/h (1 Bft) SO 128 0 min 0,000 mm 0,0 UV-I 0 W/m -4,2 C -2,8 C 1,6 km/h (1 Bft) 100,00 %
16.12.2018 23:22 -2,8 C 3,9 C -3,9 C 90 % 1019,1 hPa 0,0 l/m 1,6 km/h (1 Bft) SO 128 0 min 0,000 mm 0,0 UV-I 0 W/m -4,2 C -2,8 C 3,2 km/h (1 Bft) 100,00 %
16.12.2018 23:24 -2,9 C 3,9 C -3,9 C 90 % 1019,1 hPa 0,0 l/m 2,3 km/h (1 Bft) SO 128 0 min 0,000 mm 0,0 UV-I 0 W/m -4,3 C -2,9 C 3,2 km/h (1 Bft) 100,00 %
16.12.2018 23:26 -2,9 C 3,9 C -3,9 C 90 % 1019,1 hPa 0,0 l/m 2,5 km/h (1 Bft) SO 128 0 min 0,000 mm 0,0 UV-I 0 W/m -4,3 C -2,9 C 4,8 km/h (1 Bft) 97,37 %
16.12.2018 23:29 -2,9 C 3,9 C -3,9 C 90 % 1019,0 hPa 0,0 l/m 2,6 km/h (1 Bft) SO 128 0 min 0,000 mm 0,0 UV-I 0 W/m -4,3 C -2,9 C 4,8 km/h (1 Bft) 100,00 %
16.12.2018 23:30 -2,9 C 3,9 C -3,9 C 90 % 1019,0 hPa 0,0 l/m 2,8 km/h (1 Bft) SO 128 0 min 0,000 mm 0,0 UV-I 0 W/m -4,3 C -2,9 C 3,2 km/h (1 Bft) 100,00 %
16.12.2018 23:32 -3,0 C 3,9 C -4,4 C 90 % 1019,1 hPa 0,0 l/m 2,5 km/h (1 Bft) SO 128 0 min 0,000 mm 0,0 UV-I 0 W/m -4,4 C -3,0 C 3,2 km/h (1 Bft) 100,00 %
16.12.2018 23:34 -3,1 C 3,9 C -4,4 C 90 % 1019,1 hPa 0,0 l/m 2,7 km/h (1 Bft) SO 128 0 min 0,000 mm 0,0 UV-I 0 W/m -4,5 C -3,1 C 3,2 km/h (1 Bft) 100,00 %
16.12.2018 23:36 -3,1 C 3,9 C -4,4 C 90 % 1019,0 hPa 0,0 l/m 2,2 km/h (1 Bft) SO 128 0 min 0,000 mm 0,0 UV-I 0 W/m -4,5 C -3,1 C 3,2 km/h (1 Bft) 97,87 %
16.12.2018 23:39 -3,2 C 3,9 C -4,4 C 90 % 1019,1 hPa 0,0 l/m 2,5 km/h (1 Bft) SO 128 0 min 0,000 mm 0,0 UV-I 0 W/m -4,6 C -3,2 C 4,8 km/h (1 Bft) 98,59 %
16.12.2018 23:40 -3,2 C 3,9 C -4,4 C 90 % 1019,1 hPa 0,0 l/m 2,7 km/h (1 Bft) SO 128 0 min 0,000 mm 0,0 UV-I 0 W/m -4,6 C -3,2 C 3,2 km/h (1 Bft) 90,91 %
16.12.2018 23:42 -3,2 C 3,9 C -4,4 C 90 % 1019,2 hPa 0,0 l/m 1,6 km/h (1 Bft) SO 128 0 min 0,000 mm 0,0 UV-I 0 W/m -4,6 C -3,2 C 3,2 km/h (1 Bft) 94,00 %
16.12.2018 23:44 -3,2 C 3,9 C -4,4 C 90 % 1019,1 hPa 0,0 l/m 2,3 km/h (1 Bft) SO 128 0 min 0,000 mm 0,0 UV-I 0 W/m -4,6 C -3,2 C 4,8 km/h (1 Bft) 93,62 %
16.12.2018 23:46 -3,3 C 3,9 C -4,4 C 90 % 1019,1 hPa 0,0 l/m 2,7 km/h (1 Bft) SO 128 0 min 0,000 mm 0,0 UV-I 0 W/m -4,7 C -3,3 C 4,8 km/h (1 Bft) 98,00 %
16.12.2018 23:49 -3,2 C 3,9 C -3,9 C 91 % 1019,1 hPa 0,0 l/m 2,3 km/h (1 Bft) SO 128 0 min 0,000 mm 0,0 UV-I 0 W/m -4,5 C -3,2 C 4,8 km/h (1 Bft) 96,10 %
16.12.2018 23:50 -3,2 C 3,9 C -3,9 C 91 % 1019,1 hPa 0,0 l/m 1,0 km/h (0 Bft) SO 128 0 min 0,000 mm 0,0 UV-I 0 W/m -4,5 C -3,2 C 1,6 km/h (1 Bft) 95,65 %
16.12.2018 23:52 -3,2 C 3,9 C -4,4 C 91 % 1019,1 hPa 0,0 l/m 0,8 km/h (0 Bft) SO 128 0 min 0,000 mm 0,0 UV-I 0 W/m -4,5 C -3,2 C 1,6 km/h (1 Bft) 97,87 %
16.12.2018 23:54 -3,2 C 3,9 C -4,4 C 91 % 1019,2 hPa 0,0 l/m 1,9 km/h (1 Bft) SO 128 0 min 0,000 mm 0,0 UV-I 0 W/m -4,5 C -3,2 C 3,2 km/h (1 Bft) 97,87 %
16.12.2018 23:56 -3,2 C 3,9 C -4,4 C 91 % 1019,2 hPa 0,0 l/m 1,6 km/h (1 Bft) SO 128 0 min 0,000 mm 0,0 UV-I 0 W/m -4,5 C -3,2 C 3,2 km/h (1 Bft) 97,44 %
16.12.2018 23:59 -3,2 C 3,9 C -4,4 C 91 % 1019,1 hPa 0,0 l/m 3,4 km/h (1 Bft) SO 128 0 min 0,000 mm 0,0 UV-I 0 W/m -4,5 C -3,2 C 4,8 km/h (1 Bft) 100,00 %
_ Min-Zeit 05:16 00:00 05:14 13:29 12:50 - 00:50 - - - - - - 07:36 05:54 00:50 03:16
Minimum _ -9,8 C 3,9 C -13,3 C 84 % 1016,1 hPa - 0,0 km/h (0 Bft) - - - - - - -10,8 C -11,8 C 0,0 km/h (0 Bft) 88,00 %
_ Max-Zeit 22:14 00:00 10:54 02:04 00:00 00:00 12:50 - - 08:02 11:00 10:50 10:52 20:54 22:28 12:40 01:02
Maximum _ -2,6 C 3,9 C 0,0 C 94 % 1021,6 hPa 0,0 l/m 12,5 km/h
O (3 Bft)
- - 2 min 0,076 mm 0,5 UV-I 364 W/m -4,1 C -2,6 C 19,3 km/h
O-SO (3 Bft)
100,00 %
Durchschnitt _ -5,6 C 3,9 C -5,8 C 90 % 1018,1 hPa #0,0 l/m 3,1 km/h (1 Bft) O - #2:44 h #0,305 mm 0,4 UV-I 108 W/m -7,0 C -5,7 C 5,1 km/h (1 Bft) 97,14 %